[[{"header":{"parameterUnit":"m.s-1","parameterCategory":1,"la1":31.0,"la2":29.5877,"lo1":-88.7671,"lo2":-86.6584,"dy":0.0162,"dx":0.0185,"nx":115,"ny":88,"refTime":"2024-09-10T06:00:00:Z","depth":0,"parameterNumber":2,"parameterNumberName":"U-component_of_WINDS"},"data":[0.0,0.0,0.0,0.0,0.0,0.0,0.0,0.0,0.0,0.0,0.0,0.0,0.0,0.0,0.0,0.0,0.0,0.0,0.0,0.0,0.0,0.0,0.0,0.0,0.0,0.0,0.0,0.0,0.0,0.0,0.0,0.0,0.0,0.0,0.0,0.0,0.0,0.0,0.0,0.0,0.0,0.0,0.0,0.0,0.0,0.0,0.0,0.0,0.0,0.0,0.0,0.0,0.0,0.0,0.0,0.0,0.0,0.0,0.0,0.0,0.0,0.0,0.0,0.0,0.0,0.0,0.0,0.0,0.0,0.0,0.0,0.0,0.0,0.0,0.0,0.0,0.0,0.0,0.0,0.0,0.0,0.0,0.0,0.0,0.0,0.0,0.0,0.0,0.0,0.0,0.0,0.0,0.0,0.0,0.0,0.0,0.0,0.0,0.0,0.0,0.0,0.0,0.0,0.0,0.0,0.0,0.0,0.0,0.0,0.0,0.0,0.0,0.0,0.0,0.0,0.0,0.0,0.0,0.0,0.0,0.0,0.0,0.0,0.0,0.0,0.0,0.0,0.0,0.0,0.0,0.0,0.0,0.0,0.0,0.0,0.0,0.0,0.0,0.0,0.0,0.0,0.0,0.0,0.0,0.0,0.0,0.0,0.0,0.0,0.0,0.0,0.0,0.0,0.0,0.0,0.0,0.0,0.0,0.0,0.0,0.0,0.0,0.0,0.0,0.0,0.0,0.0,0.0,0.0,0.0,0.0,0.0,0.0,0.0,0.0,0.0,0.0,0.0,0.0,0.0,0.0,0.0,0.0,0.0,0.0,0.0,0.0,0.0,0.0,0.0,0.0,0.0,0.0,0.0,0.0,0.0,0.0,0.0,0.0,0.0,0.0,0.0,0.0,0.0,0.0,0.0,0.0,0.0,0.0,0.0,0.0,0.0,0.0,0.0,0.0,0.0,0.0,0.0,0.0,0.0,0.0,0.0,0.0,0.0,0.0,0.0,0.0,0.0,0.0,0.0,0.0,0.0,0.0,0.0,0.0,0.0,0.0,0.0,0.0,0.0,0.0,0.0,0.0,0.0,0.0,0.0,0.0,0.0,0.0,0.0,0.0,0.0,0.0,0.0,0.0,0.0,0.0,0.0,0.0,0.0,0.0,0.0,0.0,0.0,0.0,0.0,0.0,0.0,0.0,0.0,0.0,0.0,0.0,0.0,0.0,0.0,0.0,0.0,0.0,0.0,0.0,0.0,0.0,0.0,0.0,0.0,0.0,0.0,0.0,0.0,0.0,0.0,0.0,0.0,0.0,0.0,0.0,0.0,0.0,0.0,0.0,0.0,0.0,0.0,0.0,0.0,0.0,0.0,0.0,0.0,0.0,0.0,0.0,0.0,0.0,0.0,0.0,0.0,0.0,0.0,0.0,0.0,0.0,0.0,0.0,0.0,0.0,0.0,0.0,0.0,0.0,0.0,0.0,0.0,0.0,0.0,0.0,0.0,0.0,0.0,0.0,0.0,0.0,0.0,0.0,0.0,0.0,0.0,0.0,0.0,0.0,0.0,0.0,0.0,0.0,0.0,0.0,0.0,0.0,0.0,0.0,0.0,0.0,0.0,0.0,0.0,0.0,0.0,0.0,0.0,0.0,0.0,0.0,0.0,0.0,0.0,0.0,0.0,0.0,0.0,0.0,0.0,0.0,0.0,0.0,0.0,0.0,0.0,0.0,0.0,0.0,0.0,0.0,0.0,0.0,0.0,0.0,0.0,0.0,0.0,0.0,0.0,0.0,0.0,0.0,0.0,0.0,0.0,0.0,0.0,0.0,0.0,0.0,0.0,0.0,0.0,0.0,0.0,0.0,0.0,0.0,0.0,0.0,0.0,0.0,0.0,0.0,0.0,0.0,0.0,0.0,0.0,0.0,0.0,0.0,0.0,0.0,0.0,0.0,0.0,0.0,0.0,0.0,0.0,0.0,0.0,0.0,0.0,0.0,0.0,0.0,0.0,0.0,0.0,0.0,0.0,0.0,0.0,0.0,0.0,0.0,0.0,0.0,0.0,0.0,0.0,0.0,0.0,0.0,0.0,0.0,0.0,0.0,0.0,0.0,0.0,0.0,0.0,0.0,0.0,0.0,0.0,0.0,0.0,0.0,0.0,0.0,0.0,0.0,0.0,0.0,0.0,0.0,0.0,0.0,0.0,0.0,0.0,0.0,0.0,0.0,0.0,0.0,0.0,0.0,0.0,0.0,0.0,0.0,0.0,0.0,0.0,0.0,0.0,0.0,0.0,0.0,0.0,0.0,0.0,0.0,0.0,0.0,0.0,0.0,0.0,0.0,0.0,0.0,0.0,0.0,0.0,0.0,0.0,0.0,0.0,0.0,0.0,0.0,0.0,0.0,0.0,0.0,0.0,0.0,0.0,0.0,0.0,0.0,0.0,0.0,0.0,0.0,0.0,0.0,0.0,0.0,0.0,0.0,0.0,0.0,0.0,0.0,0.0,0.0,0.0,0.0,0.0,0.0,0.0,0.0,0.0,0.0,0.0,0.0,0.0,0.0,0.0,0.0,0.0,0.0,0.0,0.0,0.0,0.0,0.0,0.0,0.0,0.0,0.0,0.0,0.0,0.0,0.0,0.0,0.0,0.0,0.0,0.0,0.0,0.0,0.0,0.0,0.0,0.0,0.0,0.0,0.0,0.0,0.0,0.0,0.0,0.0,0.0,0.0,0.0,0.0,0.0,0.0,0.0,0.0,0.0,0.0,0.0,0.0,0.0,0.0,0.0,0.0,0.0,0.0,0.0,0.0,0.0,0.0,0.0,0.0,0.0,0.0,0.0,0.0,0.0,0.0,0.0,0.0,0.0,0.0,0.0,0.0,0.0,0.0,0.0,0.0,0.0,0.0,0.0,0.0,0.0,0.0,0.0,0.0,0.0,0.0,0.0,0.0,0.0,0.0,0.0,0.0,0.0,0.0,0.0,0.0,0.0,0.0,0.0,0.0,0.0,0.0,0.0,0.0,0.0,0.0,0.0,0.0,0.0,0.0,0.0,0.0,0.0,0.0,0.0,0.0,0.0,0.0,0.0,0.0,0.0,0.0,0.0,0.0,0.0,0.0,0.0,0.0,0.0,0.0,0.0,0.0,0.0,0.0,0.0,0.0,0.0,0.0,0.0,0.0,0.0,0.0,0.0,0.0,0.0,0.0,0.0,0.0,0.0,0.0,0.0,0.0,0.0,0.0,0.0,0.0,0.0,0.0,0.0,0.0,0.0,0.0,0.0,0.0,0.0,0.0,0.0,0.0,0.0,0.0,0.0,0.0,0.0,0.0,0.0,0.0,0.0,0.0,0.0,0.0,0.0,0.0,0.0,0.0,0.0,0.0,0.0,0.0,0.0,0.0,0.0,0.0,0.0,0.0,0.0,0.0,0.0,0.0,0.0,0.0,0.0,0.0,0.0,0.0,0.0,0.0,0.0,0.0,0.0,0.0,0.0,0.0,0.0,0.0,0.0,0.0,0.0,0.0,0.0,0.0,0.0,0.0,0.0,0.0,0.0,0.0,0.0,0.0,0.0,0.0,0.0,0.0,0.0,0.0,0.0,0.0,0.0,0.0,0.0,0.0,0.0,0.0,0.0,0.0,0.0,0.0,0.0,0.0,0.0,0.0,0.0,0.0,0.0,0.0,0.0,0.0,0.0,0.0,0.0,0.0,0.0,0.0,0.0,0.0,0.0,0.0,0.0,0.0,0.0,0.0,0.0,0.0,0.0,0.0,0.0,0.0,0.0,0.0,0.0,0.0,0.0,0.0,0.0,0.0,0.0,0.0,0.0,0.0,0.0,0.0,0.0,0.0,0.0,0.0,0.0,0.0,0.0,0.0,0.0,0.0,0.0,0.0,0.0,0.0,0.0,0.0,0.0,0.0,0.0,0.0,0.0,0.0,0.0,0.0,0.0,0.0,0.0,0.0,0.0,0.0,0.0,0.0,0.0,0.0,0.0,0.0,0.0,0.0,0.0,0.0,0.0,0.0,0.0,0.0,0.0,0.0,0.0,0.0,0.0,0.0,0.0,0.0,0.0,0.0,0.0,0.0,0.0,0.0,0.0,0.0,0.0,0.0,0.0,0.0,0.0,0.0,0.0,0.0,0.0,0.0,0.0,0.0,0.0,0.0,0.0,0.0,0.0,0.0,0.0,0.0,0.0,0.0,0.0,0.0,0.0,0.0,0.0,0.0,0.0,0.0,0.0,0.0,0.0,0.0,0.0,0.0,0.0,0.0,0.0,-3.1443,0.0,0.0,0.0,0.0,0.0,0.0,0.0,0.0,0.0,0.0,0.0,0.0,0.0,0.0,0.0,0.0,0.0,0.0,0.0,0.0,0.0,0.0,0.0,0.0,0.0,0.0,0.0,0.0,0.0,0.0,0.0,0.0,0.0,0.0,0.0,0.0,0.0,0.0,0.0,0.0,0.0,0.0,0.0,0.0,0.0,0.0,0.0,0.0,0.0,0.0,0.0,0.0,0.0,0.0,0.0,0.0,0.0,0.0,0.0,0.0,0.0,0.0,0.0,0.0,0.0,0.0,0.0,0.0,0.0,0.0,0.0,0.0,0.0,0.0,0.0,0.0,0.0,0.0,0.0,0.0,0.0,0.0,0.0,0.0,0.0,0.0,0.0,0.0,0.0,0.0,0.0,0.0,0.0,0.0,0.0,0.0,0.0,0.0,0.0,0.0,0.0,0.0,0.0,0.0,0.0,0.0,0.0,0.0,0.0,0.0,-3.3291,-3.3386,-3.214,-3.1543,-3.1635,0.0,0.0,0.0,0.0,0.0,0.0,0.0,0.0,0.0,0.0,0.0,0.0,0.0,0.0,0.0,0.0,0.0,0.0,0.0,0.0,0.0,0.0,0.0,0.0,0.0,0.0,0.0,0.0,0.0,0.0,0.0,0.0,0.0,0.0,0.0,0.0,0.0,0.0,0.0,0.0,0.0,0.0,0.0,0.0,0.0,0.0,0.0,0.0,0.0,0.0,0.0,0.0,0.0,0.0,0.0,0.0,0.0,0.0,0.0,0.0,0.0,0.0,0.0,0.0,0.0,0.0,0.0,0.0,0.0,0.0,0.0,0.0,0.0,0.0,0.0,0.0,0.0,0.0,0.0,0.0,0.0,0.0,0.0,0.0,0.0,0.0,0.0,0.0,0.0,0.0,0.0,0.0,0.0,0.0,0.0,0.0,0.0,0.0,0.0,0.0,0.0,0.0,0.0,0.0,0.0,0.0,0.0,0.0,0.0,0.0,0.0,0.0,-3.2987,-3.2383,-3.2292,0.0,0.0,0.0,0.0,0.0,0.0,0.0,0.0,0.0,0.0,0.0,0.0,0.0,0.0,0.0,0.0,0.0,0.0,0.0,0.0,0.0,0.0,0.0,0.0,0.0,0.0,0.0,0.0,0.0,0.0,0.0,0.0,0.0,0.0,0.0,0.0,0.0,0.0,0.0,0.0,0.0,0.0,0.0,0.0,0.0,0.0,0.0,0.0,0.0,0.0,0.0,0.0,0.0,0.0,0.0,0.0,0.0,0.0,0.0,0.0,0.0,0.0,0.0,0.0,0.0,0.0,0.0,0.0,0.0,0.0,0.0,0.0,0.0,0.0,0.0,0.0,0.0,0.0,0.0,0.0,0.0,0.0,0.0,0.0,0.0,0.0,0.0,0.0,0.0,0.0,0.0,0.0,0.0,0.0,0.0,0.0,0.0,0.0,0.0,0.0,0.0,0.0,0.0,0.0,0.0,0.0,0.0,0.0,0.0,0.0,-3.272,-3.574,-3.5812,0.0,-3.4448,0.0,0.0,0.0,0.0,0.0,0.0,0.0,0.0,0.0,0.0,0.0,0.0,0.0,0.0,0.0,0.0,0.0,0.0,0.0,0.0,0.0,0.0,0.0,0.0,0.0,0.0,0.0,0.0,0.0,0.0,0.0,0.0,0.0,0.0,0.0,0.0,0.0,0.0,0.0,0.0,0.0,0.0,0.0,0.0,0.0,0.0,0.0,0.0,0.0,0.0,0.0,0.0,0.0,0.0,0.0,0.0,0.0,0.0,0.0,0.0,0.0,0.0,0.0,0.0,0.0,0.0,0.0,0.0,0.0,0.0,0.0,0.0,0.0,0.0,0.0,0.0,0.0,0.0,0.0,0.0,0.0,0.0,0.0,0.0,0.0,0.0,0.0,0.0,0.0,0.0,0.0,0.0,0.0,0.0,0.0,0.0,0.0,0.0,0.0,0.0,0.0,0.0,0.0,0.0,0.0,0.0,0.0,0.0,0.0,0.0,-3.4057,-3.6038,-3.5668,-3.4816,0.0,0.0,0.0,0.0,0.0,0.0,0.0,0.0,0.0,0.0,0.0,0.0,0.0,0.0,0.0,0.0,0.0,0.0,0.0,0.0,0.0,0.0,0.0,0.0,0.0,0.0,0.0,0.0,0.0,0.0,0.0,0.0,0.0,0.0,0.0,0.0,0.0,0.0,0.0,0.0,0.0,0.0,0.0,0.0,0.0,0.0,0.0,0.0,0.0,0.0,0.0,0.0,0.0,0.0,0.0,0.0,0.0,0.0,0.0,0.0,0.0,0.0,0.0,0.0,0.0,0.0,0.0,0.0,0.0,0.0,0.0,0.0,0.0,0.0,0.0,0.0,0.0,0.0,0.0,0.0,0.0,0.0,0.0,0.0,0.0,0.0,0.0,0.0,0.0,0.0,0.0,0.0,0.0,0.0,0.0,0.0,0.0,0.0,0.0,0.0,0.0,0.0,0.0,0.0,0.0,0.0,0.0,0.0,0.0,0.0,-3.2867,-3.4801,-3.6786,-3.5901,-3.4569,-3.2977,0.0,0.0,0.0,0.0,0.0,0.0,0.0,0.0,0.0,0.0,0.0,0.0,0.0,0.0,0.0,0.0,0.0,0.0,0.0,0.0,0.0,0.0,0.0,0.0,0.0,0.0,0.0,0.0,0.0,0.0,0.0,0.0,0.0,0.0,0.0,0.0,0.0,0.0,0.0,0.0,0.0,0.0,0.0,0.0,0.0,0.0,0.0,0.0,0.0,0.0,0.0,0.0,0.0,0.0,0.0,0.0,0.0,0.0,0.0,0.0,0.0,0.0,0.0,0.0,0.0,0.0,0.0,0.0,0.0,0.0,0.0,0.0,0.0,0.0,0.0,0.0,0.0,0.0,0.0,0.0,0.0,0.0,0.0,0.0,0.0,0.0,0.0,0.0,0.0,0.0,0.0,0.0,0.0,0.0,0.0,0.0,0.0,0.0,0.0,0.0,0.0,0.0,0.0,0.0,0.0,0.0,0.0,0.0,-3.6,-3.3473,-3.4238,-3.8905,-3.7498,-3.5568,0.0,0.0,0.0,0.0,0.0,0.0,0.0,0.0,0.0,0.0,0.0,0.0,0.0,0.0,0.0,0.0,0.0,0.0,0.0,0.0,0.0,0.0,0.0,0.0,0.0,0.0,0.0,0.0,0.0,0.0,0.0,0.0,0.0,0.0,0.0,0.0,0.0,0.0,0.0,0.0,0.0,0.0,0.0,0.0,0.0,0.0,0.0,0.0,0.0,0.0,0.0,0.0,0.0,0.0,0.0,0.0,0.0,0.0,0.0,0.0,0.0,0.0,0.0,0.0,0.0,0.0,0.0,0.0,0.0,0.0,0.0,0.0,0.0,0.0,0.0,0.0,0.0,0.0,0.0,0.0,0.0,0.0,0.0,0.0,0.0,0.0,0.0,0.0,0.0,0.0,0.0,0.0,0.0,0.0,0.0,0.0,0.0,0.0,0.0,0.0,0.0,0.0,0.0,0.0,0.0,0.0,0.0,0.0,0.0,-2.8339,-3.0309,-3.4216,-3.9817,-3.5992,-3.4035,0.0,0.0,0.0,0.0,0.0,0.0,0.0,0.0,0.0,0.0,0.0,0.0,0.0,0.0,0.0,0.0,0.0,0.0,0.0,0.0,0.0,0.0,0.0,0.0,0.0,0.0,0.0,0.0,0.0,0.0,0.0,0.0,0.0,0.0,0.0,0.0,0.0,0.0,0.0,0.0,0.0,0.0,0.0,0.0,0.0,0.0,0.0,0.0,0.0,0.0,0.0,0.0,0.0,0.0,0.0,0.0,0.0,0.0,0.0,0.0,0.0,0.0,0.0,0.0,0.0,0.0,0.0,0.0,0.0,0.0,0.0,0.0,0.0,0.0,0.0,0.0,0.0,0.0,0.0,0.0,0.0,0.0,0.0,0.0,0.0,0.0,0.0,0.0,0.0,0.0,0.0,0.0,0.0,0.0,0.0,0.0,0.0,0.0,0.0,0.0,0.0,0.0,0.0,0.0,0.0,0.0,0.0,0.0,0.0,-2.7243,0.0,-3.586,-3.8949,-3.5305,-3.2981,0.0,0.0,0.0,0.0,0.0,0.0,0.0,0.0,0.0,0.0,0.0,0.0,0.0,0.0,0.0,0.0,0.0,0.0,0.0,0.0,0.0,0.0,0.0,0.0,0.0,0.0,0.0,0.0,0.0,0.0,0.0,0.0,0.0,0.0,0.0,0.0,0.0,0.0,0.0,0.0,0.0,0.0,0.0,0.0,0.0,0.0,0.0,0.0,0.0,0.0,0.0,0.0,0.0,0.0,0.0,0.0,0.0,0.0,0.0,0.0,0.0,0.0,0.0,0.0,0.0,0.0,0.0,0.0,0.0,0.0,0.0,0.0,0.0,0.0,0.0,0.0,0.0,0.0,0.0,0.0,0.0,0.0,0.0,0.0,0.0,0.0,0.0,0.0,0.0,0.0,0.0,0.0,0.0,0.0,0.0,0.0,0.0,0.0,0.0,0.0,0.0,0.0,0.0,0.0,0.0,0.0,0.0,0.0,-2.6893,-3.4432,-3.8225,-3.8822,-3.6432,-3.5615,-3.256,0.0,0.0,0.0,0.0,0.0,0.0,0.0,0.0,0.0,0.0,0.0,0.0,0.0,0.0,0.0,0.0,0.0,0.0,0.0,0.0,0.0,0.0,0.0,0.0,0.0,0.0,0.0,0.0,0.0,0.0,0.0,0.0,0.0,0.0,0.0,0.0,0.0,0.0,0.0,0.0,0.0,0.0,0.0,0.0,0.0,0.0,0.0,0.0,0.0,0.0,0.0,0.0,0.0,0.0,0.0,0.0,0.0,0.0,0.0,0.0,0.0,0.0,0.0,0.0,0.0,0.0,0.0,0.0,0.0,0.0,0.0,0.0,0.0,0.0,0.0,0.0,0.0,0.0,0.0,0.0,0.0,0.0,0.0,0.0,0.0,0.0,0.0,0.0,0.0,0.0,0.0,0.0,0.0,0.0,0.0,0.0,0.0,0.0,0.0,0.0,0.0,0.0,0.0,0.0,0.0,0.0,0.0,0.0,0.0,-3.1681,-3.4216,-3.6967,-3.956,-3.4284,-3.1828,0.0,0.0,0.0,0.0,0.0,0.0,0.0,0.0,0.0,0.0,0.0,0.0,0.0,0.0,0.0,0.0,0.0,0.0,0.0,0.0,0.0,0.0,0.0,0.0,0.0,0.0,0.0,0.0,0.0,0.0,0.0,0.0,0.0,0.0,0.0,0.0,0.0,0.0,0.0,0.0,0.0,0.0,0.0,0.0,0.0,0.0,0.0,0.0,0.0,0.0,0.0,0.0,0.0,0.0,0.0,0.0,0.0,0.0,0.0,0.0,0.0,0.0,0.0,0.0,0.0,0.0,0.0,0.0,0.0,0.0,0.0,0.0,0.0,0.0,0.0,0.0,0.0,0.0,0.0,0.0,0.0,0.0,0.0,0.0,0.0,0.0,0.0,0.0,0.0,0.0,0.0,0.0,0.0,0.0,0.0,0.0,0.0,0.0,0.0,0.0,0.0,0.0,0.0,0.0,0.0,0.0,0.0,0.0,0.0,-3.4244,-3.6864,-3.925,-4.1178,-3.5502,-3.2889,-3.379,0.0,0.0,0.0,0.0,0.0,0.0,0.0,0.0,0.0,0.0,0.0,0.0,0.0,0.0,0.0,0.0,0.0,0.0,0.0,0.0,0.0,0.0,0.0,0.0,0.0,0.0,0.0,0.0,0.0,0.0,0.0,0.0,0.0,0.0,0.0,0.0,0.0,0.0,0.0,0.0,0.0,0.0,0.0,0.0,0.0,0.0,0.0,0.0,0.0,0.0,0.0,0.0,0.0,0.0,0.0,0.0,0.0,0.0,0.0,0.0,0.0,0.0,0.0,0.0,0.0,0.0,0.0,0.0,0.0,0.0,0.0,0.0,0.0,0.0,0.0,0.0,0.0,0.0,0.0,0.0,0.0,0.0,0.0,0.0,0.0,0.0,0.0,0.0,0.0,0.0,0.0,0.0,0.0,0.0,0.0,0.0,0.0,0.0,0.0,0.0,0.0,0.0,0.0,0.0,0.0,0.0,0.0,0.0,-4.0594,-4.4639,-4.4854,-4.127,-3.8683,-3.5419,0.0,0.0,0.0,0.0,0.0,0.0,0.0,0.0,0.0,0.0,0.0,0.0,0.0,0.0,0.0,0.0,0.0,0.0,0.0,0.0,0.0,0.0,0.0,0.0,0.0,0.0,0.0,0.0,0.0,0.0,0.0,0.0,0.0,0.0,0.0,0.0,0.0,0.0,0.0,0.0,0.0,0.0,0.0,0.0,0.0,0.0,0.0,0.0,0.0,0.0,0.0,0.0,0.0,0.0,0.0,0.0,0.0,0.0,0.0,0.0,0.0,0.0,0.0,0.0,0.0,0.0,0.0,0.0,0.0,0.0,0.0,0.0,0.0,0.0,0.0,0.0,0.0,0.0,0.0,0.0,0.0,0.0,0.0,0.0,0.0,0.0,0.0,0.0,0.0,0.0,0.0,0.0,0.0,0.0,0.0,0.0,0.0,0.0,0.0,0.0,0.0,0.0,0.0,0.0,0.0,0.0,0.0,0.0,0.0,-4.0081,-4.421,-4.6496,-4.647,-4.0355,-3.6755,0.0,0.0,0.0,0.0,0.0,0.0,0.0,0.0,0.0,0.0,0.0,0.0,0.0,0.0,0.0,0.0,0.0,0.0,0.0,0.0,0.0,0.0,0.0,0.0,0.0,0.0,0.0,0.0,0.0,0.0,0.0,0.0,0.0,0.0,0.0,0.0,0.0,0.0,0.0,0.0,0.0,0.0,0.0,0.0,0.0,0.0,0.0,0.0,0.0,0.0,0.0,0.0,0.0,0.0,0.0,0.0,0.0,0.0,0.0,0.0,0.0,0.0,0.0,0.0,0.0,0.0,0.0,0.0,0.0,0.0,0.0,0.0,0.0,0.0,0.0,0.0,0.0,0.0,0.0,0.0,0.0,0.0,0.0,0.0,0.0,0.0,0.0,0.0,0.0,0.0,0.0,0.0,0.0,0.0,0.0,0.0,0.0,0.0,0.0,0.0,0.0,0.0,0.0,0.0,0.0,0.0,0.0,0.0,-3.8312,-4.1653,-4.4908,-4.7261,-4.8445,-4.277,-3.8931,0.0,0.0,0.0,0.0,0.0,0.0,0.0,0.0,0.0,0.0,0.0,0.0,0.0,0.0,0.0,0.0,0.0,0.0,0.0,0.0,0.0,0.0,0.0,0.0,0.0,0.0,0.0,0.0,0.0,0.0,0.0,0.0,0.0,0.0,0.0,0.0,0.0,0.0,0.0,0.0,0.0,0.0,0.0,0.0,0.0,0.0,0.0,0.0,0.0,0.0,0.0,0.0,0.0,0.0,0.0,0.0,0.0,0.0,0.0,0.0,0.0,0.0,0.0,0.0,0.0,0.0,0.0,0.0,0.0,0.0,0.0,0.0,0.0,0.0,0.0,0.0,0.0,0.0,0.0,0.0,0.0,0.0,0.0,0.0,0.0,0.0,0.0,0.0,0.0,0.0,0.0,0.0,0.0,0.0,0.0,0.0,0.0,0.0,0.0,0.0,0.0,0.0,0.0,0.0,0.0,0.0,0.0,0.0,-3.9369,-4.3985,-4.5972,-4.7243,-4.7786,-4.5142,-4.1308,0.0,0.0,0.0,0.0,0.0,0.0,0.0,0.0,0.0,0.0,0.0,0.0,0.0,0.0,0.0,0.0,0.0,0.0,0.0,0.0,0.0,0.0,0.0,0.0,0.0,0.0,0.0,0.0,0.0,0.0,0.0,0.0,0.0,0.0,0.0,0.0,0.0,0.0,0.0,0.0,0.0,0.0,0.0,0.0,0.0,0.0,0.0,0.0,0.0,0.0,0.0,0.0,0.0,0.0,0.0,0.0,0.0,0.0,0.0,0.0,0.0,0.0,0.0,0.0,0.0,0.0,0.0,0.0,0.0,0.0,0.0,0.0,0.0,0.0,0.0,0.0,0.0,0.0,0.0,0.0,0.0,0.0,0.0,0.0,0.0,0.0,0.0,0.0,0.0,0.0,0.0,0.0,0.0,0.0,0.0,0.0,0.0,0.0,0.0,0.0,0.0,0.0,0.0,0.0,0.0,0.0,0.0,0.0,-3.9766,-4.2445,-4.4693,-4.6146,-4.6645,-4.4068,-4.1315,0.0,0.0,0.0,0.0,0.0,0.0,0.0,0.0,0.0,0.0,0.0,0.0,0.0,0.0,0.0,0.0,0.0,0.0,0.0,0.0,0.0,0.0,0.0,0.0,0.0,0.0,0.0,0.0,0.0,0.0,0.0,0.0,0.0,0.0,0.0,0.0,0.0,0.0,0.0,0.0,0.0,0.0,0.0,0.0,0.0,0.0,0.0,0.0,-3.8614,0.0,0.0,0.0,0.0,0.0,0.0,0.0,0.0,0.0,0.0,0.0,0.0,0.0,0.0,0.0,0.0,0.0,0.0,0.0,0.0,0.0,0.0,0.0,0.0,0.0,0.0,0.0,0.0,0.0,0.0,0.0,0.0,0.0,0.0,0.0,0.0,0.0,0.0,0.0,0.0,0.0,0.0,0.0,0.0,0.0,0.0,0.0,0.0,0.0,0.0,0.0,0.0,0.0,0.0,0.0,0.0,0.0,0.0,0.0,-4.1022,-4.3226,-4.5071,-4.6013,-4.5915,-4.4331,-4.1819,0.0,0.0,0.0,0.0,0.0,0.0,0.0,0.0,0.0,0.0,0.0,0.0,0.0,0.0,0.0,0.0,0.0,0.0,0.0,0.0,0.0,0.0,0.0,0.0,0.0,0.0,0.0,0.0,0.0,0.0,0.0,0.0,0.0,0.0,0.0,0.0,0.0,0.0,0.0,0.0,0.0,0.0,0.0,0.0,0.0,0.0,0.0,0.0,0.0,0.0,0.0,0.0,0.0,0.0,0.0,0.0,0.0,0.0,0.0,0.0,0.0,0.0,0.0,0.0,0.0,0.0,0.0,0.0,0.0,0.0,0.0,0.0,0.0,0.0,0.0,0.0,0.0,0.0,0.0,0.0,0.0,0.0,0.0,0.0,0.0,0.0,0.0,0.0,0.0,0.0,0.0,0.0,0.0,0.0,0.0,0.0,0.0,0.0,0.0,0.0,0.0,0.0,0.0,0.0,0.0,0.0,0.0,-3.8592,-4.2141,-4.4746,-4.5912,-4.6184,-4.5614,-4.5017,-4.234,-3.7416,0.0,0.0,0.0,0.0,0.0,0.0,0.0,0.0,0.0,0.0,0.0,0.0,0.0,0.0,0.0,0.0,0.0,0.0,0.0,0.0,0.0,0.0,0.0,0.0,0.0,0.0,0.0,0.0,0.0,0.0,0.0,0.0,0.0,0.0,0.0,0.0,0.0,0.0,-3.4633,-3.8205,0.0,0.0,0.0,0.0,0.0,0.0,0.0,0.0,-4.199,0.0,0.0,0.0,0.0,0.0,0.0,0.0,0.0,0.0,0.0,0.0,0.0,0.0,0.0,0.0,0.0,0.0,0.0,0.0,0.0,0.0,0.0,0.0,0.0,0.0,0.0,0.0,0.0,0.0,0.0,0.0,0.0,0.0,0.0,0.0,0.0,0.0,0.0,0.0,0.0,0.0,0.0,0.0,0.0,0.0,0.0,0.0,0.0,0.0,0.0,0.0,0.0,0.0,0.0,0.0,0.0,-3.8238,-3.9156,-4.1489,-4.5343,-4.6102,-4.6184,-4.5614,-4.5017,-4.2058,-3.6681,0.0,0.0,0.0,0.0,0.0,0.0,0.0,0.0,0.0,0.0,0.0,0.0,0.0,0.0,0.0,0.0,0.0,0.0,0.0,0.0,0.0,0.0,0.0,0.0,0.0,0.0,0.0,0.0,0.0,0.0,0.0,0.0,0.0,0.0,0.0,0.0,0.0,0.0,0.0,-4.3685,-4.5406,0.0,0.0,0.0,0.0,0.0,0.0,0.0,0.0,-4.2216,0.0,0.0,0.0,0.0,0.0,0.0,0.0,0.0,0.0,0.0,0.0,0.0,0.0,0.0,0.0,0.0,0.0,0.0,0.0,0.0,0.0,0.0,0.0,0.0,0.0,0.0,0.0,0.0,0.0,0.0,0.0,0.0,0.0,0.0,0.0,0.0,0.0,0.0,0.0,0.0,0.0,0.0,0.0,0.0,0.0,0.0,0.0,0.0,0.0,0.0,0.0,0.0,0.0,0.0,0.0,-3.7284,-4.0513,-4.3226,-4.5505,-4.6209,-4.6048,-4.5126,-4.3335,-4.0178,0.0,0.0,0.0,0.0,0.0,0.0,0.0,0.0,0.0,0.0,0.0,0.0,0.0,0.0,0.0,0.0,0.0,0.0,0.0,0.0,0.0,0.0,0.0,0.0,0.0,0.0,0.0,0.0,0.0,0.0,0.0,0.0,0.0,0.0,0.0,0.0,0.0,0.0,0.0,0.0,-4.4742,-4.6377,-4.7998,0.0,0.0,0.0,0.0,0.0,0.0,-4.4302,-4.3209,0.0,0.0,0.0,0.0,0.0,0.0,0.0,0.0,0.0,0.0,0.0,0.0,0.0,0.0,0.0,0.0,0.0,0.0,0.0,0.0,0.0,0.0,0.0,0.0,0.0,0.0,0.0,0.0,0.0,0.0,0.0,0.0,0.0,0.0,0.0,0.0,0.0,0.0,0.0,0.0,0.0,0.0,0.0,0.0,0.0,0.0,0.0,0.0,0.0,0.0,0.0,0.0,0.0,0.0,0.0,-3.5871,-4.0992,-4.4303,-4.5437,-4.5814,-4.5491,-4.4489,-4.191,-3.8607,0.0,0.0,0.0,0.0,0.0,0.0,0.0,0.0,0.0,0.0,0.0,0.0,0.0,0.0,0.0,0.0,0.0,0.0,0.0,0.0,0.0,0.0,0.0,0.0,0.0,0.0,0.0,0.0,0.0,0.0,0.0,0.0,0.0,0.0,0.0,0.0,0.0,0.0,0.0,0.0,0.0,-4.7557,-4.9081,-4.8517,0.0,0.0,0.0,0.0,-4.851,-4.6934,0.0,0.0,0.0,0.0,0.0,0.0,0.0,0.0,0.0,0.0,0.0,0.0,0.0,0.0,0.0,0.0,0.0,0.0,0.0,0.0,0.0,0.0,0.0,0.0,0.0,0.0,0.0,0.0,0.0,0.0,0.0,0.0,0.0,0.0,0.0,0.0,0.0,0.0,0.0,0.0,0.0,0.0,0.0,0.0,0.0,0.0,0.0,0.0,0.0,0.0,0.0,0.0,0.0,0.0,0.0,0.0,-3.6016,-3.8952,-4.1905,-4.4944,-4.4679,-4.4202,-4.3618,-4.2452,-3.9007,0.0,0.0,0.0,0.0,0.0,0.0,0.0,0.0,0.0,0.0,0.0,0.0,0.0,0.0,0.0,0.0,0.0,0.0,0.0,0.0,0.0,0.0,0.0,0.0,0.0,0.0,0.0,0.0,0.0,0.0,0.0,0.0,0.0,0.0,0.0,0.0,0.0,0.0,0.0,0.0,0.0,-5.1682,-5.0509,-5.0894,-5.0942,0.0,0.0,-5.0778,-5.3213,-5.2717,0.0,0.0,0.0,0.0,0.0,0.0,0.0,0.0,0.0,0.0,0.0,0.0,0.0,0.0,0.0,0.0,0.0,0.0,0.0,0.0,0.0,0.0,0.0,0.0,0.0,0.0,0.0,0.0,0.0,0.0,0.0,0.0,0.0,0.0,0.0,0.0,0.0,0.0,0.0,0.0,0.0,0.0,0.0,0.0,0.0,0.0,0.0,0.0,0.0,0.0,0.0,0.0,0.0,0.0,0.0,-3.1844,-3.5737,-3.9265,-4.219,-4.424,-4.3799,-4.3281,-4.2736,-3.9778,-3.6323,0.0,0.0,0.0,0.0,0.0,0.0,0.0,0.0,0.0,0.0,0.0,0.0,0.0,0.0,0.0,0.0,0.0,0.0,0.0,0.0,0.0,0.0,0.0,0.0,0.0,0.0,0.0,0.0,0.0,0.0,0.0,0.0,0.0,0.0,0.0,0.0,0.0,0.0,0.0,0.0,0.0,0.0,-5.1936,-5.3289,0.0,0.0,0.0,-5.3958,-5.4123,0.0,0.0,0.0,0.0,0.0,0.0,0.0,0.0,0.0,0.0,0.0,0.0,0.0,0.0,0.0,0.0,0.0,0.0,0.0,0.0,0.0,0.0,0.0,0.0,0.0,0.0,0.0,0.0,0.0,0.0,0.0,0.0,0.0,0.0,0.0,0.0,0.0,0.0,0.0,0.0,0.0,0.0,0.0,0.0,0.0,0.0,0.0,0.0,0.0,0.0,0.0,0.0,0.0,0.0,0.0,0.0,0.0,-3.5079,-3.9499,-4.2373,-4.3415,-4.2805,-4.222,-4.1762,-3.7887,0.0,0.0,0.0,0.0,0.0,0.0,0.0,0.0,0.0,0.0,0.0,0.0,0.0,0.0,0.0,0.0,0.0,0.0,0.0,0.0,0.0,0.0,0.0,0.0,0.0,0.0,0.0,-2.5031,0.0,0.0,0.0,0.0,0.0,0.0,0.0,0.0,0.0,0.0,0.0,0.0,0.0,0.0,-5.1389,-5.3306,-5.5492,-5.6784,0.0,0.0,-5.6646,-5.5872,-5.5527,-5.3785,0.0,0.0,0.0,0.0,0.0,0.0,0.0,0.0,0.0,0.0,0.0,0.0,0.0,0.0,0.0,0.0,0.0,0.0,0.0,0.0,0.0,0.0,0.0,0.0,0.0,0.0,0.0,0.0,0.0,0.0,0.0,0.0,0.0,0.0,0.0,0.0,0.0,0.0,0.0,0.0,0.0,0.0,0.0,0.0,0.0,0.0,0.0,0.0,0.0,0.0,0.0,0.0,0.0,0.0,-3.1605,-3.4226,-3.8586,-4.1449,-4.2494,-4.1499,-4.0927,-4.096,-3.8358,-3.5258,0.0,0.0,0.0,0.0,0.0,0.0,0.0,0.0,0.0,0.0,0.0,0.0,0.0,0.0,0.0,0.0,0.0,0.0,0.0,0.0,0.0,0.0,0.0,0.0,0.0,0.0,0.0,0.0,0.0,0.0,0.0,0.0,0.0,0.0,0.0,0.0,0.0,0.0,0.0,0.0,0.0,-5.3509,-5.4398,-5.7386,-5.9711,0.0,-5.9156,-5.8872,-6.0281,-5.9842,-5.7077,-5.0327,0.0,0.0,0.0,0.0,0.0,0.0,0.0,0.0,0.0,0.0,0.0,0.0,0.0,0.0,0.0,0.0,0.0,0.0,0.0,0.0,0.0,0.0,0.0,0.0,0.0,0.0,0.0,0.0,0.0,0.0,0.0,0.0,0.0,0.0,0.0,0.0,0.0,0.0,0.0,0.0,0.0,0.0,0.0,0.0,0.0,0.0,0.0,0.0,0.0,0.0,0.0,0.0,0.0,-3.0894,-3.3584,-3.7861,-4.0421,-4.1128,-4.047,-3.991,-3.9569,-3.7389,-3.4703,0.0,0.0,0.0,0.0,0.0,0.0,0.0,0.0,0.0,0.0,0.0,0.0,0.0,0.0,0.0,0.0,0.0,0.0,0.0,0.0,0.0,0.0,0.0,0.0,0.0,0.0,0.0,0.0,-2.9081,-3.0241,-3.0991,0.0,0.0,0.0,0.0,0.0,0.0,0.0,0.0,0.0,0.0,-5.5205,-5.7079,-5.976,0.0,0.0,-6.1206,-6.1093,-6.0809,-5.9621,-5.7003,-5.1902,-4.9844,0.0,0.0,0.0,0.0,0.0,0.0,0.0,0.0,0.0,0.0,0.0,0.0,0.0,0.0,0.0,0.0,0.0,0.0,0.0,0.0,0.0,0.0,0.0,0.0,0.0,0.0,0.0,0.0,0.0,0.0,0.0,0.0,0.0,0.0,0.0,0.0,0.0,0.0,0.0,0.0,0.0,0.0,0.0,0.0,0.0,0.0,0.0,0.0,0.0,0.0,0.0,0.0,-3.0379,-3.326,-3.73,-3.9633,-4.0138,-3.9801,-3.9441,-3.9032,-3.7132,-3.4945,0.0,0.0,0.0,0.0,0.0,0.0,0.0,0.0,0.0,0.0,0.0,0.0,0.0,0.0,0.0,0.0,0.0,0.0,0.0,0.0,0.0,0.0,0.0,0.0,0.0,0.0,0.0,0.0,-3.027,-3.095,-3.0802,0.0,0.0,0.0,0.0,0.0,0.0,0.0,0.0,0.0,0.0,-5.6685,-5.8818,-6.1039,-6.2375,-6.2021,-6.1894,-6.1541,-6.0736,-5.9628,-5.7426,-5.3271,0.0,0.0,0.0,0.0,0.0,0.0,0.0,0.0,0.0,0.0,0.0,0.0,0.0,0.0,0.0,0.0,0.0,0.0,0.0,0.0,0.0,0.0,0.0,0.0,0.0,0.0,0.0,-1.7339,0.0,0.0,-1.5852,0.0,0.0,0.0,0.0,0.0,0.0,0.0,0.0,0.0,0.0,0.0,0.0,0.0,0.0,0.0,0.0,0.0,0.0,0.0,0.0,0.0,0.0,-3.011,-3.326,-3.6964,-3.9104,-3.9609,-3.9609,-3.9585,-3.9513,-3.7998,-3.6374,-3.4664,0.0,0.0,0.0,0.0,0.0,0.0,0.0,0.0,0.0,0.0,0.0,0.0,0.0,0.0,0.0,0.0,0.0,0.0,0.0,0.0,0.0,0.0,0.0,0.0,0.0,0.0,-2.8815,-3.0704,-3.129,0.0,0.0,0.0,0.0,0.0,0.0,0.0,0.0,0.0,-4.9653,-5.4176,-5.7764,-5.9204,-6.0921,-6.2279,-6.2766,-6.0978,-5.9778,-6.0548,-6.0529,-5.8949,0.0,0.0,0.0,0.0,0.0,0.0,0.0,0.0,0.0,0.0,0.0,0.0,0.0,0.0,0.0,0.0,0.0,0.0,0.0,0.0,0.0,0.0,0.0,0.0,0.0,0.0,0.0,-2.0698,-1.9298,0.0,0.0,0.0,0.0,0.0,0.0,0.0,0.0,0.0,0.0,0.0,-3.0374,-3.1096,0.0,0.0,0.0,0.0,0.0,0.0,0.0,0.0,0.0,0.0,0.0,0.0,-3.0446,-3.3308,-3.694,-3.8912,-3.908,-3.908,-3.8912,-3.8527,-3.7661,-3.5888,-3.324,0.0,0.0,0.0,0.0,0.0,0.0,0.0,0.0,0.0,0.0,0.0,0.0,0.0,0.0,0.0,0.0,0.0,0.0,0.0,0.0,0.0,0.0,0.0,0.0,0.0,-2.9402,0.0,0.0,0.0,0.0,0.0,0.0,0.0,0.0,0.0,0.0,0.0,-5.0373,-5.3505,-5.672,-5.9143,-6.011,-6.2046,-6.3234,0.0,0.0,0.0,0.0,0.0,0.0,0.0,0.0,0.0,0.0,0.0,0.0,0.0,0.0,-6.2004,-5.4049,-5.2435,-5.2135,-5.1572,0.0,0.0,0.0,0.0,0.0,0.0,0.0,0.0,0.0,0.0,0.0,0.0,0.0,0.0,-2.2845,-2.172,-2.1364,0.0,0.0,0.0,0.0,0.0,0.0,0.0,0.0,-3.0814,-3.2583,-3.3786,-3.4306,-3.424,-3.3577,-3.2885,-3.0544,0.0,0.0,0.0,0.0,0.0,0.0,0.0,0.0,-3.1144,-3.3813,-3.6916,-3.8527,-3.8551,-3.8719,-3.8647,-3.8286,-3.7757,-3.6225,-3.353,-3.1902,-3.0388,0.0,0.0,0.0,0.0,0.0,0.0,0.0,0.0,0.0,0.0,0.0,0.0,0.0,0.0,0.0,0.0,0.0,0.0,0.0,0.0,0.0,0.0,0.0,-3.1131,0.0,0.0,0.0,0.0,0.0,0.0,0.0,0.0,0.0,-4.6442,-5.0318,-5.4251,-5.7379,-5.9135,-6.0403,-6.1068,0.0,0.0,0.0,0.0,0.0,0.0,0.0,-6.1125,-6.1551,-6.1349,-6.1637,-6.3181,-6.6843,-6.926,-6.8089,0.0,0.0,-6.0387,-5.8851,-5.879,-5.85,-5.9611,-6.0669,-6.0974,-6.2337,-6.3502,0.0,0.0,0.0,0.0,-2.0784,0.0,0.0,0.0,-2.4538,-2.4636,0.0,-2.4065,0.0,0.0,0.0,0.0,-2.4908,-2.8355,0.0,0.0,-3.4955,-3.6681,-3.6237,-3.6626,-3.698,-3.716,-3.7042,-3.5935,-3.3767,-2.8963,0.0,0.0,0.0,0.0,0.0,0.0,-3.225,-3.4751,-3.694,-3.8022,-3.8022,-3.8503,-3.8767,-3.8767,-3.8262,-3.7228,-3.5713,-3.5136,-3.3428,-3.0212,-2.8944,0.0,0.0,0.0,0.0,0.0,0.0,0.0,0.0,0.0,0.0,0.0,0.0,0.0,0.0,0.0,0.0,0.0,0.0,0.0,0.0,-3.1126,0.0,0.0,0.0,0.0,0.0,0.0,0.0,0.0,0.0,-5.1081,-4.9741,-5.3983,-5.8267,-6.0838,0.0,0.0,0.0,0.0,-6.0727,-6.2682,-6.1798,-6.1707,-6.3712,-6.5328,-6.5799,-6.4358,0.0,0.0,-6.8618,-7.1531,-7.3183,-7.0104,-7.2132,-7.3521,-7.0953,-6.7954,-6.6407,-6.6994,-6.6742,-6.6771,-6.7514,-6.8716,-6.9852,-2.7673,0.0,0.0,0.0,0.0,-2.6026,-2.6952,-2.8089,-2.8649,-2.8022,-2.6596,-2.6267,0.0,0.0,0.0,0.0,0.0,0.0,-3.2503,-3.3976,-3.5611,-3.6855,-3.7771,-3.7598,-3.7655,-3.8112,-3.7719,-3.7035,-3.6031,-3.4648,-3.1418,-2.6657,0.0,0.0,0.0,0.0,-3.3838,-3.54,-3.7493,-3.8383,-3.7998,-3.8142,-3.8214,-3.8214,-3.807,-3.7589,-3.6747,-3.6225,-3.5187,-3.3527,-3.1265,0.0,0.0,0.0,0.0,0.0,0.0,0.0,0.0,0.0,0.0,0.0,0.0,0.0,0.0,0.0,0.0,0.0,0.0,0.0,-3.2001,-3.2907,-3.3958,0.0,0.0,0.0,0.0,0.0,0.0,0.0,0.0,0.0,-5.7196,-5.8293,-5.9338,0.0,0.0,-6.0487,-6.0642,-6.1671,-6.2803,-6.3889,-6.5451,0.0,-6.6441,-6.6439,-6.6844,-6.8076,-7.12,-7.3339,-7.3157,-7.469,-7.5624,-7.4549,-7.5249,-7.5662,-7.5023,-7.3312,-7.1783,-7.1444,-7.2052,-7.2811,-7.3091,-7.3951,-7.4666,-3.1433,-2.8957,-2.76,-2.7545,-2.841,-2.8874,-2.9502,-3.0358,-3.0754,-3.0279,-2.921,-2.8917,-2.8431,-2.7892,-2.801,0.0,0.0,0.0,-3.3726,-3.53,-3.6005,-3.6719,-3.7466,-3.7551,-3.7888,-3.8394,-3.7894,-3.7542,-3.7552,-3.716,-3.4866,-3.0845,0.0,-3.0961,-3.1052,-3.3598,-3.5497,-3.6579,-3.8238,-3.896,-3.8623,-3.8431,-3.8214,-3.7974,-3.7974,-3.7829,-3.7517,-3.7204,-3.6539,-3.5502,-3.349,-3.144,0.0,0.0,0.0,0.0,0.0,0.0,0.0,0.0,0.0,0.0,0.0,-2.5977,-2.3088,0.0,0.0,0.0,-2.9265,-3.2152,-3.555,-3.6625,0.0,0.0,0.0,0.0,0.0,0.0,0.0,-5.4342,-5.7564,-6.0186,-6.1675,-6.1849,-6.2126,-6.2822,-6.2539,-6.2394,-6.2641,0.0,-6.4237,-6.5276,-6.7155,-6.8449,-6.844,-6.8592,-6.9565,-7.2037,-7.4137,-7.5756,-7.6556,-7.7216,-7.7577,-7.7614,-7.7614,-7.7614,-7.7652,-7.6826,-7.5887,-7.5098,-7.5662,-7.645,-7.6788,-7.7276,-7.7625,-3.4275,-3.3688,-3.1084,-3.0222,-3.0534,-3.0497,-3.0901,-3.1561,-3.1543,-3.1708,-3.1946,-3.1551,-3.1375,-3.1484,-3.1192,0.0,-3.3202,-3.3649,-3.4313,-3.5139,-3.6063,-3.6299,-3.5869,-3.6746,-3.7435,-3.7954,-3.7488,-3.7641,-3.8167,-3.7251,-3.6365,-3.5511,-3.5219,-3.5036,-3.499,-3.5973,-3.7032,-3.8046,-3.9032,-3.9537,-3.9537,-3.9032,-3.8527,-3.807,-3.7974,-3.7902,-3.7979,-3.7878,-3.7397,-3.6411,-3.5381,-3.3653,-3.1095,0.0,0.0,0.0,0.0,0.0,0.0,0.0,0.0,0.0,0.0,0.0,0.0,0.0,0.0,-3.1239,-3.4003,0.0,-3.9439,-4.1342,0.0,0.0,0.0,-4.7637,-4.9823,-5.4183,-5.7408,-5.84,0.0,0.0,-6.4048,-6.4749,-6.587,-6.7551,-6.6485,-6.5861,-6.6489,-6.5514,-6.5403,-6.668,-6.7532,-6.8523,-6.9958,-7.1384,-7.3115,-7.5377,-7.6886,-7.7676,-7.8527,-7.8879,-7.9054,-7.9004,-7.9079,-7.9079,-7.9079,-7.8928,-7.8891,-7.799,-7.7915,-7.8177,-7.8741,-7.8928,-7.8928,-3.51,-3.4678,-3.4018,-3.3596,-3.3376,-3.3083,-3.3065,-3.3211,-3.2918,-3.2496,-3.2001,-3.1883,-3.2313,-3.3119,-3.374,-3.4221,-3.4689,-3.4793,-3.4778,-3.4594,-3.4841,-3.4841,-3.4757,-3.5005,-3.5191,-3.5294,-3.519,-3.564,-3.6492,-3.6686,-3.6868,-3.7016,-3.7392,-3.7053,-3.6025,-3.6997,-3.7905,-3.8623,-3.8864,-3.9008,-3.9008,-3.8479,-3.831,-3.8599,-3.7805,-3.7372,-3.7372,-3.6988,-3.6651,-3.6386,-3.4993,-3.3749,-3.2754,-2.9656,0.0,0.0,0.0,0.0,0.0,0.0,0.0,0.0,0.0,-3.1752,-2.6372,0.0,-3.5553,0.0,-3.7122,-4.036,-4.2642,-4.3521,0.0,0.0,-5.0914,-5.272,-5.719,-5.9198,-6.1015,-6.2955,-6.4976,-6.6635,-6.7773,-6.7605,-6.7713,-6.8725,-6.6999,-6.5652,-6.5826,-6.6285,-6.6778,-6.7764,-6.8918,-7.0264,-7.1744,-7.372,-7.5437,-7.6648,-7.7244,-7.7774,-7.8585,-7.8864,-7.8991,-7.9091,-7.9116,-7.9116,-7.9116,-7.9116,-7.9041,-7.8853,-7.8816,-7.8853,-7.9079,-7.9116,-7.9116,-3.576,-3.5559,-3.5559,-3.532,-3.4917,-3.4532,-3.4238,-3.4055,-3.3835,-3.3395,-3.279,-3.2625,-3.2757,-3.3256,-3.3688,-3.4201,-3.4692,-3.4512,-3.4306,-3.4053,-3.4275,-3.4363,-3.4445,-3.4881,-3.5314,-3.5746,-3.5746,-3.5992,-3.6563,-3.6928,-3.7221,-3.7495,-3.8109,-3.8148,-3.7655,-3.799,-3.8507,-3.9176,-3.9176,-3.9152,-3.9152,-3.8647,-3.8286,-3.8094,-3.7517,-3.6867,-3.617,-3.6074,-3.5833,-3.5352,-3.4294,-3.3586,-3.3296,-3.0867,-2.9453,0.0,0.0,0.0,0.0,0.0,0.0,0.0,0.0,0.0,0.0,0.0,-3.8212,-3.8256,-4.1765,-4.5135,-4.7774,-4.8783,-5.0985,-5.5118,-5.5485,-5.6927,-6.0608,-6.1976,-6.3467,-6.5623,-6.7052,-6.8329,-6.9595,-6.9084,-6.8911,-6.9635,-6.8093,-6.6899,-6.6973,-6.7541,-6.8108,-6.8673,-6.9707,-7.1027,-7.2751,-7.4698,-7.6236,-7.6976,-7.7628,-7.8223,-7.8633,-7.8864,-7.9016,-7.9091,-7.9116,-7.9116,-7.9116,-7.9116,-7.9116,-7.9116,-7.9116,-7.9116,-7.9116,-7.9116,-7.9116,-3.6256,-3.6201,-3.6201,-3.6017,-3.5669,-3.532,-3.488,-3.4385,-3.4293,-3.4055,-3.3725,-3.3431,-3.3083,-3.2753,-3.2753,-3.3185,-3.3955,-3.3612,-3.3421,-3.339,-3.3902,-3.4167,-3.4167,-3.5003,-3.5912,-3.6832,-3.685,-3.6928,-3.7193,-3.7193,-3.7253,-3.7435,-3.7976,-3.8596,-3.9108,-3.8697,-3.8803,-3.9458,-3.9513,-3.9513,-3.9489,-3.8984,-3.8262,-3.7348,-3.7108,-3.6314,-3.4871,-3.528,-3.5039,-3.415,-3.3789,-3.3611,-3.3527,-3.2093,-3.1471,0.0,-3.1246,0.0,0.0,0.0,0.0,0.0,0.0,0.0,0.0,-3.9024,-4.108,-4.3545,-4.7028,-5.0361,-5.321,-5.4804,-5.6588,-5.8603,-5.9238,-6.0153,-6.1695,-6.3307,-6.4997,-6.6812,-6.8247,-6.9415,-7.0305,-6.9933,-6.9842,-7.0331,-6.9451,-6.8713,-6.891,-6.8999,-6.9083,-6.9444,-7.0097,-7.1345,-7.3258,-7.4969,-7.6324,-7.7126,-7.7947,-7.8655,-7.8708,-7.889,-7.9066,-7.9091,-7.9116,-7.9116,-7.9116,-7.9116,-7.9116,-7.9116,-7.9116,-7.9116,-7.9116,-7.9116,-7.9116,-3.6512,-3.6201,-3.6201,-3.6164,-3.6091,-3.6017,-3.5375,-3.4348,-3.3725,-3.3413,-3.3358,-3.3596,-3.3651,-3.3578,-3.3578,-3.3482,-3.3373,-3.3299,-3.3077,-3.281,-3.2916,-3.2945,-3.2927,-3.2805,-3.3283,-3.4142,-3.3915,-3.457,-3.6175,-3.6197,-3.6624,-3.7374,-3.7976,-3.8335,-3.8455,0.0,0.0,0.0,-3.896,-3.896,-3.896,-3.8431,-3.8046,-3.7805,-3.6579,0.0,-3.4895,-3.4871,-3.4847,-3.4655,-3.4992,0.0,0.0,0.0,0.0,0.0,0.0,0.0,0.0,0.0,0.0,0.0,-4.075,-3.9919,-3.9385,-4.3922,-4.7177,-4.7911,-5.1759,-5.4515,-5.5162,-5.6648,-5.827,-6.0,-6.0509,-6.1099,-6.2233,-6.3742,-6.5153,-6.6154,-6.8323,-7.0104,-7.0876,-7.1071,-7.1118,-7.1222,-7.0539,-7.0142,-7.0308,-6.9652,-6.9357,-6.996,-7.0734,-7.1928,-7.3506,-7.5055,-7.653,-7.7691,-7.8192,-7.8468,-7.8655,-7.8734,-7.889,-7.9066,-7.9116,-7.9116,-7.9116,-7.9116,-7.9116,-7.9116,-7.9116,-7.9116,-7.9116,-7.9116,-7.9116,-3.6586,-3.6201,-3.6201,-3.6109,0.0,-3.5925,-3.5467,-3.4678,-3.4293,-3.389,-3.3523,-3.3725,-3.3817,-3.3798,-3.3615,-3.3413,-3.3211,-3.2808,-3.2606,-3.2588,-3.2386,-3.267,-3.3302,-3.2955,-3.3268,-3.4216,-3.3847,-3.4195,-3.5129,-3.5684,-3.6319,-3.711,-3.8216,-3.8953,-3.9226,-3.9579,-3.9383,-3.8639,-3.8752,-3.8936,-3.9176,-3.8671,-3.8142,-3.7589,-3.7084,0.0,0.0,0.0,0.0,0.0,0.0,0.0,0.0,0.0,0.0,-3.6659,-3.7723,-3.8914,-4.0274,-4.1902,-4.347,-4.4963,-4.5343,-4.4688,-4.2767,-4.6441,-4.9548,-5.1121,-5.377,-5.6042,-5.7574,-5.843,-5.9482,-6.0877,-6.1433,-6.1986,-6.2808,-6.4043,-6.5287,-6.6385,-6.8267,-6.998,-7.1098,-7.1362,-7.1663,-7.1946,-7.1084,-7.0711,-7.1387,-7.0665,-7.0035,-7.0228,-7.139,-7.2442,-7.3249,-7.4889,-7.6397,-7.7489,-7.8127,-7.8441,-7.8655,-7.876,-7.8864,-7.9029,-7.9116,-7.9116,-7.9116,-7.9116,-7.9116,-7.9116,-7.9116,-7.9116,-7.9116,-7.9116,-7.9116,-3.6806,-3.6421,-3.6347,-3.6146,-3.5834,-3.576,-3.5504,-3.5137,-3.5064,0.0,0.0,-3.3908,-3.3908,-3.389,-3.3505,-3.3321,-3.3285,-3.2643,-3.2496,-3.279,-3.2478,-3.2943,-3.4022,-3.3622,-3.3953,-3.4883,-3.4449,-3.4441,-3.4816,-3.5541,-3.6237,-3.6989,-3.8395,-3.9403,-4.0048,-4.0711,-4.0324,-3.8897,-3.8974,-3.9248,-3.9585,-3.908,-3.8334,-3.7348,-3.7565,-3.6892,-3.5135,-3.5617,-3.5545,-3.4751,-3.4871,-3.5376,-3.6122,-3.6362,-3.7542,-3.9975,-4.1732,-4.32,-4.4414,-4.6491,-4.7757,-4.7866,-4.8735,-4.8463,-4.6509,-4.851,-5.0976,-5.3611,-5.51,-5.7031,-5.9573,-5.9901,-6.0383,-6.1399,-6.1834,-6.2284,-6.2741,-6.3948,-6.498,-6.6144,-6.7943,-6.9628,-7.0625,-7.1345,-7.1912,-7.2402,-7.1677,-7.1187,-7.223,-7.1682,-7.0819,-7.0682,-7.1619,-7.2632,-7.3155,-7.4326,-7.6013,-7.7096,-7.7826,-7.8377,-7.8655,-7.8812,-7.8941,-7.9091,-7.9116,-7.9116,-7.9116,-7.9116,-7.9116,-7.9116,-7.9116,-7.9116,-7.9116,-7.9116,-7.9116,-3.7613,-3.7228,-3.6897,-3.6714,-3.6566,-3.6274,-3.5907,-3.5522,-3.5174,-3.477,-3.433,-3.433,-3.433,-3.4293,-3.3908,-3.3725,-3.3725,-3.3615,-3.3596,-3.3633,-3.3578,-3.3665,-3.3822,-3.3434,-3.3771,-3.4652,-3.4011,-3.4521,-3.5998,-3.6017,-3.638,-3.7314,-3.8096,-3.8834,-3.9426,-4.0048,-4.0199,-3.9989,-4.0111,-3.9994,-3.9609,-3.908,-3.8527,-3.7878,-3.7084,-3.6507,-3.6218,-3.6699,-3.7108,-3.7445,-3.831,-3.8695,-3.8407,-3.9176,-4.0019,-4.0715,-4.3,-4.4723,-4.5597,-4.7645,-4.9087,-4.9576,-4.9793,-4.9739,-4.9523,-5.1974,-5.4062,-5.5089,-5.7423,-5.9287,-5.9809,-6.0301,-6.0691,-6.0866,-6.1,-6.1103,-6.1288,-6.2799,-6.3837,-6.3842,-6.7151,-6.9415,-6.9608,-7.1187,-7.2464,-7.2602,-7.2368,-7.2437,-7.2513,-7.2318,-7.1807,-7.1346,-7.1504,-7.235,-7.3331,-7.3904,-7.5175,-7.6899,-7.7436,-7.7969,-7.8565,-7.8812,-7.8941,-7.9091,-7.9116,-7.9116,-7.9116,-7.9116,-7.9116,-7.9116,-7.9116,-7.9116,-7.9116,-7.9116,-7.9116,-3.7778,-3.7429,-3.7228,-3.7154,-3.7136,-3.6714,-3.6311,-3.5944,-3.5742,-3.532,-3.4733,-3.4513,-3.4403,-3.4348,-3.3762,-3.3505,-3.3486,-3.3266,-3.3266,-3.3486,-3.3486,-3.3615,-3.3762,-3.3413,-3.3755,-3.4691,-3.4181,-3.4536,-3.5701,-3.6102,-3.6737,-3.7676,-3.9085,-3.9837,-3.9837,-4.0421,-4.0769,-4.0745,-4.0554,-4.0282,-4.0042,-3.9801,-3.9417,-3.8864,-3.8647,-3.8431,-3.8166,-3.8383,-3.8623,-3.8839,-3.9345,-3.9753,-4.009,-4.0571,-4.1127,-4.1899,-4.4238,-4.5819,-4.616,-4.8305,-4.9711,-4.9983,-5.001,-5.0308,-5.096,-5.2491,-5.4153,-5.5707,-5.7766,-5.9283,-6.025,-6.0609,-6.0794,-6.0794,-6.1052,-6.1257,-6.1381,-6.2644,-6.3589,-6.3929,-6.6872,-6.9133,-6.9122,-7.1196,-7.2671,-7.2671,-7.2671,-7.2671,-7.2713,-7.2769,-7.2533,-7.1991,-7.2407,-7.2932,-7.335,-7.4405,-7.5426,-7.649,-7.7406,-7.8118,-7.8655,-7.8812,-7.8966,-7.9066,-7.9116,-7.9116,-7.9116,-7.9116,-7.9116,-7.9116,-7.9116,-7.9116,-7.9116,-7.9116,-7.9116,-3.7979,-3.7704,-3.7594,-3.7448,-3.7264,-3.6971,-3.6604,-3.6219,-3.6201,-3.587,-3.5284,-3.4862,-3.4623,-3.4477,-3.3798,-3.3431,-3.3321,-3.301,-3.3046,-3.334,-3.3358,-3.3523,-3.3762,-3.3505,-3.3749,-3.4421,-3.4194,-3.4471,-3.5369,-3.6203,-3.7202,-3.8395,-4.0212,-4.083,-4.0223,-4.0884,-4.1196,-4.1148,-4.0787,-4.0571,-4.0571,-4.0475,-4.0186,-3.985,-4.0042,-4.009,-3.9801,-3.9777,-3.985,-3.997,-4.0066,-4.0523,-4.1293,-4.1581,-4.2086,-4.3035,-4.5237,-4.6772,-4.7262,-4.8919,-5.001,-5.001,-5.001,-5.0525,-5.1642,-5.2459,-5.3891,-5.6229,-5.794,-5.9348,-6.0484,-6.0794,-6.0794,-6.0845,-6.1124,-6.1421,-6.169,-6.2737,-6.3641,-6.4235,-6.6699,-6.8667,-6.9339,-7.0996,-7.2339,-7.2628,-7.2671,-7.2671,-7.2755,-7.3046,-7.3015,-7.2823,-7.3207,-7.3518,-7.3175,-7.4184,-7.5329,-7.5887,-7.7127,-7.7997,-7.8485,-7.8838,-7.8966,-7.9091,-7.9116,-7.9116,-7.9116,-7.9116,-7.9116,-7.9116,-7.9116,-7.9116,-7.9116,-7.9116,-7.9116,-3.8548,-3.8475,-3.8108,-3.7539,-3.6952,-3.6803,-3.6622,-3.6237,-3.6201,-3.6182,-3.6017,-3.5669,-3.5284,-3.4935,-3.4477,-3.4073,-3.3762,-3.3725,-3.3707,-3.3743,-3.3762,-3.378,-3.3817,-3.3762,-3.3831,-3.3895,-3.3613,-3.4432,-3.6219,-3.6676,-3.7799,-3.9719,-4.0691,-4.0811,-4.0352,-4.0884,-4.1196,-4.1196,-4.1148,-4.1124,-4.1076,-4.0643,-4.0355,-4.0306,-3.9922,-3.9898,-4.0282,-4.0306,-4.0547,-4.1028,-4.1461,-4.1774,-4.199,-4.276,-4.3337,-4.3518,-4.5729,-4.7834,-4.9448,-4.987,-5.0037,-5.001,-5.0064,-5.0553,-5.1751,-5.2875,-5.4544,-5.6837,-5.9158,-6.0411,-6.0794,-6.0794,-6.0794,-6.0794,-6.0897,-6.1061,-6.1751,-6.2681,-6.341,-6.3641,-6.6027,-6.7994,-6.8635,-7.0332,-7.1786,-7.2628,-7.2671,-7.2671,-7.2713,-7.2942,-7.3154,-7.3061,-7.3103,-7.3198,-7.3557,-7.335,-7.4292,-7.5715,-7.649,-7.737,-7.8247,-7.8827,-7.9091,-7.9091,-7.9116,-7.9116,-7.9116,-7.9116,-7.9116,-7.9116,-7.9116,-7.9116,-7.9116,-7.9116,-7.9116,-3.864,-3.8542,-3.8456,-3.8053,-3.7539,-3.7283,-3.6952,-3.6567,-3.6311,-3.6201,-3.6182,-3.6036,-3.5742,-3.5339,-3.4697,-3.4312,-3.4147,-3.3927,-3.3817,-3.3817,-3.3817,-3.3817,-3.3817,-3.3817,-3.4075,-3.4677,-3.4576,-3.5701,-3.7754,-3.9095,-4.0027,-4.06,-4.1223,-4.1318,-4.0728,-4.1028,-4.1341,-4.1687,-4.1341,-4.1341,-4.1557,-4.1124,-4.086,-4.0836,-4.0643,-4.0619,-4.0836,-4.086,-4.11,-4.1605,-4.187,-4.2254,-4.2856,-4.3289,-4.3649,-4.4047,-4.6366,-4.8584,-5.0411,-5.0878,-5.0932,-5.058,-5.0878,-5.1312,-5.1832,-5.3837,-5.5814,-5.7125,-5.8763,-6.0,-6.069,-6.0794,-6.0794,-6.0794,-6.0794,-6.0917,-6.1163,-6.1945,-6.2452,-6.2724,-6.4871,-6.6978,-6.82,-7.0445,-7.2056,-7.2628,-7.2671,-7.2671,-7.2713,-7.27,-7.2632,-7.2539,-7.1983,-7.2251,-7.3522,-7.4193,-7.4541,-7.5369,-7.649,-7.754,-7.7894,-7.8686,-7.9116,-7.9116,-7.9116,-7.9116,-7.9116,-7.9116,-7.9116,-7.9116,-7.9116,-7.9116,-7.9116,-7.9116,-7.9116,-3.864,-3.864,-3.864,-3.8322,-3.7979,-3.7594,-3.7191,-3.673,-3.6402,-3.6201,-3.6201,-3.6201,-3.6054,-3.5705,-3.5045,-3.4623,-3.4385,-3.411,-3.3908,-3.3835,-3.3817,-3.3817,-3.3817,-3.3817,-3.4214,-3.4883,-3.5021,-3.6522,-3.9088,-4.0813,-4.1614,-4.1696,-4.215,-4.209,-4.1543,-4.1598,-4.1856,-4.2169,-4.1798,-4.1798,-4.2086,-4.1822,-4.1485,-4.1244,-4.1317,-4.1413,-4.1413,-4.1533,-4.1798,-4.2217,-4.2362,-4.2735,-4.3433,-4.3649,-4.417,-4.538,-4.7465,-4.9422,-5.1034,-5.1584,-5.1638,-5.1258,-5.1584,-5.1909,-5.2424,-5.4345,-5.6129,-5.7156,-5.8297,-5.9492,-6.0555,-6.0794,-6.0794,-6.0794,-6.0794,-6.0886,-6.1379,-6.1686,-6.2056,-6.2716,-6.4476,-6.63,-6.8221,-7.076,-7.2671,-7.2671,-7.2671,-7.2533,-7.2444,-7.2249,-7.215,-7.1907,-7.1389,-7.19,-7.3347,-7.362,-7.429,-7.5441,-7.6458,-7.7303,-7.7694,-7.8544,-7.9054,-7.9116,-7.9116,-7.9116,-7.9116,-7.9116,-7.9116,-7.9116,-7.9116,-7.9116,-7.9116,-7.9116,-7.9116,-3.864,-3.864,-3.864,-3.842,-3.7979,-3.7594,-3.7133,-3.6767,-3.6402,-3.6201,-3.6201,-3.6201,-3.6182,-3.6127,-3.5705,-3.5137,-3.4477,-3.4367,-3.4147,-3.3835,-3.3817,-3.3817,-3.3817,-3.3817,-3.3886,-3.4006,-3.437,-3.6189,-3.9432,-4.0729,-4.2011,-4.3323,-4.3324,-4.3168,-4.2724,-4.2639,-4.2747,-4.2747,-4.2615,-4.2723,-4.2771,-4.2747,-4.2158,-4.1413,-4.1677,-4.1942,-4.2049,-4.2482,-4.2747,-4.2771,-4.3144,-4.3433,-4.3577,-4.4034,-4.538,-4.7647,-4.9359,-5.0684,-5.1598,-5.1882,-5.1824,-5.1801,-5.1851,-5.204,-5.2593,-5.4109,-5.5595,-5.7017,-5.8381,-5.9629,-6.0555,-6.0794,-6.0794,-6.0794,-6.0794,-6.1348,-6.2487,-6.2025,-6.2794,-6.4042,-6.4858,-6.6288,-6.9067,-7.1331,-7.2432,-7.2644,-7.2678,-7.236,-7.1753,-7.1868,-7.1728,-7.1534,-7.1804,-7.2676,-7.2781,-7.3076,-7.3606,-7.4619,-7.5891,-7.6966,-7.7866,-7.8607,-7.8878,-7.9116,-7.9116,-7.9116,-7.9116,-7.9116,-7.9116,-7.9116,-7.9116,-7.9116,-7.9116,-7.9116,-7.9116,-3.864,-3.864,-3.864,-3.8548,-3.8346,-3.7704,-3.7338,-3.7154,-3.6494,-3.6201,-3.6201,-3.6201,-3.6201,-3.6201,-3.6054,-3.5559,-3.4825,-3.4532,-3.4183,-3.3853,-3.3817,-3.3817,-3.3817,-3.3817,-3.3817,-3.3817,-3.3955,-3.5869,-3.93,-4.1865,-4.3419,-4.3825,-4.3673,-4.3409,-4.3216,-4.2988,-4.2904,-4.3192,-4.3012,-4.2964,-4.3192,-4.2928,-4.2602,-4.223,-4.2375,-4.253,-4.2471,-4.2663,-4.2904,-4.3216,-4.3433,-4.3673,-4.4034,-4.5158,-4.6792,-4.8797,-5.0259,-5.139,-5.2247,-5.275,-5.2778,-5.2452,-5.275,-5.2832,-5.3162,-5.4764,-5.6534,-5.7382,-5.9063,-6.0346,-6.0638,-6.0794,-6.0794,-6.0794,-6.0794,-6.1163,-6.1871,-6.1963,-6.2302,-6.3556,-6.5175,-6.741,-6.8873,-7.1187,-7.2422,-7.2015,-7.1912,-7.1601,-7.1028,-7.0793,-7.0898,-7.0972,-7.1214,-7.1693,-7.2781,-7.3167,-7.3684,-7.4427,-7.5371,-7.6261,-7.7151,-7.8192,-7.8633,-7.9066,-7.9116,-7.9116,-7.9116,-7.9116,-7.9116,-7.9116,-7.9116,-7.9116,-7.9116,-7.9116,-7.9116,-3.864,-3.864,-3.864,-3.864,-3.8548,-3.7906,-3.7539,-3.7356,-3.6696,-3.6347,-3.6237,-3.6201,-3.6201,-3.6201,-3.6201,-3.587,-3.5247,-3.4917,-3.4587,-3.422,-3.4073,-3.4,-3.3982,-3.3872,-3.3817,-3.3886,-3.4283,-3.6344,-3.9627,-4.212,-4.3576,-4.4237,-4.3938,-4.3708,-4.3721,-4.3433,-4.3457,-4.3649,-4.3433,-4.3457,-4.3697,-4.3457,-4.3265,-4.3265,-4.3265,-4.3168,-4.3024,-4.3168,-4.3409,-4.3721,-4.377,-4.4157,-4.5097,-4.6538,-4.8202,-4.9936,-5.1322,-5.2306,-5.2902,-5.3375,-5.3429,-5.3049,-5.3347,-5.3402,-5.3228,-5.5564,-5.6933,-5.7719,-5.9332,-6.0794,-6.0794,-6.0794,-6.0794,-6.0794,-6.0794,-6.1163,-6.1994,-6.1933,-6.2324,-6.3437,-6.532,-6.7102,-6.8529,-7.0243,-7.1131,-7.1146,-7.1325,-7.1187,-7.0579,-7.062,-7.0619,-7.0972,-7.1319,-7.1865,-7.2676,-7.3273,-7.3902,-7.4642,-7.5191,-7.5927,-7.6747,-7.776,-7.8474,-7.8903,-7.9116,-7.9116,-7.9116,-7.9116,-7.9116,-7.9116,-7.9116,-7.9116,-7.9116,-7.9116,-7.9116,-3.864,-3.864,-3.864,-3.864,-3.8487,-3.8144,-3.7778,-3.7393,-3.6971,-3.6567,-3.6237,-3.6201,-3.6201,-3.6201,-3.6201,-3.5981,-3.5669,-3.5577,-3.532,-3.4899,-3.4568,-3.4403,-3.4385,-3.4092,-3.3978,-3.4149,-3.5401,-3.7842,-4.0904,-4.1546,-4.2587,-4.4013,-4.4261,-4.4189,-4.4261,-4.4141,-4.4189,-4.4189,-4.4141,-4.4189,-4.4285,-4.4165,-4.4141,-4.4189,-4.4165,-4.401,-4.3553,-4.3925,-4.4165,-4.4213,-4.4237,-4.5059,-4.655,-4.811,-4.9715,-5.1186,-5.2702,-5.3477,-5.3565,-5.3565,-5.3592,-5.351,-5.3592,-5.3565,-5.3784,-5.5762,-5.7187,-5.7523,-5.9278,-6.0794,-6.0794,-6.0794,-6.0794,-6.0794,-6.0794,-6.1317,-6.221,-6.221,-6.2439,-6.3916,-6.5096,-6.6095,-6.7611,-6.9065,-6.9859,-7.0499,-7.0877,-7.0912,-7.0297,-7.0793,-7.1519,-7.1429,-7.1738,-7.2427,-7.2922,-7.3452,-7.4163,-7.4826,-7.5335,-7.5998,-7.6846,-7.776,-7.8302,-7.8775,-7.9066,-7.9091,-7.9116,-7.9116,-7.9116,-7.9116,-7.9116,-7.9116,-7.9116,-7.9116,-7.9116,-3.864,-3.864,-3.864,-3.864,-3.8585,-3.8199,-3.7796,-3.7393,-3.6932,-3.6604,-3.6256,-3.6201,-3.6201,-3.6201,-3.6201,-3.6127,-3.6017,-3.5999,-3.5669,-3.5028,-3.4899,-3.4825,-3.4807,-3.4697,-3.4848,-3.5704,-3.7888,-3.9576,-4.0819,-4.2016,-4.324,-4.4099,-4.4285,-4.4285,-4.4285,-4.4285,-4.4285,-4.4285,-4.4285,-4.4285,-4.4285,-4.4285,-4.4285,-4.4285,-4.4285,-4.4189,-4.4045,-4.4189,-4.4285,-4.4309,-4.4285,-4.5306,-4.7471,-4.9559,-5.1046,-5.2158,-5.3085,-5.3592,-5.3592,-5.3592,-5.3592,-5.3592,-5.3592,-5.3592,-5.3833,-5.579,-5.716,-5.744,-5.9332,-6.0794,-6.0794,-6.0794,-6.0824,-6.0794,-6.0794,-6.1163,-6.2056,-6.2364,-6.2887,-6.3834,-6.504,-6.6624,-6.819,-6.9161,-6.9678,-7.0161,-7.0222,-6.9842,-6.9336,-7.0209,-7.0828,-7.1041,-7.1948,-7.2711,-7.2816,-7.2999,-7.3557,-7.4325,-7.4977,-7.5857,-7.6815,-7.7466,-7.8053,-7.8581,-7.8878,-7.9091,-7.9091,-7.9116,-7.9116,-7.9116,-7.9116,-7.9116,-7.9116,-7.9116,-7.9116,-3.864,-3.864,-3.864,-3.864,-3.8542,-3.8346,-3.7924,-3.7429,-3.7173,-3.6732,-3.6292,-3.6201,-3.6201,-3.6201,-3.6201,-3.6201,-3.6201,-3.6201,-3.5944,-3.5485,-3.5284,-3.5247,-3.5282,-3.5566,-3.5996,-3.6887,-3.8906,-4.0343,-4.0948,-4.2229,-4.3263,-4.3826,-4.4161,-4.4285,-4.4285,-4.4285,-4.4285,-4.4285,-4.4285,-4.4285,-4.4285,-4.4285,-4.4381,-4.4549,-4.4573,-4.4693,-4.4837,-4.4861,-4.4765,-4.4669,-4.4741,-4.6166,-4.8518,-5.001,-5.1425,-5.2776,-5.3347,-5.3592,-5.3592,-5.3592,-5.3592,-5.3592,-5.3592,-5.3592,-5.3987,-5.579,-5.716,-5.7496,-5.9386,-6.0794,-6.0824,-6.1071,-6.1163,-6.1163,-6.0948,-6.1255,-6.1994,-6.2548,-6.3256,-6.4081,-6.481,-6.6236,-6.785,-6.8666,-6.935,-6.9715,-6.9808,-6.9682,-6.9381,-7.0144,-7.0858,-7.1503,-7.2236,-7.2567,-7.2395,-7.2583,-7.2882,-7.3646,-7.4404,-7.55,-7.6583,-7.7102,-7.7622,-7.8329,-7.8789,-7.9066,-7.9116,-7.9116,-7.9116,-7.9116,-7.9116,-7.9116,-7.9116,-7.9116,-7.9116,-3.864,-3.864,-3.864,-3.864,-3.864,-3.8603,-3.8181,-3.7539,-3.7466,-3.7026,-3.6402,-3.6292,-3.6237,-3.6219,-3.6201,-3.6201,-3.6201,-3.6201,-3.6182,-3.6036,-3.5815,-3.5724,-3.5979,-3.6708,-3.7387,-3.8081,-3.9229,-4.0384,-4.1627,-4.2198,-4.2742,-4.3726,-4.4266,-4.4381,-4.4525,-4.4429,-4.4501,-4.4525,-4.4477,-4.4477,-4.4477,-4.4453,-4.4645,-4.5101,-4.5125,-4.5317,-4.5694,-4.5838,-4.5669,-4.5396,-4.5939,-4.7455,-4.9376,-4.9904,-5.1479,-5.3423,-5.3565,-5.3592,-5.3592,-5.3592,-5.3592,-5.3592,-5.3592,-5.3592,-5.3894,-5.5761,-5.7187,-5.7299,-5.9386,-6.0794,-6.0917,-6.1348,-6.1686,-6.1779,-6.1471,-6.1686,-6.2579,-6.2794,-6.3349,-6.4258,-6.4311,-6.4733,-6.7313,-6.7721,-6.8417,-6.9252,-7.0002,-7.0199,-7.0574,-7.1017,-7.2021,-7.2429,-7.259,-7.2563,-7.2465,-7.2117,-7.2524,-7.3614,-7.4297,-7.5184,-7.6352,-7.6915,-7.7473,-7.8192,-7.8712,-7.8954,-7.9116,-7.9116,-7.9116,-7.9116,-7.9116,-7.9116,-7.9116,-7.9116,-7.9116,-3.864,-3.864,-3.864,-3.864,-3.864,-3.864,-3.8346,-3.7888,-3.7851,-3.7374,-3.6787,-3.6659,-3.6476,-3.6219,-3.6201,-3.6201,-3.6201,-3.6201,-3.6201,-3.6182,-3.6127,-3.6571,-3.7432,-3.8406,-3.9161,-3.9806,-4.0805,-4.2169,-4.3026,-4.2898,-4.3607,-4.5159,-4.4903,-4.5077,-4.5453,-4.539,-4.5438,-4.5501,-4.5438,-4.5414,-4.5453,-4.5414,-4.5573,-4.5669,-4.5718,-4.579,-4.5958,-4.6295,-4.6633,-4.6932,-4.8084,-4.9351,-5.0698,-5.1777,-5.2708,-5.3356,-5.3592,-5.3592,-5.3592,-5.3592,-5.3592,-5.3592,-5.3592,-5.3592,-5.3652,-5.579,-5.7018,-5.7579,-5.9332,-6.0824,-6.0948,-6.1471,-6.1994,-6.2425,-6.2394,-6.2425,-6.2733,-6.2856,-6.3164,-6.3895,-6.4288,-6.5418,-6.6777,-6.7864,-6.8544,-6.9514,-7.0111,-7.0545,-7.0955,-7.1543,-7.2265,-7.2464,-7.2626,-7.2633,-7.25,-7.2044,-7.231,-7.3544,-7.4297,-7.4867,-7.601,-7.7014,-7.7622,-7.8302,-7.866,-7.8929,-7.9066,-7.9116,-7.9116,-7.9116,-7.9116,-7.9116,-7.9116,-7.9116,-7.9116,-3.864,-3.864,-3.864,-3.864,-3.864,-3.864,-3.8401,-3.8071,-3.7998,-3.7576,-3.6971,-3.6842,-3.6604,-3.6219,-3.6201,-3.6201,-3.6201,-3.6201,-3.6201,-3.6201,-3.6182,-3.6553,-3.7438,-3.8826,-3.983,-4.0129,-4.1641,-4.2657,-4.3237,-4.3314,-4.4165,-4.5188,-4.543,-4.5558,-4.5838,-4.5934,-4.5934,-4.591,-4.5934,-4.5934,-4.5934,-4.5934,-4.6078,-4.6175,-4.6271,-4.6319,-4.6583,-4.6896,-4.7126,-4.743,-4.8546,-4.995,-5.0976,-5.2253,-5.3139,-5.3531,-5.3592,-5.3592,-5.3592,-5.3592,-5.3592,-5.3592,-5.3592,-5.3866,-5.4556,-5.6136,-5.7358,-5.8545,-6.0183,-6.1191,-6.1717,-6.2271,-6.2948,-6.3564,-6.3687,-6.3564,-6.3287,-6.3287,-6.3564,-6.4135,-6.4816,-6.5596,-6.7042,-6.7849,-6.8777,-6.9671,-7.0045,-7.0622,-7.1267,-7.1856,-7.234,-7.2648,-7.2665,-7.2637,-7.2545,-7.2126,-7.2498,-7.3654,-7.4831,-7.5256,-7.5843,-7.6988,-7.7473,-7.8053,-7.8501,-7.8878,-7.9004,-7.9116,-7.9116,-7.9116,-7.9116,-7.9116,-7.9116,-7.9116,-7.9116,-3.864,-3.864,-3.864,-3.864,-3.864,-3.864,-3.8456,-3.8126,-3.8126,-3.7704,-3.7136,-3.6934,-3.6714,-3.6274,-3.6256,-3.6201,-3.6201,-3.6201,-3.6201,-3.6201,-3.6201,-3.6423,-3.7015,-3.8753,-3.98,-4.0274,-4.1727,-4.2788,-4.3443,-4.386,-4.4472,-4.5373,-4.5909,-4.6014,-4.6247,-4.6199,-4.6102,-4.6223,-4.6271,-4.6295,-4.6295,-4.6295,-4.6463,-4.6728,-4.68,-4.6968,-4.7323,-4.7557,-4.7562,-4.6996,-4.8411,-4.9849,-5.0916,-5.1944,-5.265,-5.341,-5.3592,-5.3592,-5.3619,-5.3673,-5.3727,-5.3754,-5.3836,-5.4178,-5.5305,-5.6651,-5.8078,-5.9099,-6.1011,-6.2103,-6.2764,-6.3441,-6.3933,-6.4457,-6.4764,-6.4549,-6.4149,-6.3933,-6.421,-6.482,-6.5375,-6.612,-6.693,-6.7756,-6.8585,-6.9687,-7.0229,-7.1054,-7.1726,-7.2383,-7.2769,-7.305,-7.2883,-7.2606,-7.2443,-7.2244,-7.2935,-7.3869,-7.5254,-7.5959,-7.6061,-7.6765,-7.72,-7.768,-7.8247,-7.8712,-7.9066,-7.9116,-7.9116,-7.9116,-7.9116,-7.9116,-7.9116,-7.9116,-7.9116,-3.864,-3.864,-3.864,-3.864,-3.864,-3.864,-3.8505,-3.8493,-3.8493,-3.8181,-3.7759,-3.7429,-3.7062,-3.6602,-3.6347,-3.6201,-3.6201,-3.6201,-3.6201,-3.6201,-3.6201,-3.6793,-3.7677,-3.9261,-4.0657,-4.1897,-4.3244,-4.4141,-4.464,-4.499,-4.5809,-4.6687,-4.6573,-4.6752,-4.7064,-4.7016,-4.7136,-4.7161,-4.7112,-4.7064,-4.704,-4.7064,-4.7112,-4.7281,-4.7281,-4.7353,-4.7648,-4.8264,-4.8583,-4.8858,-4.9657,-5.0968,-5.2342,-5.2956,-5.3349,-5.3498,-5.3619,-5.3619,-5.37,-5.4026,-5.427,-5.4324,-5.465,-5.5154,-5.5436,-5.7473,-5.8407,-5.9146,-6.0886,-6.2749,-6.3533,-6.3749,-6.421,-6.4734,-6.4888,-6.4826,-6.4672,-6.4641,-6.4813,-6.5125,-6.5483,-6.5915,-6.6396,-6.7395,-6.8421,-6.9462,-7.0478,-7.1479,-7.2165,-7.2788,-7.3158,-7.3405,-7.3238,-7.2992,-7.3111,-7.3025,-7.3581,-7.4297,-7.5502,-7.6275,-7.6376,-7.657,-7.6983,-7.7533,-7.8109,-7.8528,-7.8852,-7.9116,-7.9054,-7.9116,-7.9066,-7.8979,-7.8954,-7.9004,-7.8979,-3.864,-3.864,-3.864,-3.864,-3.864,-3.864,-3.864,-3.864,-3.864,-3.8401,-3.7998,-3.7594,-3.7209,-3.673,-3.6402,-3.6201,-3.6201,-3.6201,-3.6201,-3.6405,-3.7051,-3.8205,-3.9438,-4.0728,-4.2165,-4.3119,-4.4159,-4.5051,-4.5638,-4.597,-4.6457,-4.7407,-4.7209,-4.7209,-4.7449,-4.7497,-4.7449,-4.7449,-4.7497,-4.7497,-4.7497,-4.7497,-4.7497,-4.7497,-4.7497,-4.7497,-4.7563,-4.8461,-4.9177,-4.9886,-5.0753,-5.1721,-5.2773,-5.3349,-5.3592,-5.3619,-5.3917,-5.3999,-5.4162,-5.4541,-5.4894,-5.4921,-5.5247,-5.5702,-5.6409,-5.8075,-5.9335,-6.0166,-6.1841,-6.351,-6.4241,-6.4334,-6.458,-6.4734,-6.4888,-6.4943,-6.5053,-6.5108,-6.5163,-6.5351,-6.5677,-6.5947,-6.648,-6.7149,-6.7802,-6.8732,-6.9703,-7.0749,-7.2005,-7.2638,-7.3357,-7.3641,-7.3549,-7.3522,-7.378,-7.3987,-7.4296,-7.4975,-7.5751,-7.6172,-7.6342,-7.6538,-7.6797,-7.7292,-7.7797,-7.8192,-7.8554,-7.8763,-7.8929,-7.8763,-7.8686,-7.8738,-7.8686,-7.8501,-7.8554,-3.864,-3.864,-3.864,-3.864,-3.864,-3.864,-3.864,-3.864,-3.864,-3.8322,-3.7998,-3.7594,-3.7209,-3.6806,-3.6402,-3.6219,-3.6201,-3.6201,-3.6201,-3.6349,-3.7966,-3.9273,-4.0728,-4.2333,-4.3517,-4.3262,-4.4686,-4.5799,-4.6204,-4.654,-4.6894,-4.7431,-4.7497,-4.7449,-4.7473,-4.7497,-4.7497,-4.7497,-4.7497,-4.7497,-4.7497,-4.7497,-4.7497,-4.7497,-4.7497,-4.7696,-4.8002,-4.8828,-4.9733,-5.0778,-5.1757,-5.2306,-5.2695,-5.3152,-5.3836,-5.389,-5.4406,-5.4596,-5.4731,-5.5166,-5.5545,-5.5545,-5.5708,-5.6147,-5.7171,-5.8503,-5.9888,-6.1275,-6.2673,-6.4026,-6.4764,-6.4795,-6.4826,-6.4888,-6.4888,-6.5053,-6.5242,-6.5351,-6.5406,-6.5515,-6.5839,-6.6139,-6.6299,-6.6744,-6.7304,-6.7953,-6.9009,-7.0116,-7.1386,-7.2609,-7.338,-7.3852,-7.376,-7.3533,-7.3723,-7.4187,-7.465,-7.4977,-7.5754,-7.607,-7.6208,-7.6409,-7.6603,-7.6951,-7.7413,-7.7826,-7.8137,-7.8394,-7.8448,-7.8329,-7.8302,-7.8275,-7.8137,-7.794,-7.8053,-3.864,-3.864,-3.864,-3.864,-3.864,-3.864,-3.864,-3.864,-3.864,-3.8401,-3.7998,-3.7594,-3.7209,-3.6806,-3.6402,-3.6219,-3.6201,-3.6201,-3.6349,-3.6701,-3.8404,-3.9973,-4.1488,-4.3656,-4.4914,-4.564,-4.6136,-4.6338,-4.663,-4.6965,-4.7298,-4.7431,-4.7497,-4.7497,-4.7497,-4.7497,-4.7497,-4.7497,-4.7497,-4.7497,-4.7497,-4.7497,-4.7497,-4.7497,-4.763,-4.8002,-4.8787,-4.9758,-5.0842,-5.1819,-5.2834,-5.3524,-5.3963,-5.4283,-5.4596,-5.4867,-5.5111,-5.5247,-5.5328,-5.5817,-5.6115,-5.6251,-5.6495,-5.6766,-5.7658,-5.9224,-6.0558,-6.1229,-6.2712,-6.4149,-6.4826,-6.4888,-6.4888,-6.4888,-6.4943,-6.5053,-6.5297,-6.5515,-6.5731,-6.5978,-6.6139,-6.6246,-6.6406,-6.6533,-6.7026,-6.7885,-6.9057,-7.007,-7.1209,-7.249,-7.3617,-7.3891,-7.3975,-7.3716,-7.3522,-7.4128,-7.4606,-7.4654,-7.5225,-7.5828,-7.6038,-7.6174,-7.6442,-7.6765,-7.7051,-7.7383,-7.768,-7.794,-7.794,-7.7854,-7.7826,-7.7826,-7.768,-7.7563,-7.7622,-3.864,-3.864,-3.864,-3.864,-3.864,-3.864,-3.864,-3.864,-3.864,-3.8401,-3.7998,-3.7594,-3.7209,-3.6806,-3.6402,-3.6219,-3.6201,-3.6442,-3.6922,-3.784,-3.9757,-4.1517,-4.2801,-4.5028,-4.618,-4.6808,-4.6965,-4.6965,-4.7032,-4.7298,-4.7497,-4.7497,-4.7497,-4.7497,-4.7497,-4.7497,-4.7497,-4.7497,-4.7497,-4.7497,-4.7497,-4.7497,-4.7497,-4.763,-4.8002,-4.8526,-4.9087,-5.0626,-5.169,-5.2553,-5.3501,-5.4445,-5.5111,-5.5383,-5.541,-5.5491,-5.5708,-5.5871,-5.5952,-5.6414,-5.6739,-5.6766,-5.7038,-5.7174,-5.7852,-5.938,-6.1261,-6.257,-6.3135,-6.4487,-6.4857,-6.4888,-6.4888,-6.4943,-6.4998,-6.5187,-6.546,-6.5785,-6.6054,-6.6299,-6.6406,-6.6459,-6.6512,-6.6691,-6.6869,-6.7733,-6.9009,-7.007,-7.1075,-7.249,-7.3812,-7.3891,-7.401,-7.3917,-7.369,-7.4087,-7.4484,-7.4612,-7.4905,-7.5477,-7.5864,-7.6106,-7.6275,-7.6508,-7.6765,-7.7051,-7.7261,-7.7563,-7.7473,-7.7383,-7.7353,-7.7322,-7.7261,-7.7231,-7.7231,-3.864,-3.864,-3.864,-3.864,-3.864,-3.864,-3.864,-3.864,-3.864,-3.8268,-3.7888,-3.7558,-3.7154,-3.6714,-3.6402,-3.6201,-3.6349,-3.6664,-3.7364,-3.8714,-4.1042,-4.3149,-4.439,-4.6291,-4.7364,-4.7298,-4.7364,-4.7497,-4.7431,-4.7497,-4.7497,-4.7497,-4.7497,-4.7497,-4.7497,-4.7497,-4.7497,-4.7497,-4.7497,-4.7497,-4.7497,-4.7497,-4.763,-4.7828,-4.8592,-4.9152,-4.9989,-5.1313,-5.249,-5.3334,-5.4216,-5.5138,-5.6061,-5.6305,-5.6142,-5.5925,-5.6224,-5.6414,-5.6577,-5.6821,-5.7092,-5.7092,-5.7146,-5.7174,-5.7788,-5.956,-6.1939,-6.4214,-6.4857,-6.4826,-6.4888,-6.4888,-6.4943,-6.5053,-6.5187,-6.5406,-6.5731,-6.6,-6.6246,-6.6459,-6.6565,-6.6586,-6.6586,-6.6586,-6.6744,-6.7478,-6.8716,-6.9802,-7.0951,-7.2735,-7.3852,-7.3931,-7.401,-7.401,-7.3952,-7.4072,-7.4364,-7.4452,-7.4866,-7.5406,-7.5796,-7.6106,-7.6242,-7.6409,-7.6541,-7.6797,-7.6983,-7.7076,-7.6951,-7.6925,-7.6893,-7.6861,-7.6797,-7.6733,-7.6733,-3.864,-3.864,-3.864,-3.864,-3.864,-3.864,-3.864,-3.864,-3.8621,-3.8199,-3.7539,-3.7411,-3.6971,-3.6439,-3.6274,-3.6423,-3.6664,-3.6812,-3.731,-3.8516,-4.1113,-4.2801,-4.3426,-4.609,-4.7274,-4.7497,-4.7497,-4.7497,-4.7497,-4.7497,-4.7497,-4.7497,-4.7497,-4.7497,-4.7497,-4.7497,-4.7497,-4.7497,-4.7497,-4.7497,-4.7497,-4.7497,-4.7936,-4.8461,-4.9023,-4.9797,-5.1083,-5.2276,-5.3325,-5.4233,-5.4932,-5.5627,-5.617,-5.6305,-5.6604,-5.6821,-5.7038,-5.7065,-5.7038,-5.7119,-5.7174,-5.7174,-5.7174,-5.7174,-5.8143,-5.9622,-6.2086,-6.4579,-6.4888,-6.4888,-6.4888,-6.4888,-6.4998,-6.5132,-6.5297,-6.5654,-6.5978,-6.6192,-6.6406,-6.6512,-6.6617,-6.6586,-6.6586,-6.6586,-6.6691,-6.7529,-6.842,-6.9566,-7.0906,-7.2658,-7.3852,-7.397,-7.401,-7.401,-7.401,-7.4167,-7.4287,-7.4364,-7.4821,-7.5335,-7.5655,-7.6003,-7.6208,-7.6342,-7.6475,-7.6475,-7.6603,-7.6603,-7.6508,-7.6508,-7.6538,-7.6508,-7.6376,-7.6309,-7.6342,-3.864,-3.864,-3.864,-3.864,-3.864,-3.864,-3.864,-3.8505,-3.8383,-3.7961,-3.7448,-3.7173,-3.6751,-3.6292,-3.6201,-3.6423,-3.6812,-3.7034,-3.7897,-3.9169,-4.1488,-4.3218,-4.4482,-4.6315,-4.7431,-4.7497,-4.7497,-4.7497,-4.7497,-4.7497,-4.7497,-4.7497,-4.7497,-4.7497,-4.7497,-4.7497,-4.7497,-4.7497,-4.7497,-4.7497,-4.7497,-4.7563,-4.7762,-4.8199,-4.9307,-5.0423,-5.1439,-5.3086,-5.4119,-5.5003,-5.56,-5.6197,-5.6631,-5.6821,-5.6956,-5.7092,-5.7174,-5.7174,-5.7174,-5.7174,-5.7174,-5.7174,-5.7303,-5.7852,-5.9093,-6.0327,-6.2086,-6.4666,-6.4888,-6.4918,-6.4918,-6.4888,-6.5053,-6.5218,-6.5468,-6.5762,-6.6085,-6.6299,-6.6512,-6.6565,-6.6586,-6.6586,-6.6586,-6.6586,-6.6691,-6.7253,-6.847,-6.9896,-7.113,-7.2575,-7.3502,-7.401,-7.401,-7.401,-7.401,-7.4049,-7.4248,-7.4441,-7.4821,-7.5263,-7.5584,-7.5864,-7.6174,-7.6275,-7.6342,-7.6342,-7.6275,-7.6309,-7.6376,-7.6342,-7.6309,-7.6275,-7.6275,-7.6275,-7.6309,-3.8268,-3.8346,-3.8438,-3.8493,-3.8396,-3.8383,-3.8328,-3.8291,-3.7998,-3.7649,-3.7246,-3.6936,-3.6569,-3.6348,-3.6423,-3.6738,-3.696,-3.7347,-3.8681,-4.0422,-4.2193,-4.3725,-4.5119,-4.6674,-4.7497,-4.7497,-4.7497,-4.7497,-4.7497,-4.7497,-4.7497,-4.7497,-4.7497,-4.7497,-4.7497,-4.7497,-4.7497,-4.7497,-4.7497,-4.7497,-4.7521,-4.7666,-4.8015,-4.8805,-4.9895,-5.1202,-5.1873,-5.369,-5.5212,-5.5627,-5.6197,-5.6739,-5.7038,-5.7092,-5.7119,-5.7174,-5.7174,-5.7174,-5.7174,-5.7174,-5.7174,-5.7174,-5.7431,-5.8143,-6.0387,-6.105,-6.2086,-6.4666,-6.5165,-6.5072,-6.5011,-6.5165,-6.5479,-6.5661,-6.581,-6.6018,-6.6224,-6.6406,-6.6565,-6.6565,-6.6586,-6.6586,-6.6586,-6.6586,-6.6796,-6.713,-6.8371,-7.0083,-7.1518,-7.286,-7.3421,-7.401,-7.401,-7.401,-7.401,-7.4049,-7.4209,-7.4441,-7.4821,-7.5118,-7.5407,-7.5829,-7.6208,-7.6275,-7.6275,-7.6275,-7.6275,-7.6275,-7.6275,-7.6275,-7.6275,-7.6275,-7.6275,-7.6275,-7.6275,-3.7503,-3.7539,-3.7906,-3.8053,-3.8034,-3.7668,-3.7521,-3.7613,-3.7503,-3.7246,-3.6842,-3.6775,-3.659,-3.6442,-3.6886,-3.7255,-3.7402,-3.7789,-3.9044,-4.0657,-4.2333,-4.3794,-4.5346,-4.6583,-4.7497,-4.7497,-4.7497,-4.7497,-4.7497,-4.7497,-4.7497,-4.7497,-4.7497,-4.7497,-4.7497,-4.7497,-4.7497,-4.7497,-4.7497,-4.7497,-4.7708,-4.8101,-4.8861,-5.0175,-5.1395,-5.2737,-5.4144,-5.5284,-5.598,-5.6142,-5.6685,-5.6984,-5.7146,-5.7174,-5.7174,-5.7174,-5.7174,-5.7174,-5.7174,-5.7174,-5.7174,-5.7174,-5.7431,-5.827,-6.069,-6.099,-6.232,-6.4443,-6.514,-6.5405,-6.5472,-6.5805,-6.5899,-6.6261,-6.6339,-6.6399,-6.6519,-6.649,-6.6565,-6.6617,-6.6586,-6.6586,-6.6586,-6.6586,-6.6849,-6.7181,-6.8814,-7.0498,-7.1987,-7.3223,-7.3622,-7.401,-7.401,-7.401,-7.401,-7.4088,-7.4128,-7.4325,-7.4633,-7.4933,-7.5154,-7.562,-7.614,-7.6275,-7.6275,-7.6275,-7.6275,-7.6275,-7.6275,-7.6275,-7.6275,-7.6275,-7.6275,-7.6275,-7.6275,-3.7352,-3.7429,-3.7338,-3.7429,-3.7649,-3.7484,-3.7352,-3.7374,-3.7173,-3.6842,-3.6457,-3.6664,-3.6738,-3.6738,-3.7107,-3.7568,-3.7715,-3.7862,-3.9261,-4.0728,-4.2333,-4.3794,-4.5346,-4.665,-4.7497,-4.7497,-4.7497,-4.7497,-4.7497,-4.7497,-4.7497,-4.7497,-4.7497,-4.7497,-4.7497,-4.7497,-4.7497,-4.7497,-4.7497,-4.7497,-4.775,-4.8687,-4.9545,-5.0102,-5.2414,-5.3384,-5.4223,-5.5528,-5.6106,-5.6441,-5.6902,-5.7092,-5.7174,-5.7174,-5.7174,-5.7174,-5.7174,-5.7174,-5.7174,-5.7174,-5.7174,-5.7174,-5.7367,-5.8242,-6.0569,-6.099,-6.2378,-6.4023,-6.5165,-6.5374,-6.5967,-6.5874,-6.594,-6.666,-6.6932,-6.6843,-6.6752,-6.6691,-6.6617,-6.6617,-6.6586,-6.6586,-6.6586,-6.6586,-6.6953,-6.7388,-6.9169,-7.0861,-7.2236,-7.338,-7.3697,-7.397,-7.401,-7.401,-7.401,-7.401,-7.401,-7.4209,-7.4479,-7.4746,-7.5043,-7.5478,-7.5898,-7.6106,-7.6275,-7.6275,-7.6275,-7.6275,-7.6275,-7.6275,-7.6275,-7.6275,-7.6275,-7.6275,-7.6203,-3.7062,-3.7026,-3.6769,-3.6879,-3.7209,-3.7118,-3.7062,-3.7026,-3.6769,-3.6587,-3.6442,-3.6812,-3.696,-3.7107,-3.7549,-3.7789,-3.8009,-3.8302,-3.9694,-4.1155,-4.2683,-4.4138,-4.5685,-4.6808,-4.7497,-4.7497,-4.7497,-4.7497,-4.7497,-4.7497,-4.7497,-4.7497,-4.7497,-4.7497,-4.7497,-4.7497,-4.7497,-4.7497,-4.7497,-4.7497,-4.7702,-4.884,-5.0074,-5.0569,-5.2672,-5.4129,-5.4917,-5.6023,-5.6513,-5.6739,-5.6956,-5.7146,-5.7174,-5.7174,-5.7174,-5.7174,-5.7174,-5.7174,-5.7174,-5.7174,-5.7174,-5.7174,-5.7174,-5.8368,-5.9806,-6.081,-6.2086,-6.3819,-6.4708,-6.543,-6.614,-6.6102,-6.6199,-6.68,-6.6901,-6.6874,-6.6805,-6.6744,-6.6649,-6.6586,-6.6586,-6.6586,-6.6849,-6.6901,-6.7336,-6.7866,-6.9105,-7.0669,-7.1978,-7.2977,-7.3617,-7.3817,-7.401,-7.401,-7.401,-7.401,-7.401,-7.4128,-7.4364,-7.4631,-7.4933,-7.5335,-7.569,-7.5898,-7.6106,-7.6242,-7.6275,-7.6275,-7.6275,-7.6275,-7.6275,-7.6275,-7.6275,-7.6239,-7.6022,-3.6274,-3.6237,-3.6237,-3.6476,-3.6787,-3.6421,-3.6274,-3.6366,-3.6292,-3.6479,-3.6812,-3.7181,-3.7421,-3.7549,-3.8063,-3.8282,-3.8155,-3.8501,-3.9962,-4.2193,-4.2892,-4.4709,-4.6382,-4.7431,-4.7497,-4.7497,-4.7497,-4.7497,-4.7497,-4.7497,-4.7497,-4.7497,-4.7497,-4.7497,-4.7497,-4.7497,-4.7497,-4.7521,-4.7545,-4.7593,-4.7949,-4.9029,-5.0282,-5.1398,-5.3268,-5.4851,-5.5703,-5.653,-5.6956,-5.7038,-5.7065,-5.7174,-5.7174,-5.7174,-5.7174,-5.7174,-5.7174,-5.7174,-5.7174,-5.7174,-5.7174,-5.7174,-5.7174,-5.7952,-5.9093,-6.0234,-6.1526,-6.3189,-6.441,-6.5294,-6.5874,-6.6251,-6.6457,-6.694,-6.7103,-6.6982,-6.689,-6.6744,-6.6649,-6.6586,-6.6586,-6.6638,-6.7005,-6.7317,-6.7797,-6.8436,-6.9346,-7.0519,-7.1796,-7.2686,-7.338,-7.3777,-7.401,-7.401,-7.401,-7.401,-7.4049,-7.4128,-7.4245,-7.4479,-7.4819,-7.5226,-7.5478,-7.5725,-7.6038,-7.6242,-7.6275,-7.6275,-7.6275,-7.6275,-7.6275,-7.6275,-7.6275,-7.6239,-7.6058,-3.6201,-3.6201,-3.6201,-3.6292,-3.6402,-3.6274,-3.6201,-3.6275,-3.6423,-3.6664,-3.696,-3.7495,-3.7789,-3.8009,-3.8282,-3.8501,-3.8428,-3.8574,-4.0177,-4.2753,-4.3101,-4.4914,-4.665,-4.7497,-4.7497,-4.7497,-4.7497,-4.7497,-4.7497,-4.7497,-4.7497,-4.7497,-4.7497,-4.7497,-4.7497,-4.7521,-4.7617,-4.7954,-4.8074,-4.8238,-4.871,-5.0104,-5.127,-5.1921,-5.4014,-5.545,-5.6205,-5.6848,-5.7092,-5.7174,-5.7174,-5.7174,-5.7174,-5.7174,-5.7174,-5.7174,-5.7174,-5.7174,-5.7174,-5.7174,-5.7174,-5.7174,-5.7238,-5.7788,-5.8996,-5.9403,-6.0839,-6.2378,-6.3571,-6.4692,-6.6047,-6.5981,-6.6362,-6.7548,-6.7742,-6.7269,-6.706,-6.6775,-6.6586,-6.6586,-6.6586,-6.6586,-6.6796,-6.7336,-6.7899,-6.8617,-6.9412,-7.0553,-7.1796,-7.2525,-7.3183,-7.3737,-7.401,-7.401,-7.401,-7.401,-7.401,-7.4049,-7.4128,-7.4248,-7.4596,-7.5006,-7.5263,-7.5513,-7.5934,-7.6275,-7.6242,-7.6208,-7.6275,-7.6275,-7.6275,-7.6203,-7.6094,-7.6167,-7.6239,-3.6201,-3.6201,-3.6201,-3.6201,-3.6201,-3.6201,-3.6201,-3.6275,-3.6664,-3.6886,-3.7107,-3.7715,-3.8082,-3.8228,-3.8448,-3.8574,-3.8647,-3.9281,-4.0392,-4.2892,-4.3656,-4.5391,-4.6874,-4.7497,-4.7497,-4.7497,-4.7497,-4.7497,-4.7497,-4.7497,-4.7497,-4.7497,-4.7497,-4.7497,-4.7497,-4.7545,-4.7738,-4.8074,-4.8243,-4.8339,-4.899,-5.0019,-5.1179,-5.2166,-5.3569,-5.5179,-5.605,-5.6658,-5.6984,-5.7092,-5.7174,-5.7174,-5.7174,-5.7174,-5.7174,-5.7174,-5.7174,-5.7174,-5.7174,-5.7174,-5.7174,-5.7174,-5.7174,-5.7597,-5.8459,-5.8871,-6.0234,-6.1615,-6.2553,-6.4406,-6.6034,-6.5872,-6.6493,-6.7679,-6.7629,-6.7123,-6.6965,-6.6649,-6.6586,-6.6586,-6.6586,-6.6586,-6.6691,-6.7336,-6.7949,-6.8716,-6.9493,-7.0632,-7.1698,-7.227,-7.3018,-7.3697,-7.401,-7.401,-7.401,-7.401,-7.401,-7.401,-7.4088,-7.4167,-7.4287,-7.4633,-7.497,-7.5263,-7.5513,-7.5796,-7.6003,-7.6072,-7.6106,-7.6208,-7.6275,-7.6167,-7.5949,-7.5949,-7.5985,-3.6201,-3.6201,-3.6201,-3.6201,-3.6201,-3.6201,-3.6201,-3.6275,-3.6664,-3.7034,-3.7495,-3.7862,-3.8228,-3.8501,-3.8574,-3.8574,-3.8938,-3.9962,-4.1488,-4.3032,-4.423,-4.5978,-4.7008,-4.7497,-4.7497,-4.7497,-4.7497,-4.7497,-4.7497,-4.7497,-4.7497,-4.7497,-4.7497,-4.7497,-4.7497,-4.7545,-4.781,-4.8147,-4.8435,-4.8507,-4.8971,-4.9455,-5.0672,-5.1674,-5.2815,-5.4288,-5.5364,-5.6251,-5.6631,-5.6902,-5.7146,-5.7174,-5.7174,-5.7174,-5.7174,-5.7174,-5.7174,-5.7174,-5.7174,-5.7174,-5.7174,-5.7174,-5.7174,-5.7238,-5.756,-5.8333,-5.9588,-6.099,-6.2261,-6.4349,-6.6027,-6.6222,-6.6497,-6.6868,-6.6997,-6.6807,-6.6712,-6.6586,-6.6586,-6.6586,-6.6586,-6.6638,-6.6744,-6.7317,-6.8,-6.855,-6.9349,-7.0494,-7.1478,-7.1873,-7.2686,-7.3777,-7.401,-7.401,-7.401,-7.401,-7.401,-7.401,-7.401,-7.4088,-7.4245,-7.4364,-7.4671,-7.4933,-7.5043,-7.5227,-7.5549,-7.576,-7.5934,-7.6002,-7.6029,-7.5841,-7.5551,-7.5406,-7.5225,-3.6201,-3.6201,-3.6201,-3.6201,-3.6201,-3.6201,-3.6349,-3.6664,-3.7034,-3.7421,-3.7862,-3.8209,-3.8428,-3.8574,-3.8574,-3.8574,-3.9208,-4.0105,-4.1559,-4.3171,-4.4846,-4.618,-4.7008,-4.7497,-4.7497,-4.7497,-4.7497,-4.7497,-4.7497,-4.7497,-4.7497,-4.7497,-4.7497,-4.7497,-4.7497,-4.7497,-4.7834,-4.8195,-4.8507,-4.8652,-4.9174,-4.9952,-5.077,-5.1458,-5.2575,-5.3983,-5.4889,-5.5871,-5.6278,-5.6522,-5.6984,-5.7146,-5.7174,-5.7174,-5.7174,-5.7174,-5.7174,-5.7174,-5.7174,-5.7174,-5.7174,-5.7174,-5.7174,-5.7174,-5.7303,-5.7788,-5.8843,-6.0416,-6.1792,-6.3602,-6.5479,-6.6237,-6.6551,-6.6796,-6.6839,-6.6681,-6.6586,-6.6586,-6.6586,-6.6586,-6.6586,-6.6586,-6.6796,-6.742,-6.805,-6.8451,-6.9156,-7.0389,-7.13,-7.1742,-7.2517,-7.3657,-7.401,-7.401,-7.401,-7.401,-7.401,-7.401,-7.401,-7.401,-7.4128,-7.4248,-7.4479,-7.4669,-7.4746,-7.497,-7.5227,-7.5407,-7.5549,-7.5577,-7.557,-7.5345,-7.5119,-7.483,-7.4468,-3.5742,-3.5742,-3.5742,-3.5742,-3.5742,-3.5742,-3.6035,-3.6602,-3.7177,-3.7642,-3.8009,-3.8448,-3.8574,-3.8574,-3.8647,-3.8918,-3.9694,-4.1155,-4.2613,-4.4161,-4.5414,-4.6516,-4.7298,-4.7497,-4.7497,-4.7497,-4.7497,-4.7497,-4.7497,-4.7497,-4.7497,-4.7497,-4.7497,-4.7497,-4.7497,-4.7521,-4.7642,-4.8026,-4.8387,-4.87,-4.9358,-5.0048,-5.0453,-5.1357,-5.2648,-5.3352,-5.4426,-5.5383,-5.5735,-5.617,-5.6739,-5.6956,-5.7065,-5.7174,-5.7174,-5.7174,-5.7174,-5.7174,-5.7174,-5.7174,-5.7174,-5.7174,-5.7174,-5.7174,-5.7174,-5.7431,-5.8746,-6.0173,-6.1318,-6.267,-6.4499,-6.6112,-6.6529,-6.6997,-6.6807,-6.6617,-6.6586,-6.6586,-6.6586,-6.6586,-6.6586,-6.6586,-6.6953,-6.7542,-6.805,-6.8351,-6.901,-7.0123,-7.1086,-7.1752,-7.2644,-7.3737,-7.397,-7.401,-7.401,-7.401,-7.401,-7.401,-7.401,-7.401,-7.4049,-7.4128,-7.4248,-7.4364,-7.4479,-7.4636,-7.4752,-7.4972,-7.5155,-7.5048,-7.4755,-7.4356,-7.4021,-7.3783,-7.3421,-3.5045,-3.5064,-3.5027,-3.51,-3.5045,-3.5082,-3.5513,-3.6228,-3.6948,-3.7509,-3.7928,-3.8292,-3.8379,-3.8281,-3.8353,-3.9206,-4.0329,-4.1811,-4.336,-4.5255,-4.6516,-4.7364,-4.7364,-4.7497,-4.7497,-4.7497,-4.7497,-4.7497,-4.7497,-4.7497,-4.7497,-4.7497,-4.7497,-4.7497,-4.7497,-4.7497,-4.7569,-4.769,-4.7978,-4.8243,-4.831,-4.8573,-4.9092,-5.0423,-5.1198,-5.1957,-5.3751,-5.4677,-5.503,-5.5817,-5.6387,-5.6631,-5.6984,-5.7174,-5.7174,-5.7174,-5.7174,-5.7174,-5.7174,-5.7174,-5.7174,-5.7174,-5.7174,-5.7174,-5.7174,-5.7174,-5.8396,-5.9806,-6.1079,-6.27,-6.4504,-6.5639,-6.6211,-6.6679,-6.6775,-6.6649,-6.6586,-6.6586,-6.6586,-6.6586,-6.6586,-6.6586,-6.6691,-6.7317,-6.7848,-6.8201,-6.8847,-6.9888,-7.0906,-7.1664,-7.2686,-7.3697,-7.3931,-7.401,-7.401,-7.401,-7.401,-7.401,-7.401,-7.401,-7.4049,-7.401,-7.401,-7.4167,-7.4248,-7.4184,-7.4267,-7.4388,-7.4291,-7.3904,-7.3583,-7.3222,-7.2927,-7.2692,-7.2525,-3.5027,-3.5027,-3.5027,-3.5027,-3.5027,-3.5027,-3.5439,-3.6171,-3.6342,-3.6885,-3.7404,-3.7546,-3.7656,-3.7773,-3.7734,-3.8666,-4.0514,-4.1908,-4.3551,-4.5229,-4.6779,-4.7377,-4.7473,-4.7473,-4.7473,-4.7497,-4.7497,-4.7497,-4.7497,-4.7497,-4.7497,-4.7497,-4.7497,-4.7497,-4.7497,-4.7497,-4.7497,-4.7521,-4.7642,-4.7786,-4.7852,-4.8935,-4.9881,-5.0704,-5.1272,-5.2271,-5.3666,-5.4297,-5.484,-5.5518,-5.6061,-5.6577,-5.7119,-5.7146,-5.7174,-5.7174,-5.7174,-5.7174,-5.7174,-5.7174,-5.7174,-5.7174,-5.7174,-5.7174,-5.7174,-5.7174,-5.7916,-5.9465,-6.0988,-6.2759,-6.4223,-6.5053,-6.5924,-6.6362,-6.6744,-6.6681,-6.6586,-6.6586,-6.6586,-6.6586,-6.6586,-6.6638,-6.6691,-6.7057,-6.7625,-6.8151,-6.8649,-6.9541,-7.0632,-7.1532,-7.2559,-7.3421,-7.3891,-7.401,-7.401,-7.401,-7.401,-7.401,-7.401,-7.401,-7.401,-7.401,-7.401,-7.401,-7.4053,-7.385,-7.3649,-7.3522,-7.3358,-7.2865,-7.2477,-7.2157,-7.1834,-7.154,-7.1513,-3.4495,-3.4495,-3.4495,-3.4495,-3.4477,-3.4495,-3.4919,-3.5533,-3.5603,-3.6023,-3.6747,-3.7109,-3.7383,-3.7461,-3.7402,-3.8797,-4.0688,-4.1661,-4.3556,-4.5365,-4.6447,-4.6981,-4.7209,-4.7329,-4.7473,-4.7497,-4.7497,-4.7497,-4.7449,-4.7497,-4.7497,-4.7497,-4.7497,-4.7497,-4.7497,-4.7497,-4.7497,-4.7497,-4.7497,-4.7497,-4.7563,-4.8706,-4.9851,-5.0614,-5.1596,-5.2527,-5.3281,-5.3972,-5.4379,-5.4976,-5.5545,-5.6142,-5.6577,-5.6739,-5.6929,-5.7092,-5.7174,-5.7174,-5.7174,-5.7174,-5.7174,-5.7174,-5.7174,-5.7174,-5.7174,-5.7238,-5.756,-5.8996,-6.0234,-6.1851,-6.3448,-6.4518,-6.5646,-6.6352,-6.6596,-6.6617,-6.6586,-6.6586,-6.6586,-6.6586,-6.6586,-6.6586,-6.6638,-6.6723,-6.7317,-6.805,-6.86,-6.9349,-7.0402,-7.1399,-7.239,-7.3217,-7.3657,-7.397,-7.401,-7.401,-7.401,-7.401,-7.401,-7.401,-7.401,-7.401,-7.401,-7.3905,-7.3659,-7.3273,-7.3111,-7.2806,-7.2207,-7.1644,-7.1333,-7.109,-7.0807,-7.0627,-7.0792,-3.3853,-3.3817,-3.3835,-3.3835,-3.3817,-3.3835,-3.4269,-3.489,-3.494,-3.5352,-3.6103,-3.6816,-3.7363,-3.7519,-3.7504,-3.9674,-4.1122,-4.1475,-4.3278,-4.5326,-4.6309,-4.6559,-4.6752,-4.6992,-4.704,-4.7233,-4.7377,-4.7329,-4.7305,-4.7401,-4.7497,-4.7497,-4.7497,-4.7497,-4.7497,-4.7497,-4.7497,-4.7497,-4.7497,-4.7497,-4.7894,-4.833,-4.9267,-5.0334,-5.1382,-5.2404,-5.3044,-5.3612,-5.3883,-5.4514,-5.5166,-5.5681,-5.6115,-5.6332,-5.6631,-5.6848,-5.7119,-5.7146,-5.7174,-5.7174,-5.7174,-5.7174,-5.7174,-5.7174,-5.7174,-5.7367,-5.7624,-5.8459,-5.9711,-6.111,-6.2726,-6.4066,-6.5235,-6.6374,-6.648,-6.6586,-6.6586,-6.6586,-6.6586,-6.6586,-6.6586,-6.6586,-6.6617,-6.6617,-6.7109,-6.7848,-6.8567,-6.9364,-7.0216,-7.1176,-7.2133,-7.2894,-7.3461,-7.3737,-7.397,-7.401,-7.401,-7.401,-7.401,-7.401,-7.401,-7.401,-7.3905,-7.3589,-7.3343,-7.2816,-7.229,-7.1839,-7.1204,-7.0644,-7.0439,-7.0305,-7.0201,-7.0062,-7.0273,-3.3817,-3.3817,-3.3817,-3.3817,-3.3817,-3.3817,-3.4232,-3.4853,-3.4921,-3.5333,-3.5938,-3.6152,-3.6504,-3.6894,-3.6465,-3.818,-4.1207,-4.1329,-4.3183,-4.5548,-4.5918,-4.6054,-4.6175,-4.6367,-4.6271,-4.6535,-4.6944,-4.7185,-4.7112,-4.7305,-4.7497,-4.7497,-4.7497,-4.7497,-4.7497,-4.7497,-4.7497,-4.7497,-4.7497,-4.7497,-4.7497,-4.787,-4.833,-4.9282,-5.0308,-5.132,-5.228,-5.3139,-5.3822,-5.4487,-5.4976,-5.5301,-5.56,-5.5898,-5.6197,-5.6441,-5.6739,-5.6984,-5.6984,-5.7038,-5.7038,-5.7174,-5.7174,-5.7174,-5.7174,-5.7174,-5.7624,-5.8262,-5.9555,-6.1019,-6.2494,-6.3558,-6.474,-6.5969,-6.6586,-6.6586,-6.6586,-6.6586,-6.6586,-6.6586,-6.6586,-6.6586,-6.6617,-6.6744,-6.7109,-6.7746,-6.8201,-6.901,-6.9969,-7.094,-7.1917,-7.2559,-7.3258,-7.3697,-7.401,-7.401,-7.401,-7.401,-7.401,-7.401,-7.401,-7.401,-7.3834,-7.3378,-7.2816,-7.229,-7.1693,-7.1061,-7.0499,-7.001,-6.9764,-6.9591,-6.9522,-6.9597,-6.9884]},{"header":{"parameterUnit":"m.s-1","parameterCategory":1,"la1":31.0,"la2":29.5877,"lo1":-88.7671,"lo2":-86.6584,"dy":0.0162,"dx":0.0185,"nx":115,"ny":88,"refTime":"2024-09-10T06:00:00:Z","depth":0,"parameterNumber":3,"parameterNumberName":"V-component_of_WINDS"},"data":[0.0,0.0,0.0,0.0,0.0,0.0,0.0,0.0,0.0,0.0,0.0,0.0,0.0,0.0,0.0,0.0,0.0,0.0,0.0,0.0,0.0,0.0,0.0,0.0,0.0,0.0,0.0,0.0,0.0,0.0,0.0,0.0,0.0,0.0,0.0,0.0,0.0,0.0,0.0,0.0,0.0,0.0,0.0,0.0,0.0,0.0,0.0,0.0,0.0,0.0,0.0,0.0,0.0,0.0,0.0,0.0,0.0,0.0,0.0,0.0,0.0,0.0,0.0,0.0,0.0,0.0,0.0,0.0,0.0,0.0,0.0,0.0,0.0,0.0,0.0,0.0,0.0,0.0,0.0,0.0,0.0,0.0,0.0,0.0,0.0,0.0,0.0,0.0,0.0,0.0,0.0,0.0,0.0,0.0,0.0,0.0,0.0,0.0,0.0,0.0,0.0,0.0,0.0,0.0,0.0,0.0,0.0,0.0,0.0,0.0,0.0,0.0,0.0,0.0,0.0,0.0,0.0,0.0,0.0,0.0,0.0,0.0,0.0,0.0,0.0,0.0,0.0,0.0,0.0,0.0,0.0,0.0,0.0,0.0,0.0,0.0,0.0,0.0,0.0,0.0,0.0,0.0,0.0,0.0,0.0,0.0,0.0,0.0,0.0,0.0,0.0,0.0,0.0,0.0,0.0,0.0,0.0,0.0,0.0,0.0,0.0,0.0,0.0,0.0,0.0,0.0,0.0,0.0,0.0,0.0,0.0,0.0,0.0,0.0,0.0,0.0,0.0,0.0,0.0,0.0,0.0,0.0,0.0,0.0,0.0,0.0,0.0,0.0,0.0,0.0,0.0,0.0,0.0,0.0,0.0,0.0,0.0,0.0,0.0,0.0,0.0,0.0,0.0,0.0,0.0,0.0,0.0,0.0,0.0,0.0,0.0,0.0,0.0,0.0,0.0,0.0,0.0,0.0,0.0,0.0,0.0,0.0,0.0,0.0,0.0,0.0,0.0,0.0,0.0,0.0,0.0,0.0,0.0,0.0,0.0,0.0,0.0,0.0,0.0,0.0,0.0,0.0,0.0,0.0,0.0,0.0,0.0,0.0,0.0,0.0,0.0,0.0,0.0,0.0,0.0,0.0,0.0,0.0,0.0,0.0,0.0,0.0,0.0,0.0,0.0,0.0,0.0,0.0,0.0,0.0,0.0,0.0,0.0,0.0,0.0,0.0,0.0,0.0,0.0,0.0,0.0,0.0,0.0,0.0,0.0,0.0,0.0,0.0,0.0,0.0,0.0,0.0,0.0,0.0,0.0,0.0,0.0,0.0,0.0,0.0,0.0,0.0,0.0,0.0,0.0,0.0,0.0,0.0,0.0,0.0,0.0,0.0,0.0,0.0,0.0,0.0,0.0,0.0,0.0,0.0,0.0,0.0,0.0,0.0,0.0,0.0,0.0,0.0,0.0,0.0,0.0,0.0,0.0,0.0,0.0,0.0,0.0,0.0,0.0,0.0,0.0,0.0,0.0,0.0,0.0,0.0,0.0,0.0,0.0,0.0,0.0,0.0,0.0,0.0,0.0,0.0,0.0,0.0,0.0,0.0,0.0,0.0,0.0,0.0,0.0,0.0,0.0,0.0,0.0,0.0,0.0,0.0,0.0,0.0,0.0,0.0,0.0,0.0,0.0,0.0,0.0,0.0,0.0,0.0,0.0,0.0,0.0,0.0,0.0,0.0,0.0,0.0,0.0,0.0,0.0,0.0,0.0,0.0,0.0,0.0,0.0,0.0,0.0,0.0,0.0,0.0,0.0,0.0,0.0,0.0,0.0,0.0,0.0,0.0,0.0,0.0,0.0,0.0,0.0,0.0,0.0,0.0,0.0,0.0,0.0,0.0,0.0,0.0,0.0,0.0,0.0,0.0,0.0,0.0,0.0,0.0,0.0,0.0,0.0,0.0,0.0,0.0,0.0,0.0,0.0,0.0,0.0,0.0,0.0,0.0,0.0,0.0,0.0,0.0,0.0,0.0,0.0,0.0,0.0,0.0,0.0,0.0,0.0,0.0,0.0,0.0,0.0,0.0,0.0,0.0,0.0,0.0,0.0,0.0,0.0,0.0,0.0,0.0,0.0,0.0,0.0,0.0,0.0,0.0,0.0,0.0,0.0,0.0,0.0,0.0,0.0,0.0,0.0,0.0,0.0,0.0,0.0,0.0,0.0,0.0,0.0,0.0,0.0,0.0,0.0,0.0,0.0,0.0,0.0,0.0,0.0,0.0,0.0,0.0,0.0,0.0,0.0,0.0,0.0,0.0,0.0,0.0,0.0,0.0,0.0,0.0,0.0,0.0,0.0,0.0,0.0,0.0,0.0,0.0,0.0,0.0,0.0,0.0,0.0,0.0,0.0,0.0,0.0,0.0,0.0,0.0,0.0,0.0,0.0,0.0,0.0,0.0,0.0,0.0,0.0,0.0,0.0,0.0,0.0,0.0,0.0,0.0,0.0,0.0,0.0,0.0,0.0,0.0,0.0,0.0,0.0,0.0,0.0,0.0,0.0,0.0,0.0,0.0,0.0,0.0,0.0,0.0,0.0,0.0,0.0,0.0,0.0,0.0,0.0,0.0,0.0,0.0,0.0,0.0,0.0,0.0,0.0,0.0,0.0,0.0,0.0,0.0,0.0,0.0,0.0,0.0,0.0,0.0,0.0,0.0,0.0,0.0,0.0,0.0,0.0,0.0,0.0,0.0,0.0,0.0,0.0,0.0,0.0,0.0,0.0,0.0,0.0,0.0,0.0,0.0,0.0,0.0,0.0,0.0,0.0,0.0,0.0,0.0,0.0,0.0,0.0,0.0,0.0,0.0,0.0,0.0,0.0,0.0,0.0,0.0,0.0,0.0,0.0,0.0,0.0,0.0,0.0,0.0,0.0,0.0,0.0,0.0,0.0,0.0,0.0,0.0,0.0,0.0,0.0,0.0,0.0,0.0,0.0,0.0,0.0,0.0,0.0,0.0,0.0,0.0,0.0,0.0,0.0,0.0,0.0,0.0,0.0,0.0,0.0,0.0,0.0,0.0,0.0,0.0,0.0,0.0,0.0,0.0,0.0,0.0,0.0,0.0,0.0,0.0,0.0,0.0,0.0,0.0,0.0,0.0,0.0,0.0,0.0,0.0,0.0,0.0,0.0,0.0,0.0,0.0,0.0,0.0,0.0,0.0,0.0,0.0,0.0,0.0,0.0,0.0,0.0,0.0,0.0,0.0,0.0,0.0,0.0,0.0,0.0,0.0,0.0,0.0,0.0,0.0,0.0,0.0,0.0,0.0,0.0,0.0,0.0,0.0,0.0,0.0,0.0,0.0,0.0,0.0,0.0,0.0,0.0,0.0,0.0,0.0,0.0,0.0,0.0,0.0,0.0,0.0,0.0,0.0,0.0,0.0,0.0,0.0,0.0,0.0,0.0,0.0,0.0,0.0,0.0,0.0,0.0,0.0,0.0,0.0,0.0,0.0,0.0,0.0,0.0,0.0,0.0,0.0,0.0,0.0,0.0,0.0,0.0,0.0,0.0,0.0,0.0,0.0,0.0,0.0,0.0,0.0,0.0,0.0,0.0,0.0,0.0,0.0,0.0,0.0,0.0,0.0,0.0,0.0,0.0,0.0,0.0,0.0,0.0,0.0,0.0,0.0,0.0,0.0,0.0,0.0,0.0,0.0,0.0,0.0,0.0,0.0,0.0,0.0,0.0,0.0,0.0,0.0,0.0,0.0,0.0,0.0,0.0,0.0,0.0,0.0,0.0,0.0,0.0,0.0,0.0,0.0,0.0,0.0,0.0,0.0,0.0,0.0,0.0,0.0,0.0,0.0,0.0,0.0,0.0,0.0,0.0,0.0,0.0,0.0,0.0,0.0,0.0,0.0,0.0,0.0,0.0,0.0,0.0,0.0,0.0,0.0,0.0,0.0,0.0,0.0,0.0,0.0,0.0,0.0,0.0,0.0,0.0,0.0,0.0,0.0,0.0,0.0,0.0,0.0,0.0,0.0,0.0,0.0,0.0,0.0,0.0,0.0,0.0,0.0,0.0,0.0,0.0,0.0,0.0,0.0,0.0,0.0,0.0,0.0,0.0,0.0,0.0,0.0,0.0,0.0,0.0,0.0,0.0,0.0,0.0,0.0,0.0,0.0,0.0,0.0,0.0,0.0,0.0,0.0,0.0,0.0,0.0,0.0,0.0,0.0,0.0,0.0,0.0,0.0,0.0,0.0,0.0,0.0,0.0,0.0,0.0,0.0,-0.9914,0.0,0.0,0.0,0.0,0.0,0.0,0.0,0.0,0.0,0.0,0.0,0.0,0.0,0.0,0.0,0.0,0.0,0.0,0.0,0.0,0.0,0.0,0.0,0.0,0.0,0.0,0.0,0.0,0.0,0.0,0.0,0.0,0.0,0.0,0.0,0.0,0.0,0.0,0.0,0.0,0.0,0.0,0.0,0.0,0.0,0.0,0.0,0.0,0.0,0.0,0.0,0.0,0.0,0.0,0.0,0.0,0.0,0.0,0.0,0.0,0.0,0.0,0.0,0.0,0.0,0.0,0.0,0.0,0.0,0.0,0.0,0.0,0.0,0.0,0.0,0.0,0.0,0.0,0.0,0.0,0.0,0.0,0.0,0.0,0.0,0.0,0.0,0.0,0.0,0.0,0.0,0.0,0.0,0.0,0.0,0.0,0.0,0.0,0.0,0.0,0.0,0.0,0.0,0.0,0.0,0.0,0.0,0.0,0.0,0.0,-1.3535,-1.3193,-1.1857,-1.0977,-1.0585,0.0,0.0,0.0,0.0,0.0,0.0,0.0,0.0,0.0,0.0,0.0,0.0,0.0,0.0,0.0,0.0,0.0,0.0,0.0,0.0,0.0,0.0,0.0,0.0,0.0,0.0,0.0,0.0,0.0,0.0,0.0,0.0,0.0,0.0,0.0,0.0,0.0,0.0,0.0,0.0,0.0,0.0,0.0,0.0,0.0,0.0,0.0,0.0,0.0,0.0,0.0,0.0,0.0,0.0,0.0,0.0,0.0,0.0,0.0,0.0,0.0,0.0,0.0,0.0,0.0,0.0,0.0,0.0,0.0,0.0,0.0,0.0,0.0,0.0,0.0,0.0,0.0,0.0,0.0,0.0,0.0,0.0,0.0,0.0,0.0,0.0,0.0,0.0,0.0,0.0,0.0,0.0,0.0,0.0,0.0,0.0,0.0,0.0,0.0,0.0,0.0,0.0,0.0,0.0,0.0,0.0,0.0,0.0,0.0,0.0,0.0,0.0,-1.3244,-1.2431,-1.1554,0.0,0.0,0.0,0.0,0.0,0.0,0.0,0.0,0.0,0.0,0.0,0.0,0.0,0.0,0.0,0.0,0.0,0.0,0.0,0.0,0.0,0.0,0.0,0.0,0.0,0.0,0.0,0.0,0.0,0.0,0.0,0.0,0.0,0.0,0.0,0.0,0.0,0.0,0.0,0.0,0.0,0.0,0.0,0.0,0.0,0.0,0.0,0.0,0.0,0.0,0.0,0.0,0.0,0.0,0.0,0.0,0.0,0.0,0.0,0.0,0.0,0.0,0.0,0.0,0.0,0.0,0.0,0.0,0.0,0.0,0.0,0.0,0.0,0.0,0.0,0.0,0.0,0.0,0.0,0.0,0.0,0.0,0.0,0.0,0.0,0.0,0.0,0.0,0.0,0.0,0.0,0.0,0.0,0.0,0.0,0.0,0.0,0.0,0.0,0.0,0.0,0.0,0.0,0.0,0.0,0.0,0.0,0.0,0.0,0.0,-1.5694,-1.6524,-1.6179,0.0,-1.3483,0.0,0.0,0.0,0.0,0.0,0.0,0.0,0.0,0.0,0.0,0.0,0.0,0.0,0.0,0.0,0.0,0.0,0.0,0.0,0.0,0.0,0.0,0.0,0.0,0.0,0.0,0.0,0.0,0.0,0.0,0.0,0.0,0.0,0.0,0.0,0.0,0.0,0.0,0.0,0.0,0.0,0.0,0.0,0.0,0.0,0.0,0.0,0.0,0.0,0.0,0.0,0.0,0.0,0.0,0.0,0.0,0.0,0.0,0.0,0.0,0.0,0.0,0.0,0.0,0.0,0.0,0.0,0.0,0.0,0.0,0.0,0.0,0.0,0.0,0.0,0.0,0.0,0.0,0.0,0.0,0.0,0.0,0.0,0.0,0.0,0.0,0.0,0.0,0.0,0.0,0.0,0.0,0.0,0.0,0.0,0.0,0.0,0.0,0.0,0.0,0.0,0.0,0.0,0.0,0.0,0.0,0.0,0.0,0.0,0.0,-1.6519,-1.6901,-1.6679,-1.5821,0.0,0.0,0.0,0.0,0.0,0.0,0.0,0.0,0.0,0.0,0.0,0.0,0.0,0.0,0.0,0.0,0.0,0.0,0.0,0.0,0.0,0.0,0.0,0.0,0.0,0.0,0.0,0.0,0.0,0.0,0.0,0.0,0.0,0.0,0.0,0.0,0.0,0.0,0.0,0.0,0.0,0.0,0.0,0.0,0.0,0.0,0.0,0.0,0.0,0.0,0.0,0.0,0.0,0.0,0.0,0.0,0.0,0.0,0.0,0.0,0.0,0.0,0.0,0.0,0.0,0.0,0.0,0.0,0.0,0.0,0.0,0.0,0.0,0.0,0.0,0.0,0.0,0.0,0.0,0.0,0.0,0.0,0.0,0.0,0.0,0.0,0.0,0.0,0.0,0.0,0.0,0.0,0.0,0.0,0.0,0.0,0.0,0.0,0.0,0.0,0.0,0.0,0.0,0.0,0.0,0.0,0.0,0.0,0.0,0.0,-1.7892,-1.7828,-1.8141,-1.7461,-1.6535,-1.5333,0.0,0.0,0.0,0.0,0.0,0.0,0.0,0.0,0.0,0.0,0.0,0.0,0.0,0.0,0.0,0.0,0.0,0.0,0.0,0.0,0.0,0.0,0.0,0.0,0.0,0.0,0.0,0.0,0.0,0.0,0.0,0.0,0.0,0.0,0.0,0.0,0.0,0.0,0.0,0.0,0.0,0.0,0.0,0.0,0.0,0.0,0.0,0.0,0.0,0.0,0.0,0.0,0.0,0.0,0.0,0.0,0.0,0.0,0.0,0.0,0.0,0.0,0.0,0.0,0.0,0.0,0.0,0.0,0.0,0.0,0.0,0.0,0.0,0.0,0.0,0.0,0.0,0.0,0.0,0.0,0.0,0.0,0.0,0.0,0.0,0.0,0.0,0.0,0.0,0.0,0.0,0.0,0.0,0.0,0.0,0.0,0.0,0.0,0.0,0.0,0.0,0.0,0.0,0.0,0.0,0.0,0.0,0.0,-2.2441,-2.0362,-1.9917,-2.1344,-1.9416,-1.7782,0.0,0.0,0.0,0.0,0.0,0.0,0.0,0.0,0.0,0.0,0.0,0.0,0.0,0.0,0.0,0.0,0.0,0.0,0.0,0.0,0.0,0.0,0.0,0.0,0.0,0.0,0.0,0.0,0.0,0.0,0.0,0.0,0.0,0.0,0.0,0.0,0.0,0.0,0.0,0.0,0.0,0.0,0.0,0.0,0.0,0.0,0.0,0.0,0.0,0.0,0.0,0.0,0.0,0.0,0.0,0.0,0.0,0.0,0.0,0.0,0.0,0.0,0.0,0.0,0.0,0.0,0.0,0.0,0.0,0.0,0.0,0.0,0.0,0.0,0.0,0.0,0.0,0.0,0.0,0.0,0.0,0.0,0.0,0.0,0.0,0.0,0.0,0.0,0.0,0.0,0.0,0.0,0.0,0.0,0.0,0.0,0.0,0.0,0.0,0.0,0.0,0.0,0.0,0.0,0.0,0.0,0.0,0.0,0.0,-1.8185,-1.8347,-1.9954,-2.2988,-2.0312,-1.8769,0.0,0.0,0.0,0.0,0.0,0.0,0.0,0.0,0.0,0.0,0.0,0.0,0.0,0.0,0.0,0.0,0.0,0.0,0.0,0.0,0.0,0.0,0.0,0.0,0.0,0.0,0.0,0.0,0.0,0.0,0.0,0.0,0.0,0.0,0.0,0.0,0.0,0.0,0.0,0.0,0.0,0.0,0.0,0.0,0.0,0.0,0.0,0.0,0.0,0.0,0.0,0.0,0.0,0.0,0.0,0.0,0.0,0.0,0.0,0.0,0.0,0.0,0.0,0.0,0.0,0.0,0.0,0.0,0.0,0.0,0.0,0.0,0.0,0.0,0.0,0.0,0.0,0.0,0.0,0.0,0.0,0.0,0.0,0.0,0.0,0.0,0.0,0.0,0.0,0.0,0.0,0.0,0.0,0.0,0.0,0.0,0.0,0.0,0.0,0.0,0.0,0.0,0.0,0.0,0.0,0.0,0.0,0.0,0.0,-1.8289,0.0,-2.2517,-2.3985,-2.1635,-1.9817,0.0,0.0,0.0,0.0,0.0,0.0,0.0,0.0,0.0,0.0,0.0,0.0,0.0,0.0,0.0,0.0,0.0,0.0,0.0,0.0,0.0,0.0,0.0,0.0,0.0,0.0,0.0,0.0,0.0,0.0,0.0,0.0,0.0,0.0,0.0,0.0,0.0,0.0,0.0,0.0,0.0,0.0,0.0,0.0,0.0,0.0,0.0,0.0,0.0,0.0,0.0,0.0,0.0,0.0,0.0,0.0,0.0,0.0,0.0,0.0,0.0,0.0,0.0,0.0,0.0,0.0,0.0,0.0,0.0,0.0,0.0,0.0,0.0,0.0,0.0,0.0,0.0,0.0,0.0,0.0,0.0,0.0,0.0,0.0,0.0,0.0,0.0,0.0,0.0,0.0,0.0,0.0,0.0,0.0,0.0,0.0,0.0,0.0,0.0,0.0,0.0,0.0,0.0,0.0,0.0,0.0,0.0,0.0,-1.9138,-2.3831,-2.7266,-2.7437,-2.4574,-2.3406,-2.0793,0.0,0.0,0.0,0.0,0.0,0.0,0.0,0.0,0.0,0.0,0.0,0.0,0.0,0.0,0.0,0.0,0.0,0.0,0.0,0.0,0.0,0.0,0.0,0.0,0.0,0.0,0.0,0.0,0.0,0.0,0.0,0.0,0.0,0.0,0.0,0.0,0.0,0.0,0.0,0.0,0.0,0.0,0.0,0.0,0.0,0.0,0.0,0.0,0.0,0.0,0.0,0.0,0.0,0.0,0.0,0.0,0.0,0.0,0.0,0.0,0.0,0.0,0.0,0.0,0.0,0.0,0.0,0.0,0.0,0.0,0.0,0.0,0.0,0.0,0.0,0.0,0.0,0.0,0.0,0.0,0.0,0.0,0.0,0.0,0.0,0.0,0.0,0.0,0.0,0.0,0.0,0.0,0.0,0.0,0.0,0.0,0.0,0.0,0.0,0.0,0.0,0.0,0.0,0.0,0.0,0.0,0.0,0.0,0.0,-2.265,-2.4746,-2.6674,-2.8153,-2.3839,-2.162,0.0,0.0,0.0,0.0,0.0,0.0,0.0,0.0,0.0,0.0,0.0,0.0,0.0,0.0,0.0,0.0,0.0,0.0,0.0,0.0,0.0,0.0,0.0,0.0,0.0,0.0,0.0,0.0,0.0,0.0,0.0,0.0,0.0,0.0,0.0,0.0,0.0,0.0,0.0,0.0,0.0,0.0,0.0,0.0,0.0,0.0,0.0,0.0,0.0,0.0,0.0,0.0,0.0,0.0,0.0,0.0,0.0,0.0,0.0,0.0,0.0,0.0,0.0,0.0,0.0,0.0,0.0,0.0,0.0,0.0,0.0,0.0,0.0,0.0,0.0,0.0,0.0,0.0,0.0,0.0,0.0,0.0,0.0,0.0,0.0,0.0,0.0,0.0,0.0,0.0,0.0,0.0,0.0,0.0,0.0,0.0,0.0,0.0,0.0,0.0,0.0,0.0,0.0,0.0,0.0,0.0,0.0,0.0,0.0,-2.6277,-2.7278,-2.8517,-2.9917,-2.5499,-2.3244,-2.3386,0.0,0.0,0.0,0.0,0.0,0.0,0.0,0.0,0.0,0.0,0.0,0.0,0.0,0.0,0.0,0.0,0.0,0.0,0.0,0.0,0.0,0.0,0.0,0.0,0.0,0.0,0.0,0.0,0.0,0.0,0.0,0.0,0.0,0.0,0.0,0.0,0.0,0.0,0.0,0.0,0.0,0.0,0.0,0.0,0.0,0.0,0.0,0.0,0.0,0.0,0.0,0.0,0.0,0.0,0.0,0.0,0.0,0.0,0.0,0.0,0.0,0.0,0.0,0.0,0.0,0.0,0.0,0.0,0.0,0.0,0.0,0.0,0.0,0.0,0.0,0.0,0.0,0.0,0.0,0.0,0.0,0.0,0.0,0.0,0.0,0.0,0.0,0.0,0.0,0.0,0.0,0.0,0.0,0.0,0.0,0.0,0.0,0.0,0.0,0.0,0.0,0.0,0.0,0.0,0.0,0.0,0.0,0.0,-3.3538,-3.4098,-3.2964,-3.0122,-2.8299,-2.5615,0.0,0.0,0.0,0.0,0.0,0.0,0.0,0.0,0.0,0.0,0.0,0.0,0.0,0.0,0.0,0.0,0.0,0.0,0.0,0.0,0.0,0.0,0.0,0.0,0.0,0.0,0.0,0.0,0.0,0.0,0.0,0.0,0.0,0.0,0.0,0.0,0.0,0.0,0.0,0.0,0.0,0.0,0.0,0.0,0.0,0.0,0.0,0.0,0.0,0.0,0.0,0.0,0.0,0.0,0.0,0.0,0.0,0.0,0.0,0.0,0.0,0.0,0.0,0.0,0.0,0.0,0.0,0.0,0.0,0.0,0.0,0.0,0.0,0.0,0.0,0.0,0.0,0.0,0.0,0.0,0.0,0.0,0.0,0.0,0.0,0.0,0.0,0.0,0.0,0.0,0.0,0.0,0.0,0.0,0.0,0.0,0.0,0.0,0.0,0.0,0.0,0.0,0.0,0.0,0.0,0.0,0.0,0.0,0.0,-3.546,-3.7676,-3.7736,-3.5497,-3.1529,-2.8458,0.0,0.0,0.0,0.0,0.0,0.0,0.0,0.0,0.0,0.0,0.0,0.0,0.0,0.0,0.0,0.0,0.0,0.0,0.0,0.0,0.0,0.0,0.0,0.0,0.0,0.0,0.0,0.0,0.0,0.0,0.0,0.0,0.0,0.0,0.0,0.0,0.0,0.0,0.0,0.0,0.0,0.0,0.0,0.0,0.0,0.0,0.0,0.0,0.0,0.0,0.0,0.0,0.0,0.0,0.0,0.0,0.0,0.0,0.0,0.0,0.0,0.0,0.0,0.0,0.0,0.0,0.0,0.0,0.0,0.0,0.0,0.0,0.0,0.0,0.0,0.0,0.0,0.0,0.0,0.0,0.0,0.0,0.0,0.0,0.0,0.0,0.0,0.0,0.0,0.0,0.0,0.0,0.0,0.0,0.0,0.0,0.0,0.0,0.0,0.0,0.0,0.0,0.0,0.0,0.0,0.0,0.0,0.0,-3.5493,-3.9013,-4.1421,-4.1905,-4.047,-3.5809,-3.1808,0.0,0.0,0.0,0.0,0.0,0.0,0.0,0.0,0.0,0.0,0.0,0.0,0.0,0.0,0.0,0.0,0.0,0.0,0.0,0.0,0.0,0.0,0.0,0.0,0.0,0.0,0.0,0.0,0.0,0.0,0.0,0.0,0.0,0.0,0.0,0.0,0.0,0.0,0.0,0.0,0.0,0.0,0.0,0.0,0.0,0.0,0.0,0.0,0.0,0.0,0.0,0.0,0.0,0.0,0.0,0.0,0.0,0.0,0.0,0.0,0.0,0.0,0.0,0.0,0.0,0.0,0.0,0.0,0.0,0.0,0.0,0.0,0.0,0.0,0.0,0.0,0.0,0.0,0.0,0.0,0.0,0.0,0.0,0.0,0.0,0.0,0.0,0.0,0.0,0.0,0.0,0.0,0.0,0.0,0.0,0.0,0.0,0.0,0.0,0.0,0.0,0.0,0.0,0.0,0.0,0.0,0.0,0.0,-3.8351,-4.2849,-4.4784,-4.5324,-4.4464,-4.0291,-3.5359,0.0,0.0,0.0,0.0,0.0,0.0,0.0,0.0,0.0,0.0,0.0,0.0,0.0,0.0,0.0,0.0,0.0,0.0,0.0,0.0,0.0,0.0,0.0,0.0,0.0,0.0,0.0,0.0,0.0,0.0,0.0,0.0,0.0,0.0,0.0,0.0,0.0,0.0,0.0,0.0,0.0,0.0,0.0,0.0,0.0,0.0,0.0,0.0,0.0,0.0,0.0,0.0,0.0,0.0,0.0,0.0,0.0,0.0,0.0,0.0,0.0,0.0,0.0,0.0,0.0,0.0,0.0,0.0,0.0,0.0,0.0,0.0,0.0,0.0,0.0,0.0,0.0,0.0,0.0,0.0,0.0,0.0,0.0,0.0,0.0,0.0,0.0,0.0,0.0,0.0,0.0,0.0,0.0,0.0,0.0,0.0,0.0,0.0,0.0,0.0,0.0,0.0,0.0,0.0,0.0,0.0,0.0,0.0,-4.0114,-4.3287,-4.5679,-4.655,-4.5938,-4.237,-3.7941,0.0,0.0,0.0,0.0,0.0,0.0,0.0,0.0,0.0,0.0,0.0,0.0,0.0,0.0,0.0,0.0,0.0,0.0,0.0,0.0,0.0,0.0,0.0,0.0,0.0,0.0,0.0,0.0,0.0,0.0,0.0,0.0,0.0,0.0,0.0,0.0,0.0,0.0,0.0,0.0,0.0,0.0,0.0,0.0,0.0,0.0,0.0,0.0,0.2108,0.0,0.0,0.0,0.0,0.0,0.0,0.0,0.0,0.0,0.0,0.0,0.0,0.0,0.0,0.0,0.0,0.0,0.0,0.0,0.0,0.0,0.0,0.0,0.0,0.0,0.0,0.0,0.0,0.0,0.0,0.0,0.0,0.0,0.0,0.0,0.0,0.0,0.0,0.0,0.0,0.0,0.0,0.0,0.0,0.0,0.0,0.0,0.0,0.0,0.0,0.0,0.0,0.0,0.0,0.0,0.0,0.0,0.0,0.0,-4.2111,-4.4762,-4.6673,-4.7337,-4.6723,-4.4719,-4.065,0.0,0.0,0.0,0.0,0.0,0.0,0.0,0.0,0.0,0.0,0.0,0.0,0.0,0.0,0.0,0.0,0.0,0.0,0.0,0.0,0.0,0.0,0.0,0.0,0.0,0.0,0.0,0.0,0.0,0.0,0.0,0.0,0.0,0.0,0.0,0.0,0.0,0.0,0.0,0.0,0.0,0.0,0.0,0.0,0.0,0.0,0.0,0.0,0.0,0.0,0.0,0.0,0.0,0.0,0.0,0.0,0.0,0.0,0.0,0.0,0.0,0.0,0.0,0.0,0.0,0.0,0.0,0.0,0.0,0.0,0.0,0.0,0.0,0.0,0.0,0.0,0.0,0.0,0.0,0.0,0.0,0.0,0.0,0.0,0.0,0.0,0.0,0.0,0.0,0.0,0.0,0.0,0.0,0.0,0.0,0.0,0.0,0.0,0.0,0.0,0.0,0.0,0.0,0.0,0.0,0.0,0.0,-3.9789,-4.3638,-4.6335,-4.7544,-4.7825,-4.7235,-4.6616,-4.2898,-3.5818,0.0,0.0,0.0,0.0,0.0,0.0,0.0,0.0,0.0,0.0,0.0,0.0,0.0,0.0,0.0,0.0,0.0,0.0,0.0,0.0,0.0,0.0,0.0,0.0,0.0,0.0,0.0,0.0,0.0,0.0,0.0,0.0,0.0,0.0,0.0,0.0,0.0,0.0,-0.303,-0.2965,0.0,0.0,0.0,0.0,0.0,0.0,0.0,0.0,-0.0366,0.0,0.0,0.0,0.0,0.0,0.0,0.0,0.0,0.0,0.0,0.0,0.0,0.0,0.0,0.0,0.0,0.0,0.0,0.0,0.0,0.0,0.0,0.0,0.0,0.0,0.0,0.0,0.0,0.0,0.0,0.0,0.0,0.0,0.0,0.0,0.0,0.0,0.0,0.0,0.0,0.0,0.0,0.0,0.0,0.0,0.0,0.0,0.0,0.0,0.0,0.0,0.0,0.0,0.0,0.0,0.0,-3.9424,-4.0547,-4.2964,-4.6954,-4.774,-4.7825,-4.7235,-4.6616,-4.3174,-3.6681,0.0,0.0,0.0,0.0,0.0,0.0,0.0,0.0,0.0,0.0,0.0,0.0,0.0,0.0,0.0,0.0,0.0,0.0,0.0,0.0,0.0,0.0,0.0,0.0,0.0,0.0,0.0,0.0,0.0,0.0,0.0,0.0,0.0,0.0,0.0,0.0,0.0,0.0,0.0,-0.3534,-0.3574,0.0,0.0,0.0,0.0,0.0,0.0,0.0,0.0,-0.0921,0.0,0.0,0.0,0.0,0.0,0.0,0.0,0.0,0.0,0.0,0.0,0.0,0.0,0.0,0.0,0.0,0.0,0.0,0.0,0.0,0.0,0.0,0.0,0.0,0.0,0.0,0.0,0.0,0.0,0.0,0.0,0.0,0.0,0.0,0.0,0.0,0.0,0.0,0.0,0.0,0.0,0.0,0.0,0.0,0.0,0.0,0.0,0.0,0.0,0.0,0.0,0.0,0.0,0.0,0.0,-3.8608,-4.1952,-4.4762,-4.7122,-4.7746,-4.7684,-4.6729,-4.4874,-4.1515,0.0,0.0,0.0,0.0,0.0,0.0,0.0,0.0,0.0,0.0,0.0,0.0,0.0,0.0,0.0,0.0,0.0,0.0,0.0,0.0,0.0,0.0,0.0,0.0,0.0,0.0,0.0,0.0,0.0,0.0,0.0,0.0,0.0,0.0,0.0,0.0,0.0,0.0,0.0,0.0,-0.5494,-0.5951,-0.7066,0.0,0.0,0.0,0.0,0.0,0.0,-0.3146,-0.2501,0.0,0.0,0.0,0.0,0.0,0.0,0.0,0.0,0.0,0.0,0.0,0.0,0.0,0.0,0.0,0.0,0.0,0.0,0.0,0.0,0.0,0.0,0.0,0.0,0.0,0.0,0.0,0.0,0.0,0.0,0.0,0.0,0.0,0.0,0.0,0.0,0.0,0.0,0.0,0.0,0.0,0.0,0.0,0.0,0.0,0.0,0.0,0.0,0.0,0.0,0.0,0.0,0.0,0.0,0.0,-3.7636,-4.3008,-4.6381,-4.7567,-4.7963,-4.7624,-4.6474,-4.3589,-4.0154,0.0,0.0,0.0,0.0,0.0,0.0,0.0,0.0,0.0,0.0,0.0,0.0,0.0,0.0,0.0,0.0,0.0,0.0,0.0,0.0,0.0,0.0,0.0,0.0,0.0,0.0,0.0,0.0,0.0,0.0,0.0,0.0,0.0,0.0,0.0,0.0,0.0,0.0,0.0,0.0,0.0,-0.8332,-0.954,-0.8282,0.0,0.0,0.0,0.0,-0.5206,-0.4881,0.0,0.0,0.0,0.0,0.0,0.0,0.0,0.0,0.0,0.0,0.0,0.0,0.0,0.0,0.0,0.0,0.0,0.0,0.0,0.0,0.0,0.0,0.0,0.0,0.0,0.0,0.0,0.0,0.0,0.0,0.0,0.0,0.0,0.0,0.0,0.0,0.0,0.0,0.0,0.0,0.0,0.0,0.0,0.0,0.0,0.0,0.0,0.0,0.0,0.0,0.0,0.0,0.0,0.0,0.0,0.0,-3.9477,-4.2509,-4.5631,-4.8833,-4.8546,-4.7923,-4.7186,-4.4638,-4.1015,0.0,0.0,0.0,0.0,0.0,0.0,0.0,0.0,0.0,0.0,0.0,0.0,0.0,0.0,0.0,0.0,0.0,0.0,0.0,0.0,0.0,0.0,0.0,0.0,0.0,0.0,0.0,0.0,0.0,0.0,0.0,0.0,0.0,0.0,0.0,0.0,0.0,0.0,0.0,0.0,0.0,-0.9229,-0.9133,-0.8517,-0.8468,0.0,0.0,-0.7759,-0.8369,-0.7996,0.0,0.0,0.0,0.0,0.0,0.0,0.0,0.0,0.0,0.0,0.0,0.0,0.0,0.0,0.0,0.0,0.0,0.0,0.0,0.0,0.0,0.0,0.0,0.0,0.0,0.0,0.0,0.0,0.0,0.0,0.0,0.0,0.0,0.0,0.0,0.0,0.0,0.0,0.0,0.0,0.0,0.0,0.0,0.0,0.0,0.0,0.0,0.0,0.0,0.0,0.0,0.0,0.0,0.0,0.0,-3.4981,-4.0305,-4.4381,-4.7583,-4.9785,-4.9289,-4.8599,-4.7987,-4.4081,-3.9989,0.0,0.0,0.0,0.0,0.0,0.0,0.0,0.0,0.0,0.0,0.0,0.0,0.0,0.0,0.0,0.0,0.0,0.0,0.0,0.0,0.0,0.0,0.0,0.0,0.0,0.0,0.0,0.0,0.0,0.0,0.0,0.0,0.0,0.0,0.0,0.0,0.0,0.0,0.0,0.0,0.0,0.0,-1.2409,-1.1936,0.0,0.0,0.0,-1.0244,-1.0214,0.0,0.0,0.0,0.0,0.0,0.0,0.0,0.0,0.0,0.0,0.0,0.0,0.0,0.0,0.0,0.0,0.0,0.0,0.0,0.0,0.0,0.0,0.0,0.0,0.0,0.0,0.0,0.0,0.0,0.0,0.0,0.0,0.0,0.0,0.0,0.0,0.0,0.0,0.0,0.0,0.0,0.0,0.0,0.0,0.0,0.0,0.0,0.0,0.0,0.0,0.0,0.0,0.0,0.0,0.0,0.0,0.0,-4.0982,-4.6146,-4.9393,-5.0609,-4.9897,-4.9215,-4.8682,-4.3874,0.0,0.0,0.0,0.0,0.0,0.0,0.0,0.0,0.0,0.0,0.0,0.0,0.0,0.0,0.0,0.0,0.0,0.0,0.0,0.0,0.0,0.0,0.0,0.0,0.0,0.0,0.0,-0.8772,0.0,0.0,0.0,0.0,0.0,0.0,0.0,0.0,0.0,0.0,0.0,0.0,0.0,0.0,-1.347,-1.4908,-1.461,-1.429,0.0,0.0,-1.2493,-1.2195,-1.231,-1.131,0.0,0.0,0.0,0.0,0.0,0.0,0.0,0.0,0.0,0.0,0.0,0.0,0.0,0.0,0.0,0.0,0.0,0.0,0.0,0.0,0.0,0.0,0.0,0.0,0.0,0.0,0.0,0.0,0.0,0.0,0.0,0.0,0.0,0.0,0.0,0.0,0.0,0.0,0.0,0.0,0.0,0.0,0.0,0.0,0.0,0.0,0.0,0.0,0.0,0.0,0.0,0.0,0.0,0.0,-3.7168,-4.1798,-4.6912,-5.0171,-5.1435,-5.0231,-4.9538,-4.9359,-4.4911,-4.0829,0.0,0.0,0.0,0.0,0.0,0.0,0.0,0.0,0.0,0.0,0.0,0.0,0.0,0.0,0.0,0.0,0.0,0.0,0.0,0.0,0.0,0.0,0.0,0.0,0.0,0.0,0.0,0.0,0.0,0.0,0.0,0.0,0.0,0.0,0.0,0.0,0.0,0.0,0.0,0.0,0.0,-1.4463,-1.4767,-1.4774,-1.5303,0.0,-1.5574,-1.4474,-1.496,-1.4782,-1.3243,-0.9044,0.0,0.0,0.0,0.0,0.0,0.0,0.0,0.0,0.0,0.0,0.0,0.0,0.0,0.0,0.0,0.0,0.0,0.0,0.0,0.0,0.0,0.0,0.0,0.0,0.0,0.0,0.0,0.0,0.0,0.0,0.0,0.0,0.0,0.0,0.0,0.0,0.0,0.0,0.0,0.0,0.0,0.0,0.0,0.0,0.0,0.0,0.0,0.0,0.0,0.0,0.0,0.0,0.0,-3.7812,-4.2316,-4.7598,-5.0703,-5.1589,-5.0764,-5.0062,-4.9634,-4.6275,-4.2569,0.0,0.0,0.0,0.0,0.0,0.0,0.0,0.0,0.0,0.0,0.0,0.0,0.0,0.0,0.0,0.0,0.0,0.0,0.0,0.0,0.0,0.0,0.0,0.0,0.0,0.0,0.0,0.0,-1.186,-1.1798,-1.0898,0.0,0.0,0.0,0.0,0.0,0.0,0.0,0.0,0.0,0.0,-1.6222,-1.6772,-1.7206,0.0,0.0,-1.7406,-1.6942,-1.665,-1.6254,-1.5008,-1.2042,-1.105,0.0,0.0,0.0,0.0,0.0,0.0,0.0,0.0,0.0,0.0,0.0,0.0,0.0,0.0,0.0,0.0,0.0,0.0,0.0,0.0,0.0,0.0,0.0,0.0,0.0,0.0,0.0,0.0,0.0,0.0,0.0,0.0,0.0,0.0,0.0,0.0,0.0,0.0,0.0,0.0,0.0,0.0,0.0,0.0,0.0,0.0,0.0,0.0,0.0,0.0,0.0,0.0,-3.8277,-4.2571,-4.7742,-5.0728,-5.1374,-5.0944,-5.0482,-4.9959,-4.7527,-4.4327,0.0,0.0,0.0,0.0,0.0,0.0,0.0,0.0,0.0,0.0,0.0,0.0,0.0,0.0,0.0,0.0,0.0,0.0,0.0,0.0,0.0,0.0,0.0,0.0,0.0,0.0,0.0,0.0,-1.3162,-1.286,-1.1863,0.0,0.0,0.0,0.0,0.0,0.0,0.0,0.0,0.0,0.0,-1.8692,-1.8828,-1.9319,-1.9368,-1.8519,-1.826,-1.7937,-1.7487,-1.7098,-1.6128,-1.3839,0.0,0.0,0.0,0.0,0.0,0.0,0.0,0.0,0.0,0.0,0.0,0.0,0.0,0.0,0.0,0.0,0.0,0.0,0.0,0.0,0.0,0.0,0.0,0.0,0.0,0.0,0.0,-2.2243,0.0,0.0,-2.0381,0.0,0.0,0.0,0.0,0.0,0.0,0.0,0.0,0.0,0.0,0.0,0.0,0.0,0.0,0.0,0.0,0.0,0.0,0.0,0.0,0.0,0.0,-3.8539,-4.2571,-4.7311,-5.0051,-5.0697,-5.0697,-5.0667,-5.0574,-4.8635,-4.6036,-4.2902,0.0,0.0,0.0,0.0,0.0,0.0,0.0,0.0,0.0,0.0,0.0,0.0,0.0,0.0,0.0,0.0,0.0,0.0,0.0,0.0,0.0,0.0,0.0,0.0,0.0,0.0,-1.3899,-1.363,-1.3161,0.0,0.0,0.0,0.0,0.0,0.0,0.0,0.0,0.0,-1.9434,-2.1272,-2.1957,-2.0747,-2.068,-2.0311,-1.889,-1.7773,-1.7141,-1.7433,-1.7356,-1.6487,0.0,0.0,0.0,0.0,0.0,0.0,0.0,0.0,0.0,0.0,0.0,0.0,0.0,0.0,0.0,0.0,0.0,0.0,0.0,0.0,0.0,0.0,0.0,0.0,0.0,0.0,0.0,-3.0471,-2.821,0.0,0.0,0.0,0.0,0.0,0.0,0.0,0.0,0.0,0.0,0.0,-3.8877,-3.9801,0.0,0.0,0.0,0.0,0.0,0.0,0.0,0.0,0.0,0.0,0.0,0.0,-3.897,-4.2633,-4.7281,-4.9805,-5.002,-5.002,-4.9805,-4.9312,-4.8204,-4.5524,-4.114,0.0,0.0,0.0,0.0,0.0,0.0,0.0,0.0,0.0,0.0,0.0,0.0,0.0,0.0,0.0,0.0,0.0,0.0,0.0,0.0,0.0,0.0,0.0,0.0,0.0,-1.551,0.0,0.0,0.0,0.0,0.0,0.0,0.0,0.0,0.0,0.0,0.0,-2.0161,-2.1482,-2.2701,-2.3372,-2.3149,-2.266,-2.2005,0.0,0.0,0.0,0.0,0.0,0.0,0.0,0.0,0.0,0.0,0.0,0.0,0.0,0.0,-1.6108,-1.2292,-1.1086,-1.0607,-1.0434,0.0,0.0,0.0,0.0,0.0,0.0,0.0,0.0,0.0,0.0,0.0,0.0,0.0,0.0,-3.6208,-3.4424,-3.3214,0.0,0.0,0.0,0.0,0.0,0.0,0.0,0.0,-4.0707,-4.3043,-4.4532,-4.5217,-4.4825,-4.3561,-4.2664,-3.9537,0.0,0.0,0.0,0.0,0.0,0.0,0.0,0.0,-3.9862,-4.3279,-4.725,-4.9312,-4.9343,-4.9558,-4.9466,-4.9004,-4.8327,-4.6054,-4.2059,-3.966,-3.6863,0.0,0.0,0.0,0.0,0.0,0.0,0.0,0.0,0.0,0.0,0.0,0.0,0.0,0.0,0.0,0.0,0.0,0.0,0.0,0.0,0.0,0.0,0.0,-1.7079,0.0,0.0,0.0,0.0,0.0,0.0,0.0,0.0,0.0,-1.9953,-2.1618,-2.3448,-2.4875,-2.5636,-2.5951,-2.5686,0.0,0.0,0.0,0.0,0.0,0.0,0.0,-1.8106,-1.8452,-1.8173,-1.7602,-1.6855,-1.7676,-1.8315,-1.8006,0.0,0.0,-1.5336,-1.4061,-1.364,-1.3506,-1.3557,-1.3658,-1.3727,-1.4249,-1.4588,0.0,0.0,0.0,0.0,-3.8986,0.0,0.0,0.0,-4.1762,-4.1204,0.0,-3.9175,0.0,0.0,0.0,0.0,-3.3661,-3.8059,0.0,0.0,-4.8333,-5.0603,-5.0105,-5.0643,-5.0434,-4.9425,-4.9269,-4.7364,-4.3513,-3.7154,0.0,0.0,0.0,0.0,0.0,0.0,-4.1278,-4.4579,-4.7281,-4.8666,-4.8666,-4.9281,-4.962,-4.962,-4.8974,-4.765,-4.5711,-4.3876,-4.1189,-3.7309,-3.3739,0.0,0.0,0.0,0.0,0.0,0.0,0.0,0.0,0.0,0.0,0.0,0.0,0.0,0.0,0.0,0.0,0.0,0.0,0.0,0.0,-1.8656,0.0,0.0,0.0,0.0,0.0,0.0,0.0,0.0,0.0,-2.5538,-2.3194,-2.4815,-2.7093,-2.9509,0.0,0.0,0.0,0.0,-2.5387,-2.2969,-2.1732,-2.0797,-1.9935,-2.0129,-2.0195,-1.983,0.0,0.0,-1.9757,-2.0511,-2.0985,-2.0102,-2.0684,-2.1082,-2.0262,-1.8208,-1.6865,-1.6936,-1.6332,-1.5876,-1.6131,-1.7133,-1.7902,-5.2046,0.0,0.0,0.0,0.0,-4.7073,-4.8748,-5.1733,-5.1157,-4.9403,-4.6889,-4.5727,0.0,0.0,0.0,0.0,0.0,0.0,-4.4126,-4.7305,-4.9353,-5.096,-5.2226,-5.1869,-5.1828,-5.1978,-5.1442,-5.0394,-4.8804,-4.6084,-4.1131,-3.4197,0.0,0.0,0.0,0.0,-4.3408,-4.5311,-4.7989,-4.9127,-4.8635,-4.882,-4.8912,-4.8912,-4.8727,-4.8112,-4.7034,-4.6054,-4.4236,-4.131,-3.8012,0.0,0.0,0.0,0.0,0.0,0.0,0.0,0.0,0.0,0.0,0.0,0.0,0.0,0.0,0.0,0.0,0.0,0.0,0.0,-2.0289,-2.0463,-2.1065,0.0,0.0,0.0,0.0,0.0,0.0,0.0,0.0,0.0,-2.8595,-2.8668,-2.9021,0.0,0.0,-2.9338,-2.8925,-2.8105,-2.7389,-2.7037,-2.5042,0.0,-2.3365,-2.1667,-2.0516,-2.0894,-2.109,-2.129,-2.1497,-2.1682,-2.1685,-2.1465,-2.1577,-2.1696,-2.1513,-2.0676,-1.9907,-1.9813,-1.9813,-1.9851,-2.0013,-2.0421,-2.0619,-5.9116,-5.446,-5.1908,-5.1804,-5.3291,-5.3041,-5.4478,-5.6944,-5.6642,-5.5478,-5.3658,-5.2438,-4.9619,-4.5627,-4.3338,0.0,0.0,0.0,-4.8391,-5.1482,-5.166,-5.2685,-5.4259,-5.3629,-5.3487,-5.3702,-5.3003,-5.239,-5.1805,-5.1029,-4.7334,-4.1026,0.0,-4.0349,-3.9835,-4.31,-4.5434,-4.6819,-4.8943,-4.9866,-4.9435,-4.9189,-4.8912,-4.8604,-4.8604,-4.8419,-4.8019,-4.7619,-4.6453,-4.4433,-4.1541,-3.797,0.0,0.0,0.0,0.0,0.0,0.0,0.0,0.0,0.0,0.0,0.0,-2.0617,-1.7716,0.0,0.0,0.0,-2.0587,-2.2253,-2.4205,-2.4357,0.0,0.0,0.0,0.0,0.0,0.0,0.0,-2.9505,-3.0607,-3.1498,-3.2021,-3.1684,-3.1484,-3.1665,-3.1096,-3.0685,-3.0891,0.0,-2.9444,-2.9234,-2.7218,-2.5507,-2.5079,-2.3117,-2.1767,-2.2368,-2.2313,-2.235,-2.2677,-2.2507,-2.2245,-2.2256,-2.2256,-2.2256,-2.2266,-2.2029,-2.176,-2.1534,-2.1696,-2.1922,-2.2019,-2.2159,-2.2075,-6.4462,-6.3358,-5.8461,-5.684,-5.7426,-5.7357,-5.8116,-5.9357,-5.9323,-5.9633,-6.0082,-5.8565,-5.6748,-5.4532,-5.1026,0.0,-5.1005,-5.1692,-5.3217,-5.5424,-5.4875,-5.5234,-5.6303,-5.5781,-5.5369,-5.4966,-5.4291,-5.3757,-5.3385,-5.3076,-5.1694,-4.9328,-4.6632,-4.5148,-4.4987,-4.6251,-4.7506,-4.8696,-4.9959,-5.0605,-5.0605,-4.9959,-4.9312,-4.8727,-4.8604,-4.8512,-4.8501,-4.8481,-4.7865,-4.6603,-4.4281,-4.1006,-3.673,0.0,0.0,0.0,0.0,0.0,0.0,0.0,0.0,0.0,0.0,0.0,0.0,0.0,0.0,-2.3647,-2.5103,0.0,-2.925,-2.9489,0.0,0.0,0.0,-3.0641,-3.1058,-3.2235,-3.3144,-3.3378,0.0,0.0,-3.4055,-3.4066,-3.4198,-3.4605,-3.3511,-3.2837,-3.3241,-3.2308,-3.1283,-3.03,-2.8753,-2.7165,-2.6156,-2.4492,-2.3492,-2.3857,-2.3874,-2.3563,-2.3447,-2.3084,-2.2762,-2.2654,-2.2675,-2.2675,-2.2675,-2.2632,-2.2622,-2.2363,-2.2342,-2.2417,-2.2579,-2.2632,-2.2632,-6.6014,-6.5221,-6.3979,-6.3186,-6.2772,-6.222,-6.2186,-6.2461,-6.191,-6.1116,-6.0185,-5.9806,-5.8595,-5.679,-5.5466,-5.5032,-5.5246,-5.5412,-5.5928,-5.6729,-5.6578,-5.6716,-5.6996,-5.6844,-5.6729,-5.6619,-5.6453,-5.6078,-5.5527,-5.5165,-5.4148,-5.262,-5.1584,-4.9846,-4.759,-4.8764,-4.9399,-4.9435,-4.9743,-4.9928,-4.9928,-4.9251,-4.9035,-4.9404,-4.8389,-4.7835,-4.7835,-4.7342,-4.6911,-4.6573,-4.4588,-4.2334,-3.9823,-3.5031,0.0,0.0,0.0,0.0,0.0,0.0,0.0,0.0,0.0,-2.748,-2.2773,0.0,-2.7777,0.0,-2.9068,-3.069,-3.2206,-3.2204,0.0,0.0,-3.4747,-3.4647,-3.6874,-3.557,-3.4785,-3.58,-3.5463,-3.543,-3.6036,-3.5852,-3.5815,-3.6158,-3.4138,-3.2733,-3.282,-3.2598,-3.248,-3.2322,-3.1136,-2.9916,-2.8261,-2.5744,-2.4057,-2.4628,-2.417,-2.3778,-2.3932,-2.3548,-2.3117,-2.2772,-2.2686,-2.2686,-2.2686,-2.2686,-2.2665,-2.2611,-2.26,-2.2611,-2.2675,-2.2686,-2.2686,-6.7256,-6.6876,-6.6876,-6.6428,-6.5669,-6.4945,-6.4393,-6.4048,-6.3634,-6.2806,-6.1668,-6.1358,-6.0489,-5.9232,-5.8942,-5.8646,-5.8312,-5.801,-5.795,-5.81,-5.7469,-5.7189,-5.7185,-5.692,-5.6652,-5.6381,-5.6381,-5.6224,-5.5901,-5.5661,-5.5183,-5.4429,-5.4048,-5.2869,-5.1004,-5.134,-5.11,-5.0143,-5.0143,-5.0112,-5.0112,-4.9466,-4.9004,-4.8758,-4.8019,-4.7188,-4.6296,-4.6172,-4.5865,-4.5249,-4.3895,-4.2414,-4.0843,-3.7278,-3.4486,0.0,0.0,0.0,0.0,0.0,0.0,0.0,0.0,0.0,0.0,0.0,-3.2064,-3.2315,-3.3147,-3.4477,-3.6493,-3.6844,-3.7813,-3.9771,-3.9122,-3.9033,-4.0211,-3.9104,-3.8324,-3.8366,-3.784,-3.739,-3.7102,-3.6732,-3.6641,-3.7026,-3.5258,-3.3903,-3.3757,-3.3583,-3.3495,-3.3494,-3.2228,-3.0515,-2.8474,-2.6727,-2.5508,-2.5011,-2.4383,-2.3915,-2.4041,-2.3548,-2.3031,-2.2772,-2.2686,-2.2686,-2.2686,-2.2686,-2.2686,-2.2686,-2.2686,-2.2686,-2.2686,-2.2686,-2.2686,-6.8187,-6.8083,-6.8083,-6.7738,-6.7083,-6.6428,-6.56,-6.4669,-6.4496,-6.4048,-6.3427,-6.2875,-6.222,-6.1599,-6.1599,-6.1279,-6.0632,-6.0018,-5.9677,-5.947,-5.8278,-5.7715,-5.7715,-5.712,-5.6507,-5.5912,-5.5806,-5.5661,-5.5531,-5.5531,-5.5491,-5.5369,-5.4998,-5.4613,-5.42,-5.3629,-5.2439,-5.0617,-5.0574,-5.0574,-5.0543,-4.9897,-4.8974,-4.7804,-4.7496,-4.648,-4.4733,-4.5157,-4.4949,-4.3809,-4.3248,-4.2444,-4.131,-3.9455,-3.7588,0.0,-3.4627,0.0,0.0,0.0,0.0,0.0,0.0,0.0,0.0,-3.6391,-3.6746,-3.7191,-3.7324,-3.8382,-4.083,-4.1768,-4.2257,-4.2285,-4.294,-4.3006,-4.2302,-4.25,-4.2209,-4.0943,-4.0301,-3.9373,-3.8173,-3.738,-3.7136,-3.7298,-3.654,-3.5674,-3.5206,-3.4684,-3.4255,-3.3964,-3.2501,-3.0468,-2.803,-2.7472,-2.6934,-2.5432,-2.467,-2.4235,-2.4064,-2.3462,-2.2859,-2.2772,-2.2686,-2.2686,-2.2686,-2.2686,-2.2686,-2.2686,-2.2686,-2.2686,-2.2686,-2.2686,-2.2686,-6.867,-6.8083,-6.8083,-6.8014,-6.7876,-6.7738,-6.6531,-6.46,-6.3427,-6.2841,-6.2737,-6.3186,-6.3289,-6.3151,-6.3151,-6.2804,-6.211,-6.1972,-6.1559,-6.0904,-6.0625,-6.052,-6.0486,-5.9795,-5.9128,-5.8545,-5.7864,-5.711,-5.6106,-5.6139,-5.5861,-5.5409,-5.4998,-5.4749,-5.4665,0.0,0.0,0.0,-4.9866,-4.9866,-4.9866,-4.9189,-4.8696,-4.8389,-4.6819,0.0,-4.4664,-4.4733,-4.4702,-4.4456,-4.4787,0.0,0.0,0.0,0.0,0.0,0.0,0.0,0.0,0.0,0.0,0.0,-4.1831,-4.0622,-3.9557,-4.1048,-4.1647,-4.074,-4.1541,-4.24,-4.2904,-4.3664,-4.4309,-4.4804,-4.4774,-4.4697,-4.4596,-4.4013,-4.3534,-4.3579,-4.1766,-4.0373,-4.0202,-3.889,-3.7814,-3.7869,-3.7407,-3.6904,-3.6502,-3.5298,-3.458,-3.4596,-3.3078,-3.1089,-2.9326,-2.8249,-2.7289,-2.5713,-2.5312,-2.4835,-2.4235,-2.3978,-2.3462,-2.2859,-2.2686,-2.2686,-2.2686,-2.2686,-2.2686,-2.2686,-2.2686,-2.2686,-2.2686,-2.2686,-2.2686,-6.8808,-6.8083,-6.8083,-6.7911,0.0,-6.7566,-6.6704,-6.5221,-6.4496,-6.3738,-6.3048,-6.3427,-6.36,-6.3565,-6.322,-6.2841,-6.2461,-6.1703,-6.1323,-6.1289,-6.0909,-6.0802,-6.0859,-6.0069,-5.9405,-5.8819,-5.8039,-5.7335,-5.6768,-5.642,-5.606,-5.5539,-5.4832,-5.4359,-5.4114,-5.3856,-5.2981,-5.1392,-5.0275,-4.9835,-5.0143,-4.9497,-4.882,-4.8112,-4.7465,0.0,0.0,0.0,0.0,0.0,0.0,0.0,0.0,0.0,0.0,-4.3688,-4.3396,-4.3124,-4.3094,-4.3867,-4.5015,-4.656,-4.6954,-4.6174,-4.3901,-4.4749,-4.5204,-4.4733,-4.4819,-4.4878,-4.5083,-4.5446,-4.5746,-4.5978,-4.5562,-4.5139,-4.48,-4.4948,-4.4661,-4.3939,-4.2969,-4.2048,-4.1152,-3.9252,-3.8204,-3.8255,-3.7796,-3.7499,-3.7558,-3.6492,-3.5493,-3.511,-3.4338,-3.2918,-3.1281,-2.9972,-2.8564,-2.7155,-2.5763,-2.4921,-2.4235,-2.3892,-2.3548,-2.2848,-2.2686,-2.2686,-2.2686,-2.2686,-2.2686,-2.2686,-2.2686,-2.2686,-2.2686,-2.2686,-2.2686,-6.9222,-6.8497,-6.8359,-6.798,-6.7394,-6.7256,-6.6773,-6.6083,-6.5945,0.0,0.0,-6.3772,-6.3772,-6.3738,-6.3013,-6.2668,-6.2599,-6.1392,-6.1116,-6.1668,-6.1082,-6.0832,-6.0907,-6.0191,-5.9556,-5.8925,-5.8047,-5.7461,-5.7234,-5.6603,-5.6067,-5.562,-5.4707,-5.3985,-5.3509,-5.3055,-5.2909,-5.3049,-5.1138,-5.0236,-5.0667,-5.002,-4.9066,-4.7804,-4.8081,-4.7219,-4.5072,-4.5588,-4.5495,-4.4579,-4.4733,-4.528,-4.6234,-4.6542,-4.7303,-4.8602,-4.8862,-4.8828,-4.8682,-4.9098,-4.9346,-4.9459,-5.0466,-5.0185,-4.8162,-4.7775,-4.7745,-4.8166,-4.706,-4.6389,-4.6648,-4.68,-4.6753,-4.6583,-4.6069,-4.546,-4.496,-4.5825,-4.5924,-4.4301,-4.3912,-4.3297,-4.1497,-3.9445,-3.8236,-3.8396,-3.8011,-3.7851,-3.8304,-3.7415,-3.6279,-3.5337,-3.5028,-3.4547,-3.2858,-3.1741,-3.0422,-2.8251,-2.6418,-2.4994,-2.4235,-2.372,-2.329,-2.2772,-2.2686,-2.2686,-2.2686,-2.2686,-2.2686,-2.2686,-2.2686,-2.2686,-2.2686,-2.2686,-2.2686,-7.0739,-7.0015,-6.9394,-6.9049,-6.8951,-6.8221,-6.7532,-6.6807,-6.6152,-6.5393,-6.4565,-6.4565,-6.4565,-6.4496,-6.3772,-6.3427,-6.3427,-6.322,-6.3186,-6.3255,-6.3151,-6.3149,-6.311,-6.2387,-6.1716,-6.1091,-5.9658,-5.8459,-5.7469,-5.6672,-5.602,-5.545,-5.4915,-5.4444,-5.4017,-5.3509,-5.3346,-5.3309,-5.2038,-5.119,-5.0697,-5.002,-4.9312,-4.8481,-4.7465,-4.6726,-4.6357,-4.6973,-4.7496,-4.7927,-4.9035,-4.9528,-4.9158,-5.0143,-5.0424,-4.9611,-5.0347,-5.0662,-5.0088,-5.0427,-5.0831,-5.1337,-5.1562,-5.1506,-5.1171,-4.9646,-4.8891,-4.9385,-4.7758,-4.6633,-4.6728,-4.7112,-4.7311,-4.734,-4.7232,-4.7098,-4.6922,-4.7322,-4.7237,-4.6172,-4.4552,-4.327,-4.2135,-3.9969,-3.853,-3.8603,-3.8377,-3.8414,-3.8353,-3.7546,-3.6489,-3.5669,-3.5262,-3.4412,-3.3322,-3.2711,-3.1235,-2.856,-2.7422,-2.5993,-2.4395,-2.372,-2.329,-2.2772,-2.2686,-2.2686,-2.2686,-2.2686,-2.2686,-2.2686,-2.2686,-2.2686,-2.2686,-2.2686,-2.2686,-7.105,-7.0394,-7.0015,-6.9877,-6.9842,-6.9049,-6.829,-6.7601,-6.7221,-6.6428,-6.5324,-6.491,-6.4703,-6.46,-6.3496,-6.3013,-6.2979,-6.2565,-6.2565,-6.2979,-6.2979,-6.322,-6.3496,-6.2841,-6.2169,-6.1473,-6.0415,-5.922,-5.7975,-5.7219,-5.6301,-5.5205,-5.4168,-5.3714,-5.3714,-5.3277,-5.3011,-5.298,-5.214,-5.1559,-5.1251,-5.0944,-5.0451,-4.9743,-4.9466,-4.9189,-4.885,-4.9127,-4.9435,-4.9712,-5.0359,-5.0882,-5.1313,-5.1929,-5.2287,-5.2322,-5.2371,-5.2247,-5.1946,-5.1575,-5.1478,-5.1759,-5.1787,-5.2096,-5.277,-5.1023,-4.9949,-5.0159,-4.8687,-4.758,-4.7178,-4.7353,-4.7497,-4.7497,-4.7165,-4.6898,-4.6993,-4.7528,-4.7701,-4.6982,-4.5318,-4.3937,-4.3297,-4.0589,-3.864,-3.864,-3.864,-3.864,-3.856,-3.778,-3.6958,-3.6385,-3.5904,-3.5276,-3.4399,-3.2739,-3.1242,-2.9745,-2.7506,-2.5665,-2.4235,-2.372,-2.3204,-2.2859,-2.2686,-2.2686,-2.2686,-2.2686,-2.2686,-2.2686,-2.2686,-2.2686,-2.2686,-2.2686,-2.2686,-7.1429,-7.0912,-7.0705,-7.0429,-7.0084,-6.9532,-6.8842,-6.8118,-6.8083,-6.7463,-6.6359,-6.5566,-6.5117,-6.4841,-6.3565,-6.2875,-6.2668,-6.2082,-6.2151,-6.2703,-6.2737,-6.3048,-6.3496,-6.3013,-6.2483,-6.1937,-6.1214,-6.016,-5.8863,-5.8078,-5.6743,-5.5089,-5.3728,-5.321,-5.3377,-5.2922,-5.2729,-5.2667,-5.2206,-5.1929,-5.1929,-5.1805,-5.1436,-5.1005,-5.1251,-5.1313,-5.0944,-5.0913,-5.1005,-5.1159,-5.1282,-5.1867,-5.2852,-5.3221,-5.3868,-5.4712,-5.4031,-5.3334,-5.2952,-5.2231,-5.1787,-5.1787,-5.1787,-5.2321,-5.336,-5.2003,-5.0917,-5.0629,-4.9267,-4.8059,-4.7575,-4.7497,-4.7497,-4.7431,-4.7008,-4.6812,-4.691,-4.7598,-4.7957,-4.7423,-4.6055,-4.4806,-4.3538,-4.1093,-3.9175,-3.8719,-3.864,-3.864,-3.8481,-3.7924,-3.7303,-3.6905,-3.64,-3.5857,-3.5492,-3.371,-3.1878,-3.1046,-2.8167,-2.5908,-2.4652,-2.3634,-2.3204,-2.2772,-2.2686,-2.2686,-2.2686,-2.2686,-2.2686,-2.2686,-2.2686,-2.2686,-2.2686,-2.2686,-2.2686,-7.2498,-7.236,-7.167,-7.0601,-6.9497,-6.94,-6.8877,-6.8152,-6.8083,-6.8049,-6.7738,-6.7083,-6.6359,-6.5704,-6.4841,-6.4083,-6.3496,-6.3427,-6.3393,-6.3462,-6.3496,-6.3531,-6.36,-6.3496,-6.3459,-6.3248,-6.2557,-6.1484,-6.013,-5.898,-5.738,-5.53,-5.4491,-5.3912,-5.3427,-5.2922,-5.2729,-5.2729,-5.2667,-5.2637,-5.2575,-5.2021,-5.1652,-5.159,-5.1097,-5.1067,-5.1559,-5.159,-5.1898,-5.2513,-5.3067,-5.3468,-5.3745,-5.473,-5.5468,-5.5575,-5.474,-5.3594,-5.2108,-5.1868,-5.1815,-5.1787,-5.1843,-5.2349,-5.3472,-5.2416,-5.1534,-5.1064,-4.9092,-4.7731,-4.7497,-4.7497,-4.7497,-4.7497,-4.7364,-4.7599,-4.7921,-4.8315,-4.8327,-4.7957,-4.6879,-4.554,-4.341,-4.1532,-4.0099,-3.8719,-3.864,-3.864,-3.856,-3.787,-3.7374,-3.7126,-3.6348,-3.58,-3.5777,-3.5578,-3.3661,-3.1362,-2.9745,-2.7493,-2.5141,-2.3537,-2.2772,-2.2772,-2.2686,-2.2686,-2.2686,-2.2686,-2.2686,-2.2686,-2.2686,-2.2686,-2.2686,-2.2686,-2.2686,-7.2671,-7.2678,-7.2326,-7.1567,-7.0601,-7.0118,-6.9497,-6.8773,-6.829,-6.8083,-6.8049,-6.7773,-6.7221,-6.6462,-6.5255,-6.4531,-6.422,-6.3807,-6.36,-6.36,-6.36,-6.36,-6.36,-6.36,-6.3417,-6.3045,-6.27,-6.1525,-5.9548,-5.7688,-5.6376,-5.5626,-5.458,-5.3968,-5.3926,-5.3107,-5.2914,-5.3238,-5.2914,-5.2914,-5.3191,-5.2637,-5.2298,-5.2267,-5.2021,-5.199,-5.2267,-5.2298,-5.2606,-5.3252,-5.3591,-5.4083,-5.4853,-5.5407,-5.5869,-5.6252,-5.5379,-5.4076,-5.2431,-5.2686,-5.2742,-5.2377,-5.2686,-5.3135,-5.3557,-5.2104,-5.1144,-5.121,-4.9746,-4.8371,-4.763,-4.7497,-4.7497,-4.7497,-4.7497,-4.7593,-4.7786,-4.818,-4.8355,-4.813,-4.7348,-4.5925,-4.3657,-4.1186,-3.9531,-3.8719,-3.864,-3.864,-3.856,-3.7744,-3.7108,-3.6861,-3.5792,-3.5337,-3.576,-3.4992,-3.3774,-3.2284,-2.9745,-2.6889,-2.5969,-2.3869,-2.2686,-2.2686,-2.2686,-2.2686,-2.2686,-2.2686,-2.2686,-2.2686,-2.2686,-2.2686,-2.2686,-2.2686,-2.2686,-7.2671,-7.2671,-7.2671,-7.2264,-7.1429,-7.0705,-6.9946,-6.9262,-6.8463,-6.8083,-6.8083,-6.8083,-6.7807,-6.7152,-6.5911,-6.5117,-6.4669,-6.4152,-6.3772,-6.3634,-6.36,-6.36,-6.36,-6.36,-6.3343,-6.2931,-6.2855,-6.1541,-5.9196,-5.7351,-5.6238,-5.5837,-5.4807,-5.436,-5.4386,-5.3604,-5.3453,-5.3853,-5.3498,-5.3498,-5.3868,-5.3529,-5.3098,-5.279,-5.2883,-5.3006,-5.3006,-5.316,-5.3498,-5.3914,-5.4099,-5.4699,-5.5592,-5.5869,-5.6155,-5.629,-5.5575,-5.4529,-5.3078,-5.3416,-5.3473,-5.3079,-5.3416,-5.3754,-5.358,-5.2252,-5.132,-5.1351,-5.0232,-4.8933,-4.7738,-4.7497,-4.7497,-4.7497,-4.7497,-4.7569,-4.7954,-4.8195,-4.8483,-4.8779,-4.8146,-4.6424,-4.3986,-4.0956,-3.864,-3.864,-3.864,-3.8566,-3.8317,-3.751,-3.6763,-3.6638,-3.5496,-3.5165,-3.5675,-3.5016,-3.3856,-3.2412,-2.9829,-2.7564,-2.6563,-2.4201,-2.2762,-2.2686,-2.2686,-2.2686,-2.2686,-2.2686,-2.2686,-2.2686,-2.2686,-2.2686,-2.2686,-2.2686,-2.2686,-7.2671,-7.2671,-7.2671,-7.2257,-7.1429,-7.0705,-7.0021,-6.9331,-6.8463,-6.8083,-6.8083,-6.8083,-6.8049,-6.7945,-6.7152,-6.6083,-6.4841,-6.4634,-6.422,-6.3634,-6.36,-6.36,-6.36,-6.36,-6.3563,-6.3454,-6.3302,-6.2054,-5.9859,-5.8984,-5.7691,-5.5826,-5.5577,-5.5253,-5.4807,-5.4576,-5.4591,-5.4591,-5.4545,-5.456,-5.4621,-5.4591,-5.396,-5.3006,-5.3345,-5.3683,-5.3699,-5.4252,-5.4591,-5.4621,-5.5222,-5.5592,-5.5776,-5.6361,-5.629,-5.5419,-5.506,-5.4591,-5.3782,-5.3726,-5.3782,-5.3641,-5.381,-5.4007,-5.4343,-5.3057,-5.207,-5.1564,-5.0194,-4.8828,-4.7738,-4.7497,-4.7497,-4.7497,-4.7497,-4.793,-4.882,-4.8459,-4.906,-4.9811,-4.8874,-4.6848,-4.3895,-4.0666,-3.8919,-3.8524,-3.8542,-3.8475,-3.7951,-3.7312,-3.6646,-3.6252,-3.58,-3.5446,-3.5498,-3.5248,-3.4128,-3.293,-3.1241,-2.849,-2.6054,-2.4126,-2.3365,-2.2686,-2.2686,-2.2686,-2.2686,-2.2686,-2.2686,-2.2686,-2.2686,-2.2686,-2.2686,-2.2686,-2.2686,-7.2671,-7.2671,-7.2671,-7.2498,-7.2119,-7.0912,-7.0222,-6.9877,-6.8635,-6.8083,-6.8083,-6.8083,-6.8083,-6.8083,-6.7807,-6.6876,-6.5497,-6.4945,-6.4289,-6.3669,-6.36,-6.36,-6.36,-6.36,-6.36,-6.36,-6.3526,-6.2285,-6.0085,-5.8423,-5.7229,-5.6474,-5.5899,-5.5561,-5.5315,-5.4898,-5.4914,-5.5284,-5.4929,-5.4868,-5.5284,-5.4945,-5.4406,-5.4052,-5.4237,-5.4314,-5.436,-5.4607,-5.4914,-5.5315,-5.5592,-5.5899,-5.6361,-5.6518,-5.5888,-5.4672,-5.5089,-5.5109,-5.4459,-5.4625,-5.4653,-5.4316,-5.4625,-5.4709,-5.4334,-5.3,-5.1804,-5.1216,-4.945,-4.8002,-4.7696,-4.7497,-4.7497,-4.7497,-4.7497,-4.7786,-4.8339,-4.8411,-4.8676,-4.9099,-4.7461,-4.5148,-4.3983,-4.0996,-3.8609,-3.8291,-3.8236,-3.8071,-3.7568,-3.6754,-3.6124,-3.6064,-3.5409,-3.4967,-3.5498,-3.5686,-3.5244,-3.4213,-3.2674,-3.0329,-2.7985,-2.5312,-2.4041,-2.2859,-2.2686,-2.2686,-2.2686,-2.2686,-2.2686,-2.2686,-2.2686,-2.2686,-2.2686,-2.2686,-2.2686,-7.2671,-7.2671,-7.2671,-7.2671,-7.2498,-7.1291,-7.0601,-7.0256,-6.9015,-6.8359,-6.8152,-6.8083,-6.8083,-6.8083,-6.8083,-6.7463,-6.629,-6.5669,-6.5048,-6.4358,-6.4083,-6.3945,-6.391,-6.3703,-6.36,-6.3563,-6.3305,-6.2009,-5.987,-5.824,-5.7306,-5.6748,-5.6238,-5.607,-5.5961,-5.5592,-5.5622,-5.5869,-5.5592,-5.5622,-5.593,-5.5622,-5.5376,-5.5376,-5.5376,-5.5253,-5.5068,-5.5253,-5.5561,-5.5961,-5.6023,-5.6265,-5.6568,-5.6455,-5.5818,-5.4855,-5.5278,-5.5481,-5.5021,-5.5271,-5.5327,-5.4934,-5.5243,-5.5299,-5.476,-5.2843,-5.1714,-5.0954,-4.9127,-4.7497,-4.7497,-4.7497,-4.7497,-4.7497,-4.7497,-4.7786,-4.8435,-4.8387,-4.8584,-4.8677,-4.6592,-4.4836,-4.3868,-4.1067,-3.9024,-3.7929,-3.7924,-3.7851,-3.733,-3.6664,-3.5982,-3.6064,-3.5461,-3.5148,-3.5446,-3.5737,-3.5151,-3.4213,-3.3183,-3.1256,-2.9077,-2.6491,-2.4555,-2.3279,-2.2686,-2.2686,-2.2686,-2.2686,-2.2686,-2.2686,-2.2686,-2.2686,-2.2686,-2.2686,-2.2686,-7.2671,-7.2671,-7.2671,-7.2671,-7.2575,-7.1739,-7.105,-7.0325,-6.9532,-6.8773,-6.8152,-6.8083,-6.8083,-6.8083,-6.8083,-6.7669,-6.7083,-6.6911,-6.6428,-6.5635,-6.5014,-6.4703,-6.4669,-6.4117,-6.3735,-6.3555,-6.2731,-6.1152,-5.91,-5.8651,-5.7948,-5.6971,-5.6779,-5.6686,-5.6779,-5.6625,-5.6686,-5.6686,-5.6625,-5.6686,-5.681,-5.6656,-5.6625,-5.6686,-5.6656,-5.633,-5.5745,-5.6347,-5.6656,-5.6717,-5.6748,-5.6647,-5.6344,-5.6206,-5.5946,-5.5616,-5.5536,-5.5498,-5.5468,-5.5468,-5.5496,-5.5412,-5.5496,-5.5468,-5.5091,-5.3032,-5.1492,-5.1116,-4.9192,-4.7497,-4.7497,-4.7497,-4.7497,-4.7497,-4.7497,-4.7906,-4.8603,-4.8603,-4.8564,-4.8823,-4.6971,-4.5002,-4.3489,-4.1294,-3.9223,-3.7979,-3.7686,-3.7704,-3.7279,-3.6754,-3.6539,-3.6199,-3.567,-3.5423,-3.5566,-3.5726,-3.478,-3.3903,-3.2757,-3.1188,-2.8923,-2.6491,-2.4971,-2.3709,-2.2859,-2.2772,-2.2686,-2.2686,-2.2686,-2.2686,-2.2686,-2.2686,-2.2686,-2.2686,-2.2686,-7.2671,-7.2671,-7.2671,-7.2671,-7.2567,-7.1843,-7.1084,-7.0325,-6.9641,-6.8842,-6.8187,-6.8083,-6.8083,-6.8083,-6.8083,-6.7945,-6.7738,-6.7704,-6.7083,-6.6052,-6.5635,-6.5497,-6.5462,-6.5255,-6.4687,-6.3592,-6.2132,-6.0652,-5.9254,-5.8363,-5.7511,-5.6954,-5.681,-5.681,-5.681,-5.681,-5.681,-5.681,-5.681,-5.681,-5.681,-5.681,-5.681,-5.681,-5.681,-5.6686,-5.6502,-5.6686,-5.681,-5.684,-5.681,-5.645,-5.5827,-5.5771,-5.5586,-5.5083,-5.5333,-5.5496,-5.5496,-5.5496,-5.5496,-5.5496,-5.5496,-5.5496,-5.5261,-5.3059,-5.158,-5.1268,-4.9127,-4.7497,-4.7497,-4.7497,-4.7521,-4.7497,-4.7497,-4.7786,-4.8483,-4.8724,-4.9133,-4.9314,-4.758,-4.5682,-4.4177,-4.1968,-3.9623,-3.7699,-3.7338,-3.7136,-3.6673,-3.6354,-3.6089,-3.61,-3.5774,-3.5463,-3.5515,-3.5407,-3.4692,-3.3872,-3.2796,-3.1324,-2.9007,-2.7337,-2.5738,-2.4212,-2.3365,-2.2772,-2.2772,-2.2686,-2.2686,-2.2686,-2.2686,-2.2686,-2.2686,-2.2686,-2.2686,-7.2671,-7.2671,-7.2671,-7.2671,-7.2678,-7.2119,-7.1325,-7.0394,-6.9911,-6.9084,-6.8256,-6.8083,-6.8083,-6.8083,-6.8083,-6.8083,-6.8083,-6.8083,-6.7601,-6.6738,-6.6359,-6.629,-6.6182,-6.5675,-6.4771,-6.3411,-6.1962,-6.052,-5.9165,-5.8257,-5.7543,-5.7115,-5.6906,-5.681,-5.681,-5.681,-5.681,-5.681,-5.681,-5.681,-5.681,-5.681,-5.6933,-5.7148,-5.7179,-5.7333,-5.7518,-5.7549,-5.7426,-5.7303,-5.7395,-5.7011,-5.606,-5.6154,-5.5875,-5.5251,-5.5243,-5.5496,-5.5496,-5.5496,-5.5496,-5.5496,-5.5496,-5.5496,-5.5057,-5.3059,-5.158,-5.1205,-4.9063,-4.7497,-4.7521,-4.7714,-4.7786,-4.7786,-4.7617,-4.7858,-4.8435,-4.8868,-4.9421,-4.9505,-4.8286,-4.6379,-4.4484,-4.2699,-4.0039,-3.795,-3.7118,-3.6856,-3.6503,-3.6223,-3.6201,-3.6139,-3.5721,-3.5491,-3.5309,-3.501,-3.4568,-3.3854,-3.303,-3.137,-2.9397,-2.8349,-2.7012,-2.4885,-2.3525,-2.2859,-2.2686,-2.2686,-2.2686,-2.2686,-2.2686,-2.2686,-2.2686,-2.2686,-2.2686,-7.2671,-7.2671,-7.2671,-7.2671,-7.2671,-7.2602,-7.1808,-7.0601,-7.0463,-6.9635,-6.8463,-6.8256,-6.8152,-6.8118,-6.8083,-6.8083,-6.8083,-6.8083,-6.8049,-6.7773,-6.7359,-6.701,-6.6784,-6.5716,-6.4431,-6.3066,-6.2174,-6.0869,-5.9311,-5.8617,-5.8027,-5.7633,-5.717,-5.6933,-5.7118,-5.6994,-5.7087,-5.7118,-5.7056,-5.7056,-5.7056,-5.7025,-5.7272,-5.7857,-5.7888,-5.8134,-5.8485,-5.867,-5.8454,-5.7974,-5.8143,-5.7825,-5.7178,-5.703,-5.6302,-5.5442,-5.5468,-5.5496,-5.5496,-5.5496,-5.5496,-5.5496,-5.5496,-5.5496,-5.5203,-5.3146,-5.1492,-5.1367,-4.9063,-4.7497,-4.7593,-4.793,-4.8195,-4.8267,-4.8026,-4.8195,-4.8892,-4.906,-4.9493,-4.9979,-4.9014,-4.7139,-4.4871,-4.3247,-4.0704,-3.8387,-3.7417,-3.7129,-3.6836,-3.6576,-3.6499,-3.6211,-3.5798,-3.5588,-3.5344,-3.5077,-3.4592,-3.3548,-3.2885,-3.172,-2.9884,-2.8853,-2.7435,-2.5312,-2.3783,-2.3106,-2.2686,-2.2686,-2.2686,-2.2686,-2.2686,-2.2686,-2.2686,-2.2686,-2.2686,-7.2671,-7.2671,-7.2671,-7.2671,-7.2671,-7.2671,-7.2119,-7.1256,-7.1187,-7.0291,-6.9187,-6.8946,-6.8601,-6.8118,-6.8083,-6.8083,-6.8083,-6.8083,-6.8083,-6.8049,-6.7945,-6.753,-6.7012,-6.6187,-6.5015,-6.3703,-6.2835,-6.1644,-6.0043,-5.9316,-5.8797,-5.8455,-5.7863,-5.7826,-5.8177,-5.8227,-5.8288,-5.8239,-5.8288,-5.8258,-5.8177,-5.8258,-5.8331,-5.8454,-5.8516,-5.8608,-5.8824,-5.9255,-5.8889,-5.7698,-5.7558,-5.7148,-5.643,-5.6135,-5.5907,-5.5615,-5.5496,-5.5496,-5.5496,-5.5496,-5.5496,-5.5496,-5.5496,-5.5496,-5.5437,-5.3059,-5.1678,-5.1053,-4.9127,-4.7521,-4.7617,-4.8026,-4.8435,-4.8772,-4.8748,-4.8772,-4.9012,-4.9109,-4.9349,-4.9808,-4.9108,-4.7857,-4.6217,-4.4177,-4.2004,-3.9831,-3.8365,-3.7312,-3.7035,-3.6749,-3.6623,-3.6228,-3.5815,-3.5622,-3.5361,-3.5138,-3.4587,-3.3419,-3.2692,-3.2165,-3.0325,-2.8699,-2.7012,-2.4971,-2.3955,-2.3193,-2.2859,-2.2686,-2.2686,-2.2686,-2.2686,-2.2686,-2.2686,-2.2686,-2.2686,-7.2671,-7.2671,-7.2671,-7.2671,-7.2671,-7.2671,-7.2222,-7.1601,-7.1463,-7.067,-6.9532,-6.9291,-6.8842,-6.8118,-6.8083,-6.8083,-6.8083,-6.8083,-6.8083,-6.8083,-6.8049,-6.7851,-6.7366,-6.6576,-6.5477,-6.4376,-6.3362,-6.2067,-6.0756,-6.0028,-5.955,-5.9024,-5.8542,-5.8442,-5.867,-5.8793,-5.8793,-5.8762,-5.8793,-5.8793,-5.8793,-5.8793,-5.8978,-5.9101,-5.9224,-5.9285,-5.9624,-6.0024,-5.9645,-5.8702,-5.8241,-5.7715,-5.6863,-5.628,-5.5875,-5.5554,-5.5496,-5.5496,-5.5496,-5.5496,-5.5496,-5.5496,-5.5496,-5.5175,-5.4437,-5.2692,-5.1419,-5.0781,-4.8953,-4.8131,-4.8219,-4.8652,-4.9181,-4.9662,-4.9758,-4.9662,-4.9445,-4.9445,-4.9662,-4.9883,-4.9511,-4.8538,-4.7271,-4.5335,-4.3185,-4.1039,-3.9529,-3.8245,-3.7198,-3.6909,-3.6561,-3.6122,-3.5736,-3.5526,-3.5089,-3.4789,-3.4192,-3.3082,-3.215,-3.1751,-3.0739,-2.888,-2.7435,-2.5738,-2.4469,-2.3365,-2.2934,-2.2686,-2.2686,-2.2686,-2.2686,-2.2686,-2.2686,-2.2686,-2.2686,-7.2671,-7.2671,-7.2671,-7.2671,-7.2671,-7.2671,-7.2326,-7.1705,-7.1705,-7.0912,-6.9842,-6.9463,-6.9049,-6.8221,-6.8187,-6.8083,-6.8083,-6.8083,-6.8083,-6.8083,-6.8083,-6.7965,-6.7644,-6.6618,-6.5588,-6.4608,-6.3493,-6.2403,-6.1328,-6.0646,-6.0101,-5.9669,-5.9159,-5.9028,-5.9193,-5.9131,-5.9008,-5.9162,-5.9224,-5.9255,-5.9255,-5.9255,-5.947,-5.9809,-5.9901,-6.0116,-6.0434,-6.0598,-6.0197,-5.9748,-5.9516,-5.8624,-5.7804,-5.6936,-5.6337,-5.5671,-5.5496,-5.5496,-5.5524,-5.558,-5.5636,-5.5664,-5.5749,-5.5252,-5.4348,-5.2943,-5.1609,-5.1036,-4.9296,-4.8739,-4.9036,-4.9565,-4.995,-5.0359,-5.06,-5.0431,-5.0119,-4.995,-5.0167,-5.0529,-4.9938,-4.8815,-4.7631,-4.6241,-4.4646,-4.2079,-4.0547,-3.9083,-3.7837,-3.708,-3.6579,-3.5925,-3.5646,-3.5412,-3.4942,-3.4362,-3.3624,-3.2696,-3.1653,-3.1076,-3.0827,-2.9467,-2.8194,-2.6842,-2.5141,-2.3783,-2.2859,-2.2686,-2.2686,-2.2686,-2.2686,-2.2686,-2.2686,-2.2686,-2.2686,-7.2671,-7.2671,-7.2671,-7.2671,-7.2671,-7.2671,-7.2609,-7.2395,-7.2395,-7.1808,-7.1015,-7.0394,-6.9704,-6.902,-6.8359,-6.8083,-6.8083,-6.8083,-6.8083,-6.8083,-6.8083,-6.7765,-6.7277,-6.632,-6.5382,-6.4361,-6.3512,-6.2748,-6.2009,-6.1078,-6.0515,-6.0434,-5.988,-5.9839,-6.024,-6.0178,-6.0332,-6.0363,-6.0301,-6.024,-6.0209,-6.024,-6.0301,-6.0517,-6.0517,-6.0609,-6.0576,-6.0136,-5.9728,-5.9402,-5.8787,-5.7863,-5.6623,-5.6049,-5.5729,-5.5641,-5.5524,-5.5524,-5.5608,-5.5945,-5.6198,-5.6254,-5.6592,-5.6865,-5.6535,-5.4065,-5.2705,-5.1756,-5.019,-4.9246,-4.9638,-4.9806,-5.0167,-5.0576,-5.0696,-5.0648,-5.0527,-5.0503,-5.041,-5.0198,-4.9795,-4.9221,-4.8572,-4.6971,-4.518,-4.3194,-4.1515,-3.9928,-3.8674,-3.7488,-3.6675,-3.6,-3.572,-3.56,-3.5265,-3.4538,-3.3339,-3.2498,-3.1467,-3.0817,-3.0567,-2.9969,-2.8783,-2.7266,-2.5568,-2.4384,-2.3451,-2.2686,-2.2762,-2.2686,-2.2859,-2.302,-2.3106,-2.2934,-2.302,-7.2671,-7.2671,-7.2671,-7.2671,-7.2671,-7.2671,-7.2671,-7.2671,-7.2671,-7.2222,-7.1463,-7.0705,-6.998,-6.9262,-6.8463,-6.8083,-6.8083,-6.8083,-6.8083,-6.793,-6.7535,-6.6844,-6.6124,-6.5337,-6.4466,-6.3926,-6.3212,-6.258,-6.1959,-6.1421,-6.0955,-6.0815,-6.0424,-6.0424,-6.0732,-6.0794,-6.0732,-6.0732,-6.0794,-6.0794,-6.0794,-6.0794,-6.0794,-6.0794,-6.0794,-6.0794,-6.0742,-5.9978,-5.9392,-5.8798,-5.8,-5.7191,-5.6222,-5.5729,-5.5496,-5.5524,-5.5833,-5.5917,-5.6086,-5.6479,-5.6845,-5.6873,-5.721,-5.6931,-5.6286,-5.4394,-5.3075,-5.2072,-5.0751,-4.9731,-5.0191,-5.0263,-5.0455,-5.0576,-5.0696,-5.0625,-5.0483,-5.0412,-5.0341,-5.0033,-4.9604,-4.9245,-4.8523,-4.7457,-4.6381,-4.4635,-4.3028,-4.1363,-3.9299,-3.8116,-3.6975,-3.6316,-3.5972,-3.576,-3.5587,-3.4697,-3.3273,-3.2309,-3.1377,-3.0969,-3.0651,-3.0053,-2.9384,-2.7941,-2.6503,-2.5312,-2.4298,-2.3611,-2.3193,-2.3611,-2.3869,-2.3697,-2.3869,-2.4469,-2.4298,-7.2671,-7.2671,-7.2671,-7.2671,-7.2671,-7.2671,-7.2671,-7.2671,-7.2671,-7.2264,-7.1463,-7.0705,-6.998,-6.9222,-6.8463,-6.8118,-6.8083,-6.8083,-6.8083,-6.8004,-6.6935,-6.6177,-6.5337,-6.4262,-6.3466,-6.3688,-6.2793,-6.2035,-6.1734,-6.1481,-6.1113,-6.0845,-6.0794,-6.0732,-6.0763,-6.0794,-6.0794,-6.0794,-6.0794,-6.0794,-6.0794,-6.0794,-6.0794,-6.0794,-6.0794,-6.0638,-6.0346,-5.9629,-5.8877,-5.8029,-5.7105,-5.6709,-5.6508,-5.6133,-5.5749,-5.5805,-5.6339,-5.6535,-5.6676,-5.7126,-5.7519,-5.7519,-5.7688,-5.726,-5.6182,-5.4794,-5.3452,-5.2219,-5.1092,-5.0022,-5.06,-5.0624,-5.0648,-5.0696,-5.0696,-5.0483,-5.0175,-5.0033,-4.9961,-4.9818,-4.9389,-4.9052,-4.8835,-4.8159,-4.7237,-4.6159,-4.4494,-4.2652,-4.0491,-3.8505,-3.7188,-3.642,-3.6075,-3.5468,-3.5164,-3.5187,-3.3628,-3.2601,-3.1572,-3.1218,-3.0984,-3.0484,-2.9886,-2.8867,-2.7604,-2.6418,-2.5483,-2.4811,-2.464,-2.4885,-2.4971,-2.5056,-2.5483,-2.6078,-2.5738,-7.2671,-7.2671,-7.2671,-7.2671,-7.2671,-7.2671,-7.2671,-7.2671,-7.2671,-7.2222,-7.1463,-7.0705,-6.998,-6.9222,-6.8463,-6.8118,-6.8083,-6.8083,-6.8004,-6.7771,-6.6685,-6.5711,-6.4811,-6.3371,-6.2534,-6.2103,-6.1784,-6.1633,-6.1461,-6.1206,-6.0949,-6.0845,-6.0794,-6.0794,-6.0794,-6.0794,-6.0794,-6.0794,-6.0794,-6.0794,-6.0794,-6.0794,-6.0794,-6.0794,-6.069,-6.0346,-5.9713,-5.8907,-5.7974,-5.7049,-5.6164,-5.6156,-5.6493,-5.6457,-5.6535,-5.6816,-5.7069,-5.721,-5.7294,-5.78,-5.8109,-5.825,-5.8502,-5.8783,-5.791,-5.6079,-5.4169,-5.2992,-5.1352,-5.0119,-5.0648,-5.0696,-5.0696,-5.0696,-5.0625,-5.0483,-5.0104,-4.9818,-4.9532,-4.9268,-4.9052,-4.8908,-4.8691,-4.845,-4.7699,-4.633,-4.4419,-4.2729,-4.0802,-3.8645,-3.6804,-3.6339,-3.608,-3.5358,-3.4675,-3.4764,-3.4197,-3.3141,-3.2222,-3.17,-3.1399,-3.1067,-3.0401,-2.9467,-2.8712,-2.7688,-2.6842,-2.6078,-2.6078,-2.6333,-2.6418,-2.6418,-2.6842,-2.7181,-2.7012,-7.2671,-7.2671,-7.2671,-7.2671,-7.2671,-7.2671,-7.2671,-7.2671,-7.2671,-7.2222,-7.1463,-7.0705,-6.998,-6.9222,-6.8463,-6.8118,-6.8083,-6.7999,-6.765,-6.7052,-6.5841,-6.47,-6.3905,-6.2404,-6.1702,-6.1277,-6.1206,-6.1206,-6.1155,-6.0949,-6.0794,-6.0794,-6.0794,-6.0794,-6.0794,-6.0794,-6.0794,-6.0794,-6.0794,-6.0794,-6.0794,-6.0794,-6.0794,-6.069,-6.0346,-5.9925,-5.9416,-5.811,-5.7534,-5.7226,-5.6501,-5.6626,-5.7069,-5.735,-5.7378,-5.7463,-5.7688,-5.7856,-5.794,-5.8418,-5.8755,-5.8783,-5.9064,-5.9205,-5.8487,-5.6596,-5.4319,-5.2503,-5.1699,-5.0383,-5.0672,-5.0696,-5.0696,-5.0625,-5.0554,-5.0246,-4.989,-4.946,-4.9101,-4.8835,-4.8691,-4.8618,-4.8546,-4.8232,-4.7918,-4.6551,-4.4494,-4.2729,-4.1035,-3.8645,-3.65,-3.6339,-3.6097,-3.5753,-3.505,-3.4942,-3.4832,-3.3806,-3.2764,-3.233,-3.1715,-3.1233,-3.0817,-3.0234,-2.9467,-2.8712,-2.8025,-2.7181,-2.7435,-2.7688,-2.7772,-2.7857,-2.8025,-2.811,-2.811,-7.2671,-7.2671,-7.2671,-7.2671,-7.2671,-7.2671,-7.2671,-7.2671,-7.2671,-7.2161,-7.1256,-7.0636,-6.9877,-6.9049,-6.8463,-6.8083,-6.8004,-6.7879,-6.7407,-6.6551,-6.5048,-6.3671,-6.2811,-6.157,-6.0897,-6.0949,-6.0897,-6.0794,-6.0845,-6.0794,-6.0794,-6.0794,-6.0794,-6.0794,-6.0794,-6.0794,-6.0794,-6.0794,-6.0794,-6.0794,-6.0794,-6.0794,-6.069,-6.0534,-5.9872,-5.9362,-5.8659,-5.7871,-5.7283,-5.7194,-5.7007,-5.7097,-5.8053,-5.8306,-5.8137,-5.7912,-5.8221,-5.8418,-5.8587,-5.884,-5.9121,-5.9121,-5.9177,-5.9205,-5.855,-5.652,-5.3843,-5.1422,-5.0672,-5.0648,-5.0696,-5.0696,-5.0625,-5.0483,-5.0246,-4.9961,-4.9532,-4.9173,-4.8908,-4.8618,-4.8473,-4.8377,-4.8377,-4.8377,-4.8159,-4.692,-4.4945,-4.309,-4.117,-3.8268,-3.642,-3.6258,-3.6097,-3.6097,-3.577,-3.543,-3.5271,-3.4717,-3.3528,-3.269,-3.1978,-3.1233,-3.09,-3.0484,-3.015,-2.9384,-2.8783,-2.8531,-2.8867,-2.9048,-2.9132,-2.9216,-2.9384,-2.9551,-2.9551,-7.2671,-7.2671,-7.2671,-7.2671,-7.2671,-7.2671,-7.2671,-7.2671,-7.2636,-7.1843,-7.0601,-7.036,-6.9532,-6.8532,-6.8221,-6.7965,-6.7879,-6.7799,-6.7482,-6.6711,-6.5003,-6.3905,-6.3482,-6.1721,-6.0918,-6.0794,-6.0794,-6.0794,-6.0794,-6.0794,-6.0794,-6.0794,-6.0794,-6.0794,-6.0794,-6.0794,-6.0794,-6.0794,-6.0794,-6.0794,-6.0794,-6.0794,-6.0399,-5.9978,-5.9469,-5.8822,-5.7866,-5.7425,-5.7309,-5.6776,-5.7133,-5.7603,-5.8165,-5.8306,-5.8615,-5.884,-5.9064,-5.9093,-5.9064,-5.9149,-5.9205,-5.9205,-5.9205,-5.9205,-5.8143,-5.6455,-5.3733,-5.1025,-5.0696,-5.0696,-5.0696,-5.0696,-5.0554,-5.0317,-5.0104,-4.9699,-4.9268,-4.898,-4.8691,-4.8546,-4.84,-4.8377,-4.8377,-4.8377,-4.8232,-4.6847,-4.5394,-4.347,-4.1248,-3.8329,-3.642,-3.6178,-3.6097,-3.6097,-3.6097,-3.5774,-3.5433,-3.5271,-3.4197,-3.2952,-3.2211,-3.1482,-3.0984,-3.0651,-3.0317,-3.0317,-2.9886,-2.9886,-3.0234,-3.0234,-3.0053,-3.0234,-3.0567,-3.0734,-3.0651,-7.2671,-7.2671,-7.2671,-7.2671,-7.2671,-7.2671,-7.2671,-7.2609,-7.2188,-7.1394,-7.0429,-6.9911,-6.9118,-6.8256,-6.8083,-6.7965,-6.7799,-6.7678,-6.7154,-6.633,-6.4811,-6.3623,-6.2794,-6.1602,-6.0845,-6.0794,-6.0794,-6.0794,-6.0794,-6.0794,-6.0794,-6.0794,-6.0794,-6.0794,-6.0794,-6.0794,-6.0794,-6.0794,-6.0794,-6.0794,-6.0794,-6.0742,-6.0586,-6.0189,-5.9285,-5.839,-5.7759,-5.7052,-5.7154,-5.6957,-5.7575,-5.8193,-5.8643,-5.884,-5.898,-5.9121,-5.9205,-5.9205,-5.9205,-5.9205,-5.9205,-5.9205,-5.908,-5.8487,-5.7065,-5.5643,-5.3733,-5.0978,-5.0696,-5.072,-5.072,-5.0696,-5.0483,-5.027,-5.0009,-4.9556,-4.9124,-4.8835,-4.8546,-4.8473,-4.8377,-4.8377,-4.8377,-4.8377,-4.8232,-4.731,-4.5319,-4.2937,-4.086,-3.8487,-3.6947,-3.6097,-3.6097,-3.6097,-3.6097,-3.6016,-3.5514,-3.5109,-3.4197,-3.3116,-3.2376,-3.1715,-3.1067,-3.0817,-3.0651,-3.0651,-3.0817,-3.0734,-3.0567,-3.0651,-3.0734,-3.0817,-3.0817,-3.0817,-3.0734,-7.2161,-7.2119,-7.2291,-7.2395,-7.2402,-7.2188,-7.2084,-7.2015,-7.1463,-7.0808,-7.0049,-6.9285,-6.8595,-6.8182,-6.7965,-6.7839,-6.7719,-6.755,-6.666,-6.5481,-6.4355,-6.3324,-6.2386,-6.1379,-6.0794,-6.0794,-6.0794,-6.0794,-6.0794,-6.0794,-6.0794,-6.0794,-6.0794,-6.0794,-6.0794,-6.0794,-6.0794,-6.0794,-6.0794,-6.0794,-6.0824,-6.1009,-6.0635,-6.0001,-5.92,-5.8385,-5.7737,-5.745,-5.7298,-5.7603,-5.8193,-5.8755,-5.9064,-5.9121,-5.9149,-5.9205,-5.9205,-5.9205,-5.9205,-5.9205,-5.9205,-5.9205,-5.8955,-5.8143,-5.5578,-5.4849,-5.3733,-5.0978,-5.0912,-5.084,-5.0792,-5.0912,-5.0699,-5.027,-4.9817,-4.941,-4.9003,-4.8691,-4.8473,-4.8473,-4.8377,-4.8377,-4.8377,-4.8377,-4.8086,-4.7552,-4.5468,-4.2632,-4.0257,-3.8029,-3.7108,-3.6097,-3.6097,-3.6097,-3.6097,-3.6016,-3.5595,-3.5109,-3.4197,-3.3444,-3.2788,-3.1798,-3.0984,-3.0817,-3.0817,-3.0817,-3.0817,-3.0817,-3.0817,-3.0817,-3.0817,-3.0817,-3.0817,-3.0817,-3.0817,-7.0532,-7.0601,-7.1291,-7.1567,-7.1532,-7.0843,-7.0567,-7.0739,-7.0532,-7.0049,-6.9291,-6.8441,-6.8097,-6.7999,-6.7759,-6.7557,-6.7475,-6.7304,-6.6449,-6.5382,-6.4262,-6.3276,-6.227,-6.1399,-6.0794,-6.0794,-6.0794,-6.0794,-6.0794,-6.0794,-6.0794,-6.0794,-6.0794,-6.0794,-6.0794,-6.0794,-6.0794,-6.0794,-6.0794,-6.0794,-6.0926,-6.1015,-6.0609,-5.927,-5.9253,-5.8957,-5.6807,-5.7499,-5.7969,-5.8137,-5.8699,-5.9008,-5.9177,-5.9205,-5.9205,-5.9205,-5.9205,-5.9205,-5.9205,-5.9205,-5.9205,-5.9205,-5.8955,-5.8016,-5.5247,-5.4916,-5.3462,-5.126,-5.1007,-5.0985,-5.1153,-5.1297,-5.0795,-5.0386,-4.9764,-4.9357,-4.8997,-4.8641,-4.8473,-4.84,-4.8377,-4.8377,-4.8377,-4.8377,-4.8013,-4.7479,-4.4795,-4.1942,-3.9494,-3.741,-3.6707,-3.6097,-3.6097,-3.6097,-3.6097,-3.5935,-3.5855,-3.5352,-3.4604,-3.3952,-3.3363,-3.2293,-3.115,-3.0817,-3.0817,-3.0817,-3.0817,-3.0817,-3.0817,-3.0817,-3.0817,-3.0817,-3.0817,-3.0817,-3.0817,-7.0435,-7.0394,-7.0222,-7.0394,-7.0808,-7.0498,-7.0435,-7.0291,-6.9911,-6.9291,-6.8566,-6.8057,-6.7839,-6.7839,-6.7638,-6.7428,-6.7346,-6.7263,-6.632,-6.5337,-6.4262,-6.3276,-6.227,-6.1348,-6.0794,-6.0794,-6.0794,-6.0794,-6.0794,-6.0794,-6.0794,-6.0794,-6.0794,-6.0794,-6.0794,-6.0794,-6.0794,-6.0794,-6.0794,-6.0794,-6.0844,-6.0799,-6.0506,-5.9842,-5.8983,-5.89,-5.8021,-5.8132,-5.8226,-5.8446,-5.8924,-5.9121,-5.9205,-5.9205,-5.9205,-5.9205,-5.9205,-5.9205,-5.9205,-5.9205,-5.9205,-5.9205,-5.9017,-5.7988,-5.538,-5.4916,-5.3394,-5.1845,-5.0912,-5.0961,-5.0962,-5.089,-5.0484,-5.0118,-4.9753,-4.9348,-4.8945,-4.8565,-4.84,-4.84,-4.8377,-4.8377,-4.8377,-4.8377,-4.7868,-4.7186,-4.4172,-4.1325,-3.9119,-3.7188,-3.6644,-3.6178,-3.6097,-3.6097,-3.6097,-3.6097,-3.6097,-3.5595,-3.5027,-3.436,-3.3706,-3.2623,-3.1632,-3.1233,-3.0817,-3.0817,-3.0817,-3.0817,-3.0817,-3.0817,-3.0817,-3.0817,-3.0817,-3.0817,-3.0788,-6.9704,-6.9635,-6.9153,-6.936,-6.998,-6.9808,-6.9704,-6.9635,-6.9153,-6.863,-6.7999,-6.7799,-6.7719,-6.7638,-6.7394,-6.7304,-6.718,-6.7014,-6.6062,-6.5069,-6.4031,-6.3036,-6.2022,-6.1277,-6.0794,-6.0794,-6.0794,-6.0794,-6.0794,-6.0794,-6.0794,-6.0794,-6.0794,-6.0794,-6.0794,-6.0794,-6.0794,-6.0794,-6.0794,-6.0794,-6.0782,-6.1126,-6.0475,-6.0266,-5.9797,-5.9331,-5.8763,-5.8523,-5.8648,-5.8755,-5.898,-5.9177,-5.9205,-5.9205,-5.9205,-5.9205,-5.9205,-5.9205,-5.9205,-5.9205,-5.9205,-5.9205,-5.9205,-5.7861,-5.626,-5.5115,-5.3733,-5.1911,-5.1241,-5.089,-5.0866,-5.0722,-5.0339,-4.9995,-4.973,-4.9372,-4.8872,-4.8492,-4.8423,-4.8377,-4.8377,-4.8377,-4.8013,-4.7941,-4.7259,-4.6426,-4.4344,-4.1731,-3.9591,-3.7888,-3.6804,-3.6402,-3.6097,-3.6097,-3.6097,-3.6097,-3.6097,-3.5855,-3.5271,-3.4702,-3.3952,-3.2952,-3.2128,-3.1632,-3.1233,-3.09,-3.0817,-3.0817,-3.0817,-3.0817,-3.0817,-3.0817,-3.0817,-3.0803,-3.0715,-6.8221,-6.8152,-6.8152,-6.8601,-6.9187,-6.8497,-6.8221,-6.8394,-6.8256,-6.8068,-6.7799,-6.7597,-6.751,-6.7394,-6.7105,-6.698,-6.7097,-6.6854,-6.5855,-6.4355,-6.3891,-6.268,-6.1551,-6.0845,-6.0794,-6.0794,-6.0794,-6.0794,-6.0794,-6.0794,-6.0794,-6.0794,-6.0794,-6.0794,-6.0794,-6.0794,-6.0794,-6.0824,-6.0855,-6.0917,-6.1234,-6.1775,-6.0861,-6.0179,-6.0209,-5.9729,-5.8827,-5.8794,-5.898,-5.9064,-5.9093,-5.9205,-5.9205,-5.9205,-5.9205,-5.9205,-5.9205,-5.9205,-5.9205,-5.9205,-5.9205,-5.9205,-5.9205,-5.8333,-5.7065,-5.5802,-5.4314,-5.2554,-5.1926,-5.1128,-5.089,-5.0721,-5.0192,-4.9873,-4.9654,-4.9226,-4.8822,-4.8492,-4.8423,-4.8377,-4.8377,-4.8305,-4.7794,-4.7355,-4.6596,-4.5512,-4.3966,-4.2059,-4.0002,-3.8444,-3.7188,-3.6483,-3.6097,-3.6097,-3.6097,-3.6097,-3.6016,-3.5855,-3.5612,-3.5027,-3.4294,-3.3296,-3.2623,-3.2046,-3.1399,-3.09,-3.0817,-3.0817,-3.0817,-3.0817,-3.0817,-3.0817,-3.0817,-3.0803,-3.0729,-6.8083,-6.8083,-6.8083,-6.8256,-6.8463,-6.8221,-6.8083,-6.8044,-6.7965,-6.7879,-6.7719,-6.7469,-6.7304,-6.718,-6.698,-6.6854,-6.6896,-6.6812,-6.5724,-6.3984,-6.375,-6.2534,-6.1348,-6.0794,-6.0794,-6.0794,-6.0794,-6.0794,-6.0794,-6.0794,-6.0794,-6.0794,-6.0794,-6.0794,-6.0794,-6.0824,-6.0948,-6.1379,-6.1532,-6.1603,-6.1927,-6.1461,-6.0697,-5.9728,-5.9857,-5.9333,-5.8457,-5.8868,-5.9121,-5.9205,-5.9205,-5.9205,-5.9205,-5.9205,-5.9205,-5.9205,-5.9205,-5.9205,-5.9205,-5.9205,-5.9205,-5.9205,-5.9142,-5.855,-5.7221,-5.6742,-5.5141,-5.3394,-5.2521,-5.1574,-5.0794,-5.0173,-4.9668,-4.9642,-4.9444,-4.9098,-4.8722,-4.8515,-4.8377,-4.8377,-4.8377,-4.8377,-4.8086,-4.7259,-4.6448,-4.5309,-4.4008,-4.2079,-4.0002,-3.8664,-3.749,-3.6563,-3.6097,-3.6097,-3.6097,-3.6097,-3.6097,-3.6016,-3.5855,-3.5514,-3.4686,-3.3788,-3.3116,-3.2541,-3.1647,-3.0817,-3.09,-3.0984,-3.0817,-3.0817,-3.0817,-3.0788,-3.0744,-3.0773,-3.0803,-6.8083,-6.8083,-6.8083,-6.8083,-6.8083,-6.8083,-6.8083,-6.8044,-6.7879,-6.7759,-6.7638,-6.7346,-6.7139,-6.7056,-6.693,-6.6812,-6.677,-6.6354,-6.5592,-6.3891,-6.3371,-6.2189,-6.1226,-6.0794,-6.0794,-6.0794,-6.0794,-6.0794,-6.0794,-6.0794,-6.0794,-6.0794,-6.0794,-6.0794,-6.0794,-6.0855,-6.1101,-6.1532,-6.1748,-6.1871,-6.2005,-6.1631,-6.0723,-5.9878,-5.9364,-5.8785,-5.8551,-5.8671,-5.9008,-5.9121,-5.9205,-5.9205,-5.9205,-5.9205,-5.9205,-5.9205,-5.9205,-5.9205,-5.9205,-5.9205,-5.9205,-5.9205,-5.9205,-5.8739,-5.7825,-5.735,-5.5802,-5.4273,-5.3189,-5.1807,-5.0555,-4.9864,-4.9427,-4.9398,-4.9135,-4.8768,-4.8653,-4.8423,-4.8377,-4.8377,-4.8377,-4.8377,-4.8232,-4.7259,-4.6374,-4.5159,-4.3953,-4.2022,-4.0256,-3.9138,-3.7809,-3.6644,-3.6097,-3.6097,-3.6097,-3.6097,-3.6097,-3.6097,-3.5935,-3.5774,-3.5433,-3.4604,-3.387,-3.3116,-3.2541,-3.1978,-3.1482,-3.1316,-3.1233,-3.0984,-3.0817,-3.0773,-3.0685,-3.0685,-3.07,-6.8083,-6.8083,-6.8083,-6.8083,-6.8083,-6.8083,-6.8083,-6.8044,-6.7879,-6.7678,-6.7469,-6.7263,-6.7056,-6.6854,-6.6812,-6.6812,-6.6601,-6.5855,-6.4811,-6.3797,-6.302,-6.1853,-6.1124,-6.0794,-6.0794,-6.0794,-6.0794,-6.0794,-6.0794,-6.0794,-6.0794,-6.0794,-6.0794,-6.0794,-6.0794,-6.0855,-6.1194,-6.1625,-6.1994,-6.2086,-6.212,-6.2035,-6.0791,-5.9839,-5.9044,-5.86,-5.8341,-5.825,-5.8643,-5.8924,-5.9177,-5.9205,-5.9205,-5.9205,-5.9205,-5.9205,-5.9205,-5.9205,-5.9205,-5.9205,-5.9205,-5.9205,-5.9205,-5.9142,-5.8829,-5.7952,-5.6547,-5.4916,-5.353,-5.1877,-5.0435,-4.9789,-4.9093,-4.8918,-4.8676,-4.8538,-4.8469,-4.8377,-4.8377,-4.8377,-4.8377,-4.8305,-4.8159,-4.7355,-4.6299,-4.548,-4.418,-4.2253,-4.0646,-3.9943,-3.8444,-3.6483,-3.6097,-3.6097,-3.6097,-3.6097,-3.6097,-3.6097,-3.6097,-3.5935,-3.5612,-3.5271,-3.4523,-3.3952,-3.3706,-3.3198,-3.2458,-3.1963,-3.1647,-3.1384,-3.1008,-3.0642,-3.0525,-3.0466,-3.0393,-6.8083,-6.8083,-6.8083,-6.8083,-6.8083,-6.8083,-6.8004,-6.7879,-6.7678,-6.751,-6.7263,-6.7022,-6.6896,-6.6812,-6.6812,-6.6812,-6.6397,-6.5767,-6.4766,-6.3703,-6.2583,-6.1702,-6.1124,-6.0794,-6.0794,-6.0794,-6.0794,-6.0794,-6.0794,-6.0794,-6.0794,-6.0794,-6.0794,-6.0794,-6.0794,-6.0794,-6.1225,-6.1686,-6.2086,-6.2271,-6.1959,-6.1686,-6.0505,-5.9457,-5.8262,-5.7764,-5.7338,-5.7856,-5.8278,-5.8531,-5.9008,-5.9177,-5.9205,-5.9205,-5.9205,-5.9205,-5.9205,-5.9205,-5.9205,-5.9205,-5.9205,-5.9205,-5.9205,-5.9205,-5.908,-5.855,-5.7322,-5.5604,-5.4071,-5.2546,-5.0699,-4.9574,-4.9021,-4.8753,-4.8561,-4.8446,-4.8377,-4.8377,-4.8377,-4.8377,-4.8377,-4.8377,-4.8086,-4.7208,-4.6225,-4.563,-4.4482,-4.2503,-4.0958,-4.0178,-3.8761,-3.6724,-3.6097,-3.6097,-3.6097,-3.6097,-3.6097,-3.6097,-3.6097,-3.6097,-3.5855,-3.5514,-3.5027,-3.4621,-3.436,-3.387,-3.3198,-3.2788,-3.2458,-3.1692,-3.1302,-3.0824,-3.0446,-3.0328,-3.0181,-6.7221,-6.7221,-6.7221,-6.7221,-6.7221,-6.7221,-6.7065,-6.689,-6.7243,-6.7387,-6.718,-6.693,-6.6812,-6.6812,-6.677,-6.6567,-6.6062,-6.5069,-6.4077,-6.3068,-6.2221,-6.145,-6.0949,-6.0794,-6.0794,-6.0794,-6.0794,-6.0794,-6.0794,-6.0794,-6.0794,-6.0794,-6.0794,-6.0794,-6.0794,-6.0824,-6.0978,-6.1471,-6.1933,-6.2333,-6.1913,-6.1256,-6.0261,-5.882,-5.7456,-5.6963,-5.6482,-5.735,-5.7716,-5.8165,-5.8755,-5.898,-5.9093,-5.9205,-5.9205,-5.9205,-5.9205,-5.9205,-5.9205,-5.9205,-5.9205,-5.9205,-5.9205,-5.9205,-5.9205,-5.8955,-5.7478,-5.5867,-5.4608,-5.3172,-5.119,-4.9481,-4.9116,-4.8676,-4.8538,-4.84,-4.8377,-4.8377,-4.8377,-4.8377,-4.8377,-4.8377,-4.7868,-4.6965,-4.6225,-4.5779,-4.4708,-4.2866,-4.1249,-4.008,-3.8524,-3.6563,-3.6178,-3.6097,-3.6097,-3.6097,-3.6097,-3.6097,-3.6097,-3.6097,-3.6016,-3.5855,-3.5514,-3.5271,-3.5027,-3.4506,-3.4066,-3.3674,-3.3265,-3.2437,-3.1732,-3.1371,-3.0755,-2.9998,-2.9851,-6.5911,-6.5945,-6.5876,-6.6014,-6.5911,-6.5979,-6.5748,-6.5357,-6.6655,-6.7148,-6.6867,-6.6659,-6.6474,-6.6305,-6.6263,-6.5899,-6.5171,-6.4231,-6.3385,-6.2288,-6.145,-6.0897,-6.0897,-6.0794,-6.0794,-6.0794,-6.0794,-6.0794,-6.0794,-6.0794,-6.0794,-6.0794,-6.0794,-6.0794,-6.0794,-6.0794,-6.0886,-6.104,-6.1409,-6.1748,-6.1695,-6.1339,-6.0623,-5.8648,-5.7868,-5.7451,-5.6641,-5.662,-5.6985,-5.78,-5.839,-5.8643,-5.9008,-5.9205,-5.9205,-5.9205,-5.9205,-5.9205,-5.9205,-5.9205,-5.9205,-5.9205,-5.9205,-5.9205,-5.9205,-5.9205,-5.7889,-5.626,-5.4875,-5.3197,-5.1309,-4.9913,-4.9217,-4.878,-4.8515,-4.8423,-4.8377,-4.8377,-4.8377,-4.8377,-4.8377,-4.8377,-4.8232,-4.7355,-4.6522,-4.6002,-4.5031,-4.3248,-4.1559,-4.0237,-3.8444,-3.6644,-3.6258,-3.6097,-3.6097,-3.6097,-3.6097,-3.6097,-3.6097,-3.6097,-3.6016,-3.6097,-3.6097,-3.5774,-3.5514,-3.5285,-3.4928,-3.4392,-3.3759,-3.3097,-3.2473,-3.1933,-3.1238,-3.0389,-2.9671,-6.5876,-6.5876,-6.5876,-6.5876,-6.5876,-6.5876,-6.5611,-6.5255,-6.5562,-6.5527,-6.5277,-6.5196,-6.5222,-6.5425,-6.5358,-6.4992,-6.4366,-6.3467,-6.2779,-6.1968,-6.1102,-6.064,-6.0763,-6.0763,-6.0763,-6.0794,-6.0794,-6.0794,-6.0794,-6.0794,-6.0794,-6.0794,-6.0794,-6.0794,-6.0794,-6.0794,-6.0794,-6.0824,-6.0978,-6.1163,-6.1111,-6.07,-5.9976,-5.8457,-5.7698,-5.6795,-5.6183,-5.6226,-5.6788,-5.7491,-5.8053,-5.8587,-5.9149,-5.9177,-5.9205,-5.9205,-5.9205,-5.9205,-5.9205,-5.9205,-5.9205,-5.9205,-5.9205,-5.9205,-5.9205,-5.9205,-5.8424,-5.6677,-5.5034,-5.3247,-5.166,-5.0483,-4.934,-4.8882,-4.8492,-4.8446,-4.8377,-4.8377,-4.8377,-4.8377,-4.8377,-4.8305,-4.8232,-4.7721,-4.6913,-4.6077,-4.533,-4.3877,-4.2022,-4.0471,-3.8682,-3.7108,-3.6339,-3.6097,-3.6097,-3.6097,-3.6097,-3.6097,-3.6097,-3.6097,-3.6097,-3.6097,-3.6097,-3.6097,-3.5918,-3.5621,-3.5227,-3.4675,-3.4013,-3.3495,-3.303,-3.2504,-3.1983,-3.1199,-3.0171,-6.4876,-6.4876,-6.4876,-6.4876,-6.4841,-6.4876,-6.4649,-6.4269,-6.423,-6.3995,-6.3808,-6.4275,-6.4749,-6.4884,-6.4783,-6.4094,-6.3561,-6.2646,-6.1488,-6.0751,-6.0668,-6.0404,-6.0424,-6.0578,-6.0763,-6.0794,-6.0794,-6.0794,-6.0732,-6.0794,-6.0794,-6.0794,-6.0794,-6.0794,-6.0794,-6.0794,-6.0794,-6.0794,-6.0794,-6.0794,-6.0742,-6.0282,-5.9542,-5.8225,-5.7303,-5.6451,-5.5902,-5.5889,-5.6311,-5.6929,-5.7519,-5.8137,-5.8587,-5.8755,-5.8952,-5.9121,-5.9205,-5.9205,-5.9205,-5.9205,-5.9205,-5.9205,-5.9205,-5.9205,-5.9205,-5.9142,-5.8829,-5.7221,-5.5802,-5.4122,-5.2302,-5.0976,-4.958,-4.8763,-4.8496,-4.84,-4.8377,-4.8377,-4.8377,-4.8377,-4.8377,-4.8377,-4.8305,-4.8255,-4.7355,-4.6225,-4.5405,-4.418,-4.2406,-4.0705,-3.8998,-3.7508,-3.6724,-3.6178,-3.6097,-3.6097,-3.6097,-3.6097,-3.6097,-3.6097,-3.6097,-3.6097,-3.6097,-3.6046,-3.5926,-3.5737,-3.5265,-3.4727,-3.4441,-3.4077,-3.3548,-3.2961,-3.2455,-3.2001,-3.1057,-6.3669,-6.36,-6.3634,-6.3634,-6.36,-6.3634,-6.3446,-6.3106,-6.3034,-6.2804,-6.2691,-6.3768,-6.4715,-6.4986,-6.4633,-6.3647,-6.2721,-6.1925,-6.0534,-5.9607,-5.954,-5.9593,-5.9839,-6.0147,-6.0209,-6.0455,-6.064,-6.0578,-6.0547,-6.0671,-6.0794,-6.0794,-6.0794,-6.0794,-6.0794,-6.0794,-6.0794,-6.0794,-6.0794,-6.0794,-6.0481,-6.0084,-5.9369,-5.8415,-5.7443,-5.6566,-5.6019,-5.5639,-5.592,-5.6451,-5.7126,-5.7659,-5.8109,-5.8334,-5.8643,-5.8868,-5.9149,-5.9177,-5.9205,-5.9205,-5.9205,-5.9205,-5.9205,-5.9205,-5.9205,-5.9017,-5.8767,-5.7825,-5.6417,-5.4782,-5.2984,-5.1419,-5.0056,-4.8667,-4.8523,-4.8377,-4.8377,-4.8377,-4.8377,-4.8377,-4.8377,-4.8377,-4.84,-4.84,-4.7648,-4.6522,-4.5384,-4.4084,-4.2713,-4.1094,-3.9471,-3.8047,-3.7028,-3.6563,-3.6178,-3.6097,-3.6097,-3.6097,-3.6097,-3.6097,-3.6097,-3.6097,-3.6046,-3.5892,-3.5772,-3.5515,-3.5258,-3.4844,-3.4632,-3.4265,-3.3881,-3.3346,-3.3109,-3.267,-3.2025,-6.36,-6.36,-6.36,-6.36,-6.36,-6.36,-6.3377,-6.3038,-6.3,-6.277,-6.2561,-6.2618,-6.3226,-6.3903,-6.3159,-6.2457,-6.1963,-6.1129,-6.0122,-5.9092,-5.8905,-5.8947,-5.9101,-5.9347,-5.9224,-5.9562,-6.0086,-6.0393,-6.0301,-6.0547,-6.0794,-6.0794,-6.0794,-6.0794,-6.0794,-6.0794,-6.0794,-6.0794,-6.0794,-6.0794,-6.0794,-6.0451,-6.0084,-5.9255,-5.8386,-5.7499,-5.668,-5.5875,-5.5979,-5.6423,-5.6929,-5.7266,-5.7575,-5.7884,-5.8193,-5.8446,-5.8755,-5.9008,-5.9008,-5.9064,-5.9064,-5.9205,-5.9205,-5.9205,-5.9205,-5.9205,-5.8767,-5.8135,-5.6639,-5.4942,-5.3258,-5.2045,-5.0694,-4.915,-4.8377,-4.8377,-4.8377,-4.8377,-4.8377,-4.8377,-4.8377,-4.8377,-4.84,-4.8159,-4.7648,-4.667,-4.6002,-4.4708,-4.3192,-4.1578,-3.9864,-3.8682,-3.7428,-3.6644,-3.6097,-3.6097,-3.6097,-3.6097,-3.6097,-3.6097,-3.6097,-3.6097,-3.6011,-3.5789,-3.5515,-3.5258,-3.4967,-3.4659,-3.4385,-3.4051,-3.3932,-3.3661,-3.3534,-3.3289,-3.2681]}]]